GFSMA_sfc_dewp_000.txt.gz
Dewpoint
70 70 72 72 72 72 71 71 71 70 70 70 70 70 69 70 70 70 70 71 75 74 73 73 73 73 72 71 71 72 72 71 71 71 71 70 71 71 71 70 70 70 71
71 71 72 71 71 72 70 71 70 69 68 68 68 68 69 69 70 69 69 71 72 75 75 74 74 73 74 72 72 72 72 72 72 72 73 73 72 72 72 71 70 70 71
71 71 71 70 71 70 70 70 69 67 67 67 67 67 67 68 69 69 69 71 71 72 73 75 75 74 74 74 73 73 74 73 74 73 73 73 73 73 73 73 72 72 73
72 71 70 70 70 70 69 69 68 67 67 66 66 66 67 68 68 68 69 69 71 71 73 73 75 75 74 73 74 74 74 74 73 74 74 74 73 74 73 73 73 73 73
72 72 70 70 70 70 70 68 67 67 67 66 66 67 67 68 68 67 68 69 69 70 70 71 73 74 73 73 73 74 74 74 74 74 74 75 74 74 74 74 74 74 74
72 72 70 70 70 70 68 68 68 67 67 66 66 66 66 66 67 67 67 68 68 69 69 71 74 73 73 73 73 73 74 74 74 74 74 74 75 74 74 74 74 74 74
72 71 71 70 70 69 68 68 67 67 66 67 66 65 64 64 64 64 65 66 64 65 69 72 73 74 73 73 73 73 73 73 74 74 74 74 74 75 75 74 74 74 74
72 70 70 69 70 69 68 67 67 66 66 67 65 63 61 61 62 63 64 64 63 63 64 67 69 70 71 73 73 73 73 73 74 74 74 74 74 74 74 74 74 74 74
71 71 70 70 68 67 66 66 66 66 65 66 66 64 60 59 62 62 63 63 63 64 66 66 66 67 69 70 70 70 71 72 72 73 73 73 74 74 74 74 74 74 73
69 68 68 67 66 66 66 66 67 67 66 64 65 66 65 64 61 59 60 60 60 60 63 65 65 66 68 68 67 69 70 71 71 72 72 73 73 73 74 74 74 74 74
65 66 66 66 67 65 65 66 66 66 66 65 64 64 63 63 63 60 57 57 58 62 63 64 64 65 66 65 65 64 65 68 69 71 72 72 72 73 74 74 75 75 75
63 64 65 67 66 65 65 65 65 65 65 66 66 64 63 61 61 60 59 58 58 58 62 63 63 63 63 64 60 62 63 65 65 66 68 70 72 72 72 74 74 75 75
63 64 66 65 64 63 64 64 65 65 64 65 65 64 64 63 63 62 60 59 58 58 60 58 62 63 60 62 61 61 62 62 64 64 65 67 69 71 72 73 73 74 75
63 64 63 63 61 62 63 64 64 64 64 65 64 64 64 64 63 62 61 59 54 54 55 56 57 61 61 59 60 61 60 62 62 62 63 64 66 68 70 70 72 72 72
62 63 62 63 61 61 64 64 63 64 64 64 65 64 63 63 61 62 61 60 57 52 50 53 55 57 57 58 59 59 60 61 61 62 62 63 63 66 68 69 69 69 71
62 62 62 62 62 62 63 64 63 63 64 63 63 63 64 64 62 61 59 60 58 56 54 54 55 56 57 57 59 60 59 60 60 61 61 62 63 63 65 67 68 68 68
62 62 62 62 62 62 63 63 63 63 64 64 64 64 64 64 62 61 60 59 58 57 55 56 56 57 58 59 59 59 59 59 58 60 60 60 61 61 62 65 66 66 67
62 62 62 63 63 63 63 63 63 64 63 63 63 63 63 62 62 62 59 60 60 59 58 57 58 57 58 60 60 59 58 56 58 57 59 59 60 61 61 62 64 64 64
61 61 63 63 62 62 61 61 63 63 63 63 63 63 62 61 61 61 60 60 60 60 59 57 57 58 57 58 58 59 59 58 57 57 58 58 58 60 60 60 62 62 60
62 62 62 62 61 60 60 61 62 62 62 62 63 63 62 61 61 61 61 61 61 60 59 58 57 57 57 58 57 55 54 55 55 54 56 56 58 59 60 60 60 62 59
62 62 62 61 61 60 59 62 63 62 63 63 63 63 61 61 62 62 62 61 60 59 59 57 56 56 56 56 55 55 54 54 55 54 54 54 55 57 58 60 63 64 62
62 62 61 61 61 60 60 61 63 62 63 63 61 61 59 59 60 60 61 62 62 60 59 58 56 56 57 57 56 54 53 52 52 54 54 53 55 55 57 57 59 63 63
62 61 61 61 61 62 59 59 61 64 62 60 60 60 58 59 60 58 58 59 60 60 61 61 58 57 57 57 57 55 55 53 53 53 53 52 54 53 57 57 58 59 62
61 61 62 62 62 62 58 58 60 63 62 60 59 59 59 59 57 58 58 58 57 57 57 55 57 57 57 58 58 57 55 55 55 55 54 53 54 53 56 57 58 60 61
63 62 63 63 62 62 58 57 59 62 61 60 59 57 56 58 56 55 56 56 55 55 55 55 55 55 55 55 56 56 54 54 52 51 53 53 53 53 55 56 57 60 60
63 64 63 62 60 62 58 58 58 61 59 57 57 57 55 54 53 52 54 54 54 53 52 52 53 53 54 55 55 57 57 53 52 51 53 53 53 55 55 57 57 62 67

GFSMA_sfc_dewp_003.txt.gz
Dewpoint
73 73 73 73 74 73 72 72 72 71 70 68 68 69 67 69 69 68 69 72 73 73 73 74 73 73 72 71 72 73 72 72 71 72 71 72 72 71 71 70 70 70 70
74 76 73 75 72 73 71 72 71 70 69 68 67 67 67 67 69 69 67 69 71 72 74 74 74 73 73 73 72 71 73 74 73 73 73 73 73 72 72 71 71 70 71
76 75 76 75 72 72 73 72 71 70 68 67 67 66 67 67 67 69 69 68 69 72 73 73 75 75 73 73 73 74 74 74 74 74 74 73 73 73 73 73 73 72 72
75 76 77 76 73 72 71 70 69 68 69 67 67 67 66 66 68 68 68 68 68 67 71 73 73 75 75 72 73 73 74 74 74 74 74 74 74 74 74 74 74 73 73
75 76 76 75 73 71 74 71 70 70 67 67 66 65 65 65 67 64 67 69 69 68 67 73 73 73 73 72 74 73 74 74 73 74 74 75 74 74 74 74 74 73 74
74 74 74 73 72 73 71 71 71 70 69 68 65 64 65 65 64 65 65 63 62 67 69 71 71 70 73 72 73 73 74 74 74 74 74 74 74 74 74 74 74 74 74
74 75 75 73 73 70 71 71 70 69 67 69 66 61 64 65 63 63 62 58 57 59 63 67 69 70 70 73 74 73 73 74 74 74 74 74 74 74 74 74 74 74 74
74 74 74 71 72 69 71 70 70 67 67 69 65 65 57 60 62 60 58 52 57 56 58 63 65 68 69 69 70 71 71 72 72 73 74 74 73 74 74 74 74 74 74
74 74 73 71 71 69 65 69 68 69 65 68 68 63 57 55 58 61 60 55 57 55 57 60 63 65 65 63 64 66 69 71 72 72 72 73 73 73 73 74 74 74 74
73 72 72 70 71 68 69 68 68 69 69 65 66 67 67 64 56 54 56 56 54 52 57 55 58 60 60 57 60 64 66 67 68 69 71 72 72 73 73 73 73 73 74
73 70 70 70 70 68 69 68 70 69 67 65 64 65 65 63 64 58 51 52 54 56 55 55 56 56 58 57 56 61 64 65 64 65 65 67 69 71 72 72 73 74 74
69 69 68 69 70 69 68 66 69 68 67 67 66 65 60 57 56 56 54 55 55 55 56 55 55 56 56 55 55 61 62 63 63 63 63 64 65 67 70 71 72 73 74
67 67 68 69 68 70 67 67 68 67 67 65 67 62 63 60 61 60 58 55 55 55 56 56 55 56 56 57 56 60 62 63 64 63 63 63 63 64 65 68 70 72 73
67 67 67 68 69 67 66 67 64 63 66 65 67 67 62 62 62 61 60 58 54 54 54 58 55 55 56 57 59 61 58 62 63 63 63 63 63 63 64 65 67 70 71
66 67 67 68 67 64 65 67 61 64 65 66 65 66 64 62 62 62 63 61 58 54 53 54 54 57 58 58 60 61 60 61 62 63 62 62 62 63 64 64 65 67 69
67 67 67 66 65 64 64 67 63 64 65 62 62 66 66 63 63 66 65 61 60 57 54 53 55 58 60 60 60 61 60 62 61 61 61 61 62 62 62 63 63 65 67
67 67 67 65 65 65 65 66 66 64 64 65 66 66 66 67 63 62 63 63 60 59 57 55 55 60 62 62 61 62 61 60 57 60 61 61 61 61 61 61 62 63 64
67 67 66 66 65 65 65 66 65 61 63 64 64 65 64 62 66 65 62 64 61 62 59 59 60 57 60 62 62 62 60 58 58 58 60 60 59 60 60 60 60 61 61
66 65 65 66 65 65 66 66 65 63 64 64 64 64 64 65 65 61 63 61 59 64 61 59 57 56 57 58 59 61 60 60 58 59 59 59 59 59 58 58 58 59 58
65 65 66 67 66 66 65 64 63 64 65 64 65 65 65 65 64 63 62 63 62 61 60 58 57 55 55 59 58 56 54 54 54 54 56 57 58 57 58 57 58 58 58
65 64 64 66 66 64 60 63 64 64 65 65 65 66 65 65 63 62 59 62 62 60 56 55 55 53 53 53 54 54 54 54 56 54 52 52 52 52 53 55 58 60 59
64 65 65 65 65 62 60 61 63 64 65 66 65 65 65 63 63 61 61 61 62 61 61 58 53 55 59 57 55 56 54 53 50 53 55 54 52 51 53 54 56 58 58
64 64 65 64 66 65 60 60 62 63 64 65 66 65 63 59 61 60 59 59 59 60 61 62 60 59 59 59 60 58 56 55 54 54 55 53 52 52 54 54 56 57 57
64 65 65 66 65 65 59 58 61 65 65 65 65 65 63 63 61 59 59 58 58 59 60 57 59 59 59 58 58 57 57 57 56 54 57 51 51 51 53 55 56 57 57
65 66 64 65 65 65 58 58 61 64 64 63 65 64 62 61 58 56 56 57 58 58 56 56 55 55 55 55 55 55 54 53 52 51 52 50 50 51 53 54 56 57 56
65 64 65 66 63 66 57 57 61 62 63 63 63 62 56 57 53 53 57 57 56 56 55 55 54 54 55 55 55 56 54 54 54 51 52 52 53 54 53 54 55 58 58

GFSMA_sfc_dewp_006.txt.gz
Dewpoint
74 71 72 72 71 70 70 70 70 69 70 67 67 65 62 62 65 63 64 72 71 72 73 73 73 73 73 72 73 72 72 72 71 70 70 71 72 72 70 70 70 71 71
75 69 70 69 69 70 70 70 70 70 69 67 65 64 63 61 63 66 62 65 71 71 72 74 74 74 73 73 72 72 73 73 74 72 73 74 73 73 71 70 70 70 71
74 73 70 69 69 73 73 71 72 70 67 65 64 61 62 63 62 65 63 62 65 72 72 72 74 75 74 73 73 73 73 74 74 74 74 74 74 73 73 73 72 72 72
74 73 70 69 69 70 70 69 69 66 64 62 61 61 62 62 63 64 63 64 62 60 71 73 72 74 75 72 73 73 74 74 74 74 74 74 74 74 74 74 74 74 74
73 72 70 69 72 69 73 72 67 67 62 60 59 58 61 61 62 59 64 67 66 64 61 72 71 71 71 72 74 74 74 74 74 74 74 74 74 74 74 74 74 74 74
73 73 71 71 71 73 68 68 69 65 65 61 58 57 62 63 63 62 62 60 61 64 65 69 67 67 71 70 72 74 75 74 74 74 73 74 74 74 74 74 74 74 74
73 74 70 72 72 70 69 69 65 65 59 64 59 58 60 62 62 62 60 54 57 58 62 66 67 67 69 72 72 72 72 73 74 74 74 74 74 74 74 74 74 74 74
74 73 73 71 72 66 69 67 67 61 61 63 60 58 53 57 58 57 56 52 55 53 56 61 65 69 68 68 69 70 70 71 72 72 73 74 74 73 73 73 74 74 74
74 74 74 71 70 65 59 66 66 65 58 64 65 59 53 51 52 56 58 54 56 52 54 56 60 62 63 61 64 65 66 67 69 70 71 72 73 73 73 73 73 73 74
73 73 73 70 68 63 67 65 65 65 65 60 61 62 64 63 53 51 54 54 56 54 57 53 54 58 60 56 61 64 65 64 64 65 65 67 69 71 72 73 73 73 73
73 70 72 69 67 64 68 68 67 67 63 60 58 60 63 58 62 54 49 52 54 55 56 56 54 54 56 58 55 60 62 62 62 62 62 63 64 65 68 70 73 73 73
69 72 71 69 67 65 67 66 66 66 65 64 61 62 56 54 54 53 50 52 52 54 55 55 55 53 54 55 54 58 59 62 61 61 61 62 63 63 64 65 68 71 72
64 69 72 70 65 68 67 66 66 65 65 63 65 59 58 57 56 54 53 52 51 53 54 56 57 55 54 55 56 59 63 63 63 63 63 62 62 62 63 63 64 66 69
62 67 71 69 67 67 67 65 61 61 63 62 64 65 59 57 56 56 54 54 53 52 53 59 58 55 55 55 59 62 59 62 62 62 62 63 62 62 62 62 63 63 64
63 68 69 68 65 66 65 65 60 63 62 63 62 63 61 56 55 55 56 58 56 52 49 52 52 57 56 56 60 60 61 62 62 62 62 62 62 62 62 62 63 63 63
70 68 68 65 65 65 64 66 62 63 63 58 56 61 63 58 58 57 57 56 56 55 52 51 51 55 58 58 61 61 61 64 63 63 62 61 62 62 62 62 63 63 63
71 69 69 66 65 64 65 65 65 62 61 62 61 63 64 66 60 56 55 55 54 54 53 53 53 57 61 62 61 61 60 60 58 62 62 62 61 61 61 61 61 61 62
70 69 68 67 67 64 65 65 63 61 61 60 61 63 63 60 64 65 59 62 59 60 56 60 59 56 61 61 61 62 60 56 57 59 61 60 60 59 59 59 60 60 60
69 67 67 68 67 67 65 65 65 64 62 61 62 63 63 63 64 60 61 58 55 56 57 54 55 55 55 55 58 63 61 61 56 59 60 59 59 59 59 58 58 57 57
68 67 67 67 65 66 66 65 64 64 62 61 63 63 63 63 63 63 61 62 62 59 59 55 55 53 58 59 58 56 53 51 51 51 56 56 57 58 60 58 57 57 56
67 63 66 63 65 66 63 65 64 62 63 63 63 63 64 64 63 63 58 62 63 58 55 54 52 51 52 54 58 53 51 52 55 54 51 50 48 51 53 55 56 59 58
66 66 64 63 63 63 59 61 63 62 63 64 64 65 66 66 65 63 62 62 61 61 59 54 53 53 59 59 56 53 53 52 51 54 54 49 52 52 52 52 55 57 56
67 65 64 64 64 65 60 60 62 61 62 63 66 66 65 63 64 63 62 61 61 60 60 61 60 59 61 60 59 60 58 55 53 51 55 53 53 51 52 49 54 57 56
65 66 66 66 65 64 61 60 62 64 65 66 66 65 65 64 65 63 63 60 60 60 61 59 60 59 59 59 58 57 57 57 56 55 58 53 51 49 52 53 55 55 55
65 66 66 66 66 66 58 58 62 63 64 65 66 65 65 65 61 57 59 59 59 59 57 57 56 55 54 54 55 54 52 52 52 53 54 52 49 50 52 53 55 56 55
66 64 65 66 63 68 57 56 60 61 65 62 64 65 59 61 54 54 58 58 57 57 57 56 56 56 56 55 56 57 55 55 54 52 53 51 51 53 52 53 54 55 55

GFSMA_sfc_dewp_009.txt.gz
Dewpoint
74 72 74 69 70 72 72 70 72 69 69 69 68 64 62 60 58 58 61 74 73 72 73 73 74 74 74 73 73 73 73 72 70 70 71 70 71 71 72 71 70 70 71
75 69 75 72 71 70 74 71 72 69 71 70 66 63 61 60 61 62 59 68 74 73 72 74 74 73 74 73 73 73 73 74 72 71 71 73 73 72 72 71 70 70 71
72 74 71 71 67 74 72 73 73 73 70 61 61 59 59 60 60 63 61 58 69 74 73 73 75 75 75 74 73 73 74 74 74 74 74 74 74 74 74 73 72 72 72
74 74 70 70 72 70 73 71 70 68 61 59 59 58 58 59 62 62 62 61 59 60 73 74 72 74 74 72 73 74 74 74 74 75 75 75 75 74 74 74 74 74 73
75 72 70 72 72 72 69 69 68 70 60 59 57 55 59 60 60 58 60 62 64 62 60 74 74 72 72 72 73 73 74 74 74 74 74 75 75 74 74 74 74 74 74
74 73 70 72 72 70 69 72 70 64 63 61 56 54 59 60 60 59 60 56 59 61 64 66 69 69 72 71 71 73 74 74 74 74 74 74 74 75 74 74 74 74 74
75 74 71 73 71 71 72 68 64 65 60 62 58 58 58 60 60 59 56 54 56 56 60 63 65 67 71 73 72 73 73 72 72 73 74 74 74 74 74 74 74 74 74
74 74 74 70 71 66 68 67 66 61 59 61 59 56 54 59 64 55 55 53 55 53 56 60 64 67 68 69 70 68 68 70 71 72 72 72 74 74 74 74 74 74 74
73 74 73 73 71 67 56 67 65 64 59 61 65 59 53 53 57 59 59 54 56 54 55 57 60 61 62 62 67 64 65 65 66 67 68 70 71 72 73 74 74 74 74
72 72 74 70 70 63 69 66 63 65 65 60 59 59 62 61 54 51 58 56 55 54 58 55 53 58 58 55 63 64 63 62 62 63 63 63 64 67 69 71 73 73 73
71 69 70 70 68 62 68 68 66 67 64 60 58 57 63 57 60 53 50 52 54 54 55 55 54 52 56 57 55 61 61 62 61 61 62 62 63 63 64 65 68 70 73
69 70 69 70 68 66 67 66 67 67 66 65 61 61 56 54 53 53 51 54 52 53 54 55 55 56 53 54 56 61 59 61 62 61 61 61 62 62 63 63 64 65 67
64 73 72 71 67 69 67 67 68 67 65 63 66 60 62 58 56 53 52 51 51 53 56 57 61 60 55 56 56 59 63 64 64 63 63 62 62 62 62 61 62 63 64
64 74 71 70 69 67 67 68 63 62 66 63 64 67 59 60 58 54 54 59 59 57 59 65 63 62 57 56 60 62 59 66 65 63 62 62 63 62 62 62 62 62 62
64 67 70 69 68 66 67 67 61 65 64 64 65 67 62 57 55 54 56 63 62 57 56 56 54 64 63 59 61 59 60 64 64 62 63 62 63 63 63 63 63 63 63
72 71 71 70 68 68 68 69 65 66 66 61 58 65 66 58 59 56 61 57 55 53 51 53 53 59 62 57 60 60 60 64 64 63 63 62 62 63 63 63 63 63 63
74 72 73 71 68 68 68 69 67 65 65 67 66 64 65 67 60 56 55 56 53 55 52 55 55 59 67 65 62 64 61 63 59 62 63 63 62 62 62 62 62 62 62
75 73 72 71 68 67 66 68 66 64 63 63 63 66 64 60 68 69 59 67 63 63 57 62 60 57 63 65 66 66 61 56 58 58 63 63 61 60 60 60 60 60 59
75 72 72 72 68 68 68 68 68 67 64 64 64 65 64 66 68 62 65 62 60 61 60 54 55 58 58 58 60 64 65 63 60 59 59 60 60 60 59 58 58 57 56
76 73 72 70 69 68 68 67 67 67 67 66 66 65 65 66 67 68 66 68 65 62 60 57 55 55 57 59 60 55 57 58 57 54 57 56 58 60 60 58 58 58 56
75 73 71 69 69 65 62 68 65 65 67 65 64 64 65 66 65 65 64 65 67 61 56 55 55 54 54 54 57 56 57 56 57 55 54 55 54 54 53 57 59 60 58
74 72 69 67 65 61 60 62 65 62 66 66 65 66 67 65 64 63 63 63 63 64 63 57 56 56 60 60 57 57 58 54 51 56 56 54 53 52 53 54 56 57 57
73 71 68 64 64 66 62 61 63 62 64 65 68 67 64 61 63 62 63 63 62 61 61 63 62 61 61 62 62 61 60 57 54 53 56 52 54 54 56 52 56 57 55
72 69 67 66 67 67 61 60 63 64 65 65 67 68 68 67 65 66 65 63 64 64 64 60 63 63 63 61 60 58 60 59 56 55 57 52 54 55 56 55 56 56 54
70 67 66 66 68 68 59 58 62 65 65 67 67 67 66 67 63 60 63 61 61 61 59 59 58 56 54 54 55 53 51 48 48 49 54 53 53 53 53 53 55 56 55
70 66 65 68 66 68 58 57 61 64 64 65 68 69 62 63 57 56 61 60 60 60 58 58 58 57 57 58 56 58 54 51 50 51 53 52 49 50 51 54 54 57 58

GFSMA_sfc_dewp_012.txt.gz
Dewpoint
74 72 75 75 74 73 73 75 73 73 73 72 70 69 64 65 64 63 72 74 74 73 74 74 74 74 74 73 73 73 73 72 71 71 72 73 73 73 72 72 72 72 71
77 75 76 74 73 73 75 74 74 74 74 71 70 66 64 64 65 66 65 73 75 74 75 74 75 74 74 73 74 74 74 74 73 72 72 73 73 73 73 73 73 72 72
77 77 75 76 75 74 74 74 73 75 69 70 68 65 65 64 66 65 65 66 72 75 75 76 75 75 75 73 74 74 75 74 74 74 73 73 74 74 74 74 73 72 72
77 78 76 73 75 73 75 73 73 72 68 67 66 66 64 65 65 66 65 64 68 68 74 75 75 74 74 73 73 74 74 74 75 75 74 74 74 75 75 74 74 74 73
77 76 74 73 76 76 73 73 72 73 69 67 62 64 65 65 65 60 64 64 65 68 69 73 74 74 73 72 73 74 74 74 74 74 75 74 74 74 74 74 74 74 74
76 76 75 76 76 75 70 74 70 69 68 67 61 60 65 66 65 66 62 60 63 64 69 69 72 72 73 71 72 73 73 74 74 74 74 74 74 74 74 74 74 74 74
77 77 76 75 74 74 68 70 70 68 68 68 66 65 66 65 65 65 61 61 61 62 65 66 69 72 73 73 72 72 73 72 72 74 74 74 74 74 74 74 74 74 74
78 75 76 76 74 74 73 71 69 68 67 69 65 65 61 63 62 58 61 59 59 61 63 64 68 68 71 72 69 68 68 70 71 71 72 73 73 74 74 73 73 74 74
76 74 76 76 75 72 71 71 70 69 66 69 67 65 62 60 63 64 63 61 61 61 62 64 64 64 64 69 67 64 64 65 65 66 67 69 70 71 72 72 73 73 74
76 76 76 76 74 72 73 71 70 69 70 66 67 65 66 64 61 60 64 62 62 60 62 61 62 63 61 65 64 64 64 64 62 62 62 63 64 65 66 69 71 73 73
75 74 76 75 73 70 73 71 70 69 70 68 66 67 67 66 65 60 58 61 62 62 63 63 60 60 63 61 64 64 64 64 62 59 60 60 61 62 63 63 65 67 69
73 75 74 74 73 71 72 71 71 70 69 70 68 68 66 63 61 62 61 60 59 61 62 61 63 63 61 63 61 65 64 63 63 63 62 60 61 61 62 62 62 63 64
71 74 74 73 72 72 73 72 72 71 69 68 70 67 65 64 65 64 61 60 59 62 62 63 63 64 62 62 62 65 65 64 64 63 63 62 62 62 61 61 61 61 62
70 73 72 72 73 71 71 71 70 67 69 68 67 68 67 66 65 63 62 62 59 60 60 62 64 63 65 64 65 65 62 66 65 64 63 63 63 63 63 62 61 61 61
73 71 72 73 71 71 71 72 68 68 69 70 69 68 67 65 65 65 65 64 62 58 58 60 61 64 63 60 63 62 64 65 67 65 63 63 63 63 63 64 64 64 63
73 73 73 72 71 70 69 71 67 69 68 68 67 68 67 66 66 66 63 63 63 60 58 61 61 63 63 63 65 63 63 65 65 64 63 62 63 64 64 64 63 63 63
73 73 73 71 71 70 70 70 69 67 67 67 67 67 66 68 66 65 66 65 62 62 60 60 62 62 62 63 63 64 66 65 64 64 64 63 63 63 63 63 63 63 63
74 73 73 72 71 68 70 68 66 65 67 67 67 67 66 64 68 68 67 65 65 65 62 61 62 62 64 65 66 64 64 59 62 61 63 62 62 62 61 61 60 60 61
74 72 73 72 71 68 69 68 67 67 67 65 66 66 65 67 68 67 67 66 65 64 65 62 60 61 62 61 61 62 62 64 64 63 61 60 61 61 60 59 58 58 57
74 74 72 72 71 68 68 67 67 67 67 66 67 67 66 65 67 67 66 67 67 66 64 62 62 60 62 62 63 60 60 62 62 58 60 59 60 61 61 59 58 58 56
76 75 74 72 71 68 65 68 68 67 68 66 68 67 67 68 66 67 68 66 67 65 62 58 55 56 57 58 59 59 58 59 59 59 59 57 56 58 57 60 61 61 59
76 76 74 72 71 68 62 64 67 67 68 66 67 68 67 66 65 64 64 64 65 65 61 59 57 56 59 60 61 60 59 57 55 59 59 55 56 55 54 53 56 56 56
76 75 74 72 70 69 62 62 64 66 65 65 68 67 66 62 67 67 64 63 63 62 61 60 58 59 60 62 61 60 59 59 56 56 56 52 54 54 56 55 58 57 57
76 75 73 70 69 66 62 61 63 65 64 66 67 68 67 66 67 66 66 66 64 63 64 63 61 61 62 63 62 60 58 57 57 56 56 54 56 53 54 55 57 57 55
73 72 71 67 67 68 62 59 61 64 63 65 67 66 67 67 64 60 65 64 63 64 62 59 61 60 57 55 56 57 54 53 51 53 55 53 52 54 55 51 52 56 55
72 71 68 67 65 68 61 58 59 64 63 65 68 67 62 64 60 58 64 63 62 62 63 62 62 59 57 57 56 56 55 53 53 53 54 54 50 48 44 48 55 56 55

GFSMA_sfc_dewp_015.txt.gz
Dewpoint
71 71 71 72 71 69 72 72 71 70 69 69 67 66 59 59 60 70 72 75 74 75 75 74 74 74 74 73 73 73 73 71 71 72 72 72 72 73 73 72 72 72 72
72 71 72 71 73 72 72 71 70 70 71 69 69 67 59 62 62 64 71 72 74 74 75 75 74 74 74 73 74 74 74 73 72 71 73 74 73 73 73 72 72 71 72
72 72 71 72 71 72 72 69 70 69 67 67 66 64 61 62 61 60 63 70 72 74 75 75 75 75 75 74 73 74 75 75 74 73 73 73 73 73 74 73 74 73 73
72 72 72 70 71 70 72 71 71 68 67 67 61 62 57 61 61 60 63 68 71 70 73 74 74 74 74 73 74 74 74 75 75 75 74 74 74 74 74 74 74 74 73
74 72 73 71 71 72 69 69 67 68 64 62 59 59 61 60 62 61 62 61 63 69 71 73 73 74 72 71 73 73 74 75 74 75 75 74 74 74 74 74 74 74 74
74 73 71 72 72 71 69 68 67 65 63 62 62 59 61 60 59 62 61 58 60 69 69 68 70 71 73 72 71 73 73 74 74 74 74 73 74 74 74 74 74 74 74
73 73 72 71 72 71 67 68 66 62 63 63 59 60 62 61 60 57 56 55 56 62 66 68 69 71 71 73 73 72 73 71 71 73 73 73 73 73 73 74 74 74 74
74 72 72 71 72 70 67 64 62 63 64 64 58 60 58 59 61 56 56 54 57 60 62 64 63 69 70 69 67 68 69 69 70 71 72 73 73 73 73 73 72 73 74
74 72 73 72 69 66 66 64 63 63 60 64 60 60 57 56 60 60 57 55 56 55 59 62 60 60 69 66 64 63 65 66 64 64 65 66 67 68 69 71 72 73 72
73 72 72 72 69 68 67 65 65 62 64 60 64 61 60 58 56 56 60 56 57 55 55 59 60 58 66 66 64 63 65 65 63 61 60 62 63 64 64 65 68 70 71
73 73 73 71 67 65 67 66 64 62 64 64 62 63 62 61 59 54 54 56 60 59 59 55 59 59 59 62 60 63 65 64 63 62 60 59 60 61 62 63 63 65 66
72 73 73 68 66 65 67 65 65 65 64 64 63 63 62 58 58 56 56 54 54 57 59 60 56 56 60 62 62 64 66 64 63 62 62 60 60 60 60 60 61 61 62
71 72 71 68 66 65 68 67 65 64 63 63 63 62 63 61 59 58 54 56 54 58 57 60 60 59 58 60 61 64 66 65 64 63 63 63 63 62 61 60 60 60 60
70 71 70 68 67 65 69 68 66 65 65 64 61 62 62 61 62 58 57 56 53 55 56 55 62 60 60 58 61 67 62 65 65 64 63 63 64 64 64 64 62 61 61
69 70 70 68 67 66 65 67 66 64 65 64 61 62 61 60 61 61 58 57 54 52 54 56 56 61 60 59 62 61 58 64 65 65 64 63 64 64 65 64 64 64 64
71 69 70 68 70 66 67 68 65 66 64 65 64 64 62 62 62 61 60 58 59 55 54 57 56 57 58 60 62 61 58 65 65 65 64 62 62 63 64 64 64 64 64
70 69 70 70 68 67 68 68 64 64 65 63 63 62 64 62 61 60 62 60 58 57 55 55 57 58 59 57 58 61 62 62 61 64 64 63 62 62 63 63 64 64 63
71 70 70 70 68 67 66 67 64 64 63 65 63 62 61 62 62 61 63 62 62 61 58 56 59 58 58 60 61 62 61 60 61 63 64 63 62 62 62 62 62 62 61
71 71 71 69 69 68 66 67 65 63 65 64 64 63 63 62 61 63 64 63 62 62 61 60 58 59 59 59 57 58 59 59 62 64 62 61 61 60 60 60 59 59 58
73 69 70 69 69 68 66 66 65 64 65 65 64 64 63 62 62 64 63 63 63 62 61 60 59 59 59 58 60 59 57 58 58 60 61 61 61 61 61 60 59 59 57
73 72 70 70 70 68 66 66 65 65 65 65 64 65 64 65 65 64 64 63 64 63 61 59 57 55 55 56 56 57 58 58 58 58 58 57 56 55 55 58 61 62 60
74 72 72 71 70 69 64 65 65 65 66 65 64 66 64 66 65 65 65 64 64 63 60 58 56 56 55 57 58 58 58 56 55 57 56 53 52 51 51 53 57 58 57
74 74 73 72 70 70 64 63 65 66 65 65 65 65 65 63 64 63 63 62 63 62 61 59 57 56 56 58 58 57 56 56 56 56 53 52 53 53 53 55 57 56 56
74 75 74 71 71 69 62 62 63 64 64 64 66 66 65 64 64 65 64 63 62 63 62 62 60 59 60 60 60 59 57 55 54 55 55 52 53 53 52 53 57 57 56
75 74 72 69 68 67 61 60 61 62 62 62 65 66 65 65 62 60 63 63 63 62 62 60 61 61 59 58 59 56 53 52 51 51 52 52 51 51 52 49 47 53 53
72 72 69 68 65 66 60 58 59 61 61 62 63 65 62 63 60 59 63 62 60 59 59 59 58 58 56 55 56 55 53 52 51 51 53 52 49 46 43 44 47 52 52

GFSMA_sfc_dewp_018.txt.gz
Dewpoint
70 70 70 72 71 70 70 70 71 70 70 69 69 67 61 63 69 70 70 73 73 75 74 74 74 73 73 74 73 73 72 71 70 71 72 72 72 71 71 71 71 71 71
70 70 70 71 71 70 68 71 70 68 68 67 67 68 66 61 67 69 70 71 74 74 75 74 74 74 74 73 73 73 73 72 71 72 72 73 73 72 71 72 72 72 72
71 71 72 71 70 72 72 69 69 69 66 66 62 61 61 61 62 66 70 70 71 74 74 75 75 75 74 73 73 74 74 74 73 72 73 73 73 73 73 73 72 72 73
72 71 72 70 70 71 71 70 70 68 65 61 59 60 58 61 60 60 64 67 70 70 73 74 74 74 73 72 73 73 74 74 74 74 74 73 72 73 73 74 73 74 74
73 71 71 71 70 72 69 69 67 67 62 60 60 58 61 60 62 62 62 66 68 70 70 72 73 74 72 70 71 73 73 74 74 74 74 74 74 74 74 74 74 74 74
73 71 71 71 70 70 69 68 66 65 62 63 63 59 60 59 62 61 58 61 69 69 69 68 70 71 73 72 72 72 72 73 73 73 73 73 73 74 74 74 74 74 74
73 71 71 71 71 70 67 67 65 61 61 62 56 59 62 60 57 57 56 59 63 66 68 68 70 71 72 72 72 72 72 71 71 71 73 73 73 72 72 72 72 73 74
72 72 72 71 71 68 66 63 61 61 62 62 57 59 57 59 60 55 54 60 61 64 65 67 68 69 69 68 68 70 70 70 70 70 71 71 71 72 72 72 72 72 73
72 72 71 71 70 69 66 63 62 61 59 62 60 58 56 56 59 59 55 56 56 58 61 61 66 68 68 65 65 64 66 67 66 65 65 65 66 66 67 69 70 70 72
73 71 71 71 66 67 64 63 65 63 61 59 63 61 59 57 56 55 58 55 56 54 58 60 59 65 67 65 63 63 65 65 64 61 60 60 61 62 63 64 66 68 69
72 72 71 71 66 66 65 64 63 62 64 62 61 62 61 60 55 53 54 55 58 58 56 55 60 60 66 65 62 62 66 65 65 62 59 58 59 59 60 61 61 62 63
72 72 72 70 65 65 66 65 63 62 64 64 62 63 61 55 56 55 54 54 54 57 57 58 57 59 61 64 62 63 66 65 64 64 64 62 60 59 59 59 60 60 60
71 72 71 68 65 63 65 64 64 64 63 62 59 60 62 60 59 56 52 54 52 56 56 58 59 57 59 61 61 65 67 65 64 63 63 64 64 63 61 61 61 60 60
70 71 70 68 65 65 66 65 64 64 63 61 63 62 61 60 60 57 54 55 52 54 55 52 59 60 59 59 62 68 62 65 65 64 63 64 64 64 65 65 65 63 62
70 71 70 67 65 64 67 66 65 63 65 63 61 60 61 59 60 60 60 56 52 51 51 54 56 59 60 60 62 64 60 63 65 64 64 63 64 64 65 65 65 65 65
70 70 69 67 66 64 65 66 65 64 63 64 63 61 61 60 60 61 59 57 56 52 51 55 56 55 56 59 61 63 59 63 64 64 64 63 63 64 64 65 65 65 64
69 70 69 67 66 65 64 67 64 65 62 63 64 63 62 61 60 59 61 59 57 58 55 54 56 56 60 59 57 59 62 60 61 63 63 63 63 63 63 64 64 64 64
69 69 69 68 67 66 65 65 65 64 64 62 62 62 61 62 62 60 60 60 59 60 56 54 57 58 57 57 59 61 61 60 60 63 63 63 62 62 62 62 62 62 62
70 69 69 69 67 67 66 66 65 64 62 64 63 62 61 61 60 61 61 61 62 61 61 59 57 59 59 58 58 57 58 59 60 63 62 61 61 61 60 59 59 58 58
70 70 69 69 69 67 66 66 66 64 63 63 63 63 62 62 61 60 62 61 62 62 60 60 59 58 58 58 58 58 57 57 57 59 61 60 61 61 60 58 58 59 57
72 70 70 69 68 68 67 66 65 64 64 63 64 64 64 64 64 62 62 62 62 62 61 61 58 57 55 55 55 56 57 57 58 58 57 57 56 54 53 56 57 60 59
73 71 70 69 69 68 65 64 66 66 65 64 63 64 64 65 65 63 63 63 63 62 60 60 60 57 56 55 57 57 56 55 54 57 56 54 52 52 53 53 57 58 58
72 72 70 70 69 69 64 63 65 66 66 65 64 64 64 65 65 65 63 63 62 62 63 63 61 59 57 57 57 56 56 55 55 56 53 52 52 52 53 54 57 58 56
72 73 72 71 70 70 63 61 64 67 67 66 66 65 65 65 64 64 63 62 61 63 63 63 61 61 59 59 59 58 57 55 54 55 54 51 52 53 53 53 56 57 56
74 74 74 72 71 70 61 60 63 66 66 65 65 66 65 64 61 61 63 61 62 63 63 60 60 59 58 58 59 57 56 53 51 51 52 52 51 51 51 50 48 53 53
74 74 73 72 68 67 58 58 62 63 63 63 63 64 61 64 59 58 63 62 61 59 60 60 57 57 57 56 57 57 55 52 51 51 52 52 51 49 46 44 44 46 50

GFSMA_sfc_dewp_021.txt.gz
Dewpoint
70 70 69 70 70 70 69 69 70 70 69 69 68 66 61 68 69 69 69 72 74 74 73 72 73 72 72 73 73 72 73 72 71 72 70 72 71 70 69 70 70 70 70
70 69 69 70 70 70 68 69 70 69 68 66 66 65 66 61 68 69 69 70 74 74 75 72 73 73 72 73 72 73 72 72 70 71 72 72 72 72 70 70 71 72 71
70 70 69 70 70 71 70 70 69 69 65 63 60 60 61 62 67 68 69 69 70 73 75 75 74 73 72 73 73 73 73 73 72 72 72 73 72 72 72 72 72 72 72
70 70 70 70 70 71 70 69 69 67 64 61 58 59 58 61 61 64 67 69 69 69 72 74 74 74 72 71 71 73 74 73 73 74 73 72 72 73 73 73 73 73 72
72 71 71 70 70 70 69 69 67 66 61 60 60 58 61 60 61 62 62 68 69 70 69 72 72 74 72 70 71 73 72 73 74 74 73 73 73 73 73 73 74 74 74
72 71 70 70 69 70 69 67 65 64 61 62 63 59 60 59 62 60 58 66 68 69 69 68 70 70 72 71 72 72 72 73 72 73 73 74 73 73 73 73 73 73 73
72 70 70 71 70 69 68 66 65 61 60 62 55 57 61 59 57 56 59 66 66 67 67 68 69 70 71 72 72 71 71 71 71 72 71 71 72 73 73 72 72 73 73
72 71 70 70 70 69 67 66 61 60 62 61 57 58 56 58 57 55 56 62 65 67 67 68 69 69 69 69 69 70 71 71 71 71 70 70 70 71 72 72 72 72 72
72 72 71 71 70 68 66 63 61 61 58 62 59 58 56 55 58 58 54 57 62 63 63 65 67 68 66 65 66 65 68 69 67 66 66 65 65 66 66 67 69 69 70
71 72 71 70 70 69 66 63 63 61 60 60 62 60 58 58 54 51 57 55 55 55 60 60 64 67 67 64 63 62 66 66 65 61 60 60 61 61 62 63 64 67 67
71 72 71 70 66 67 65 63 63 63 61 59 60 60 59 59 54 54 52 54 58 57 56 59 59 60 67 65 61 61 65 65 65 63 60 58 58 59 59 60 61 61 62
72 71 71 70 67 65 64 64 63 62 64 63 62 62 60 54 56 54 54 54 54 55 58 57 56 59 62 65 64 62 66 65 64 64 64 63 61 60 59 59 59 60 60
71 71 71 70 66 65 65 64 62 61 63 62 61 61 61 59 58 56 51 53 52 54 56 57 58 58 58 62 64 66 66 66 64 64 63 63 65 64 63 63 63 63 62
71 71 71 71 67 64 65 64 63 63 62 62 60 61 61 60 58 56 53 55 52 53 55 53 57 60 58 59 62 65 63 66 65 64 64 64 64 65 66 66 65 65 65
71 71 71 70 67 64 64 64 64 63 63 61 61 62 61 60 60 60 59 54 51 49 50 53 55 56 60 59 61 62 64 63 65 65 64 63 64 64 65 66 66 66 66
70 70 71 69 67 64 65 65 64 63 64 63 62 60 60 60 59 60 58 56 54 51 50 53 56 55 56 58 60 63 62 64 64 64 64 64 64 64 65 65 65 65 65
70 70 70 69 67 65 65 65 65 64 62 63 63 61 60 60 60 60 60 59 57 56 52 55 57 56 56 59 58 57 59 60 60 63 63 63 63 63 64 64 64 64 64
70 70 70 69 67 66 63 65 65 64 63 61 62 62 62 62 61 60 59 60 57 57 56 53 55 57 57 57 57 59 60 60 59 61 62 62 62 62 62 62 62 62 62
70 69 69 69 67 66 65 63 65 64 64 63 61 62 62 61 60 61 60 60 61 60 59 57 56 58 58 58 58 57 57 58 59 62 60 61 60 61 60 59 58 57 57
70 69 69 69 68 67 66 65 64 64 64 64 64 63 61 61 60 60 60 61 60 61 59 59 58 58 58 58 58 57 56 57 57 58 60 60 61 61 60 58 58 58 56
71 69 69 69 69 67 67 66 66 65 65 64 63 64 63 63 63 62 60 60 62 60 60 59 58 58 58 58 58 58 56 57 57 58 57 56 56 54 52 56 56 58 58
71 70 69 68 69 68 65 64 66 66 65 65 63 64 65 65 65 63 62 62 63 61 60 58 59 58 57 59 58 58 56 55 54 56 55 55 54 52 52 53 57 58 58
71 70 70 69 69 69 63 63 65 67 65 65 65 65 64 64 64 65 63 62 63 62 62 60 58 60 60 60 59 56 56 55 54 56 55 53 52 52 52 53 57 57 57
72 72 70 70 69 69 63 61 64 67 66 66 66 65 64 64 64 64 63 62 61 62 63 62 61 62 61 61 59 58 57 55 55 56 54 51 52 52 53 53 56 57 56
71 72 71 70 70 70 61 60 62 67 66 66 66 66 65 64 62 61 63 62 61 61 62 60 61 60 59 58 59 57 56 54 52 51 52 51 51 51 51 51 51 55 54
73 72 72 72 68 70 60 58 63 67 66 66 65 65 62 64 59 58 64 62 60 61 60 59 58 56 56 54 57 57 55 52 50 49 51 51 50 49 47 46 45 45 46

GFSMA_sfc_dewp_024.txt.gz
Dewpoint
71 72 71 71 72 72 70 70 71 71 71 70 69 66 65 68 68 68 70 71 73 73 72 72 73 72 71 72 72 71 72 71 71 71 70 71 71 70 69 69 69 70 69
71 71 71 71 71 72 71 71 72 70 70 67 67 68 68 64 68 69 69 69 73 73 73 72 72 73 72 72 72 72 72 73 71 71 71 72 72 71 70 70 70 71 71
71 71 70 71 71 72 72 71 70 71 67 64 63 63 64 65 66 70 70 69 70 71 73 73 73 72 72 72 73 73 73 73 72 71 72 72 72 72 72 71 71 71 72
72 71 71 72 72 73 72 71 71 69 66 63 63 63 63 65 65 69 69 70 70 69 71 73 73 74 71 71 71 73 73 73 73 73 73 72 72 72 72 73 72 73 72
73 72 71 72 71 72 71 70 69 68 64 63 64 62 64 63 64 62 65 68 69 70 69 72 73 73 71 70 71 71 71 73 74 74 74 74 73 73 73 74 74 73 73
73 72 72 72 71 71 70 69 69 66 64 64 61 62 63 62 65 64 62 67 69 70 70 70 71 72 72 71 71 70 70 71 73 73 73 73 74 73 73 73 73 73 73
73 73 72 72 71 71 70 69 67 65 63 63 61 61 63 61 60 60 65 68 69 69 69 69 70 71 71 72 72 70 70 70 71 71 72 72 72 72 71 72 72 72 72
73 72 71 71 71 71 69 68 66 63 63 62 61 60 60 60 60 59 62 65 67 68 68 69 71 71 70 71 70 71 71 71 71 70 71 71 71 71 71 71 71 71 72
73 73 71 72 71 71 69 68 65 64 62 64 62 61 58 58 59 60 60 61 65 66 66 68 69 69 68 67 67 66 68 69 67 66 66 66 66 66 66 67 68 68 69
72 73 72 72 71 71 68 67 65 64 64 64 63 61 61 62 58 56 60 59 59 60 63 64 67 68 68 66 63 62 66 66 66 61 59 59 60 61 62 63 65 66 67
72 72 73 72 71 70 70 67 66 65 64 63 62 62 61 59 58 57 55 57 60 60 59 62 62 64 68 66 64 61 65 64 64 64 61 57 57 58 58 59 61 62 62
71 72 72 72 71 69 69 67 66 66 66 64 63 64 62 60 58 57 57 57 57 59 60 60 60 62 63 67 65 64 65 66 64 64 64 64 61 61 61 61 61 62 61
72 72 72 71 70 68 68 67 66 65 66 65 65 63 63 61 60 58 57 56 57 57 59 60 61 61 61 64 67 68 67 66 65 64 64 64 64 65 64 64 64 64 64
71 73 72 71 71 69 68 67 65 64 65 65 64 64 63 62 61 59 58 58 56 56 57 60 59 62 63 62 63 66 66 66 66 64 64 64 64 64 66 66 66 66 65
71 72 72 72 71 68 68 67 65 65 65 64 64 64 63 62 62 61 59 59 58 54 55 57 58 60 63 62 62 64 66 66 65 65 64 64 64 64 65 66 66 66 66
71 72 72 72 71 68 67 67 66 65 65 64 63 64 64 62 62 62 61 60 58 58 55 57 58 60 60 61 62 64 64 64 65 64 64 64 64 64 65 65 65 65 66
71 71 72 72 70 69 67 66 66 66 65 65 65 63 63 64 61 61 61 60 59 57 57 58 59 60 61 62 62 62 61 63 62 63 63 63 63 64 64 64 64 64 64
71 71 71 71 71 69 68 67 66 66 65 64 65 64 63 62 63 63 61 63 61 61 59 60 59 60 61 62 62 63 62 60 62 61 62 62 62 62 61 62 62 62 61
71 71 71 71 70 69 67 67 67 66 66 65 65 65 64 64 63 62 63 62 62 61 63 60 60 60 61 61 62 62 62 62 60 62 61 60 60 61 60 59 57 57 56
71 71 71 71 70 69 68 67 67 67 66 66 66 65 64 64 63 63 63 64 64 64 63 62 61 62 60 61 61 60 59 60 59 59 61 60 60 60 59 58 57 58 57
71 71 70 71 70 69 68 68 67 66 66 66 66 66 65 65 65 63 62 64 65 63 64 63 62 61 60 61 61 60 58 59 60 60 60 60 59 58 58 57 57 59 57
71 71 70 70 70 69 65 64 67 67 67 66 65 66 66 65 65 63 62 62 64 63 64 63 62 62 61 62 61 60 59 58 57 60 59 58 58 58 59 57 57 58 58
71 71 70 70 70 70 63 63 65 68 68 67 66 66 65 66 65 66 63 62 62 62 63 64 63 60 61 64 62 59 58 59 58 59 59 57 59 57 58 54 57 57 57
70 71 71 70 70 70 62 62 64 68 68 68 67 66 66 66 66 65 65 65 65 65 64 64 65 63 63 64 62 62 61 60 60 59 59 57 57 55 56 56 57 57 56
71 71 71 71 70 70 61 60 63 68 68 67 67 67 67 66 62 61 66 65 65 64 61 61 60 60 60 60 62 61 59 58 57 55 56 55 55 54 54 53 54 55 54
72 72 72 71 68 71 60 59 63 68 68 67 67 67 62 65 59 58 66 66 65 63 63 63 62 60 59 57 59 61 58 54 54 52 55 53 53 53 46 51 50 50 50

GFSMA_sfc_dewp_027.txt.gz
Dewpoint
72 73 74 72 72 72 70 71 75 71 72 70 69 67 66 67 68 67 67 71 72 72 71 72 72 73 72 72 72 70 71 70 71 70 71 71 71 71 70 69 69 70 70
73 73 73 72 71 73 72 72 73 72 69 67 67 69 68 66 69 69 67 67 70 72 71 71 72 72 72 72 72 72 72 72 72 71 72 70 71 71 70 69 70 71 71
74 74 72 71 71 74 74 73 72 73 66 63 64 66 65 66 65 68 68 67 67 70 71 71 71 72 72 72 72 72 72 73 73 72 71 71 72 72 72 72 71 70 71
74 74 73 72 73 74 75 72 75 73 69 64 64 65 65 65 66 68 68 68 69 66 69 72 72 71 71 71 72 73 72 72 73 73 73 72 72 73 73 73 72 72 72
74 74 72 72 75 73 72 73 72 70 67 64 65 64 64 65 65 62 66 68 69 68 67 69 72 72 70 70 70 70 71 72 74 73 73 73 73 73 74 74 73 74 73
74 74 72 74 74 72 72 72 73 69 66 66 60 63 63 65 66 65 65 66 69 69 69 70 69 68 71 69 69 69 70 70 72 72 72 74 74 74 74 73 73 73 73
74 75 72 74 73 72 72 73 70 69 65 66 62 62 62 63 62 63 67 65 68 68 68 69 69 69 68 70 71 70 71 71 70 69 70 72 72 72 72 72 72 71 71
75 74 75 73 74 71 73 73 71 66 64 66 62 62 57 59 60 60 66 65 67 65 63 65 70 71 69 68 69 70 71 71 71 71 70 70 70 70 70 70 70 70 71
75 75 75 74 74 73 71 73 70 68 63 66 65 61 57 54 60 60 64 65 67 64 63 65 66 69 69 65 63 63 67 69 66 64 63 64 64 64 65 66 67 68 68
74 74 75 74 75 72 73 72 70 68 66 63 64 64 65 64 56 55 59 63 64 62 64 63 64 65 68 64 62 61 62 64 63 60 59 59 60 61 61 62 64 65 66
74 74 75 75 75 73 74 73 71 70 66 63 63 62 64 62 64 59 55 57 61 61 61 62 61 63 66 65 63 62 63 65 65 61 58 57 58 58 58 59 60 61 61
71 74 74 75 75 74 74 73 72 71 68 66 65 64 60 58 57 58 57 59 57 59 59 59 61 61 62 64 65 67 64 65 65 65 64 63 62 63 62 62 63 63 63
69 73 75 75 73 75 74 73 73 71 70 67 69 64 64 61 61 59 57 58 56 58 59 60 61 61 61 62 64 68 68 66 66 65 65 64 64 64 64 64 64 64 65
70 74 74 74 74 74 73 73 71 69 69 68 69 68 64 64 63 61 59 57 56 56 58 60 59 60 63 62 65 68 65 67 66 66 65 65 65 65 66 66 66 66 65
70 73 74 74 75 74 74 73 69 70 68 68 68 68 65 63 63 62 60 59 56 52 53 58 56 63 63 64 65 64 65 66 66 66 65 65 65 65 65 66 66 66 67
74 73 74 74 74 74 74 73 71 70 69 67 65 68 68 64 64 63 62 61 60 57 54 57 58 61 63 63 64 65 64 65 65 65 65 64 64 65 65 65 66 66 66
74 74 74 74 74 74 74 73 72 70 69 69 68 68 68 68 63 62 63 62 61 59 56 57 60 63 65 64 62 64 63 64 61 64 64 64 63 64 65 64 64 64 64
74 75 74 74 74 74 74 73 72 70 70 69 68 68 67 65 67 67 63 66 63 63 59 63 62 61 64 65 66 66 63 59 61 63 64 63 63 63 62 62 62 61 61
74 73 74 74 74 73 73 73 72 72 70 70 69 68 67 67 66 63 64 62 61 63 63 60 59 61 62 62 63 65 65 64 62 63 62 61 61 61 61 60 59 57 56
74 74 75 75 74 73 73 72 72 72 71 70 70 68 68 67 67 67 65 66 65 63 64 61 60 60 61 63 63 60 59 61 60 59 61 61 62 62 61 58 58 58 57
74 74 74 74 74 72 70 72 72 72 71 71 70 69 68 68 66 66 64 66 67 64 62 61 61 61 60 61 61 61 58 59 61 62 61 59 59 58 58 59 58 59 58
74 74 74 74 74 71 66 66 71 71 71 72 71 70 70 68 66 63 63 64 67 67 66 61 61 61 64 63 63 59 58 58 55 63 62 58 61 59 59 59 60 59 58
74 74 74 74 74 74 64 64 66 71 71 72 72 71 69 67 66 66 64 62 63 63 64 67 65 65 65 65 64 64 63 60 59 62 62 57 58 57 56 53 58 58 57
74 74 74 74 74 73 63 62 65 72 72 72 72 71 71 70 69 68 68 66 66 65 65 63 66 67 66 66 65 65 65 64 63 61 63 56 54 53 53 51 56 57 57
74 74 74 74 74 74 61 61 64 70 71 72 72 72 71 70 65 62 68 67 66 66 63 61 62 61 60 61 62 62 61 59 55 54 58 54 51 51 50 49 48 56 53
73 72 73 74 71 74 61 59 63 69 71 70 72 72 63 68 60 59 68 68 67 66 67 65 65 62 62 62 60 65 59 54 50 50 55 49 47 47 43 42 46 43 41

GFSMA_sfc_dewp_030.txt.gz
Dewpoint
72 72 72 70 71 70 68 70 68 68 71 70 67 63 60 61 62 61 64 71 72 71 70 71 72 72 72 72 72 71 71 68 70 70 70 70 70 70 70 69 68 69 70
73 71 71 70 70 71 70 72 70 70 68 65 67 65 59 60 62 63 61 67 71 72 70 71 72 72 72 72 72 71 71 72 71 71 71 70 71 71 70 69 69 70 70
74 75 74 70 70 73 72 72 71 69 65 63 65 60 60 62 61 62 63 63 67 71 71 70 71 72 73 72 72 72 72 72 72 73 71 72 71 72 72 72 71 70 70
74 75 74 70 71 74 71 70 68 67 63 63 62 62 60 62 63 63 62 64 64 63 69 70 70 71 71 72 72 73 73 73 73 73 72 72 71 72 73 72 72 72 72
73 74 71 71 74 71 70 70 68 69 64 63 61 61 59 61 64 57 61 64 65 63 63 70 70 70 69 70 70 70 72 72 73 73 73 73 73 73 72 73 73 73 73
73 74 71 73 71 70 70 70 70 69 66 64 57 57 60 61 60 60 59 59 64 64 63 68 67 68 70 69 69 69 69 70 71 71 71 72 73 73 73 72 73 73 73
74 76 72 73 73 71 73 72 70 70 64 66 57 58 59 60 60 60 59 57 60 60 61 63 64 64 67 71 70 69 70 70 70 70 71 71 71 71 71 72 71 72 70
75 75 76 74 74 70 74 73 72 67 65 61 58 58 54 56 57 58 59 58 59 57 57 61 66 67 66 68 68 69 71 71 71 71 70 69 69 69 69 69 69 70 70
75 76 76 72 75 73 70 73 72 70 63 61 65 60 55 53 55 57 62 58 62 57 58 61 62 65 66 60 62 64 67 68 63 62 62 62 63 64 64 65 65 65 65
74 74 75 75 76 72 73 76 72 70 70 60 62 61 66 65 54 54 57 59 60 59 61 59 59 61 63 59 61 63 64 64 62 60 60 61 61 61 61 61 62 63 63
74 73 75 76 76 73 74 75 73 73 68 61 59 60 63 59 62 56 54 56 59 58 59 60 59 59 62 61 60 62 63 62 60 59 58 58 59 60 60 60 60 61 61
71 74 74 76 76 75 75 74 75 74 72 67 61 62 57 56 56 57 55 58 56 58 58 58 59 59 60 60 65 66 66 65 64 63 61 60 61 62 62 62 62 62 63
66 73 75 75 74 76 75 75 76 73 73 69 69 61 60 59 59 56 54 55 54 56 57 57 58 59 58 60 61 66 68 66 66 65 65 64 63 63 63 64 64 64 64
68 72 73 74 75 75 75 75 73 72 72 71 70 68 60 61 61 59 57 56 54 54 55 60 57 57 58 60 64 70 63 68 67 67 66 66 65 65 66 66 66 66 66
68 71 72 74 74 75 75 76 72 73 71 71 69 69 64 59 61 59 59 57 55 52 52 59 54 60 59 60 64 64 64 69 68 67 66 65 66 66 66 66 66 67 67
74 72 73 73 74 75 75 76 73 73 73 69 66 68 69 60 62 61 59 58 57 55 53 56 56 59 61 59 63 64 63 66 67 66 66 65 65 65 65 65 66 66 66
76 75 75 74 73 74 75 76 75 73 73 72 70 68 69 69 60 59 60 59 59 58 55 55 58 62 66 66 62 62 62 62 59 66 65 65 64 64 65 64 64 64 64
76 77 76 75 74 73 75 75 74 72 73 72 72 71 68 65 69 67 60 68 63 63 57 63 62 60 66 67 66 67 62 57 58 64 65 64 64 64 63 63 63 62 62
77 73 76 77 75 74 75 75 74 74 73 73 72 72 70 68 68 64 65 62 61 62 62 58 57 60 60 62 64 66 65 66 60 64 61 63 63 63 62 61 60 59 57
77 76 76 77 76 75 74 73 73 74 74 73 73 72 71 69 68 68 65 66 64 61 63 59 57 57 60 63 61 58 60 62 59 58 61 60 63 63 63 61 60 59 57
77 77 77 77 77 73 70 75 75 73 74 73 73 73 72 70 67 67 65 67 70 65 57 58 59 57 58 58 61 59 59 61 61 61 60 59 59 60 60 61 60 62 59
77 77 76 76 76 72 66 66 72 73 75 75 74 73 73 70 68 64 64 64 67 68 68 58 58 59 66 63 62 60 59 57 55 61 62 59 59 58 57 56 60 59 59
77 77 76 76 76 76 64 64 67 72 74 75 75 74 72 70 70 70 65 63 64 64 65 69 66 66 66 69 69 65 65 62 60 59 64 59 56 55 55 52 59 58 58
76 76 76 77 77 76 64 62 65 73 74 75 75 75 75 74 72 71 70 67 66 66 67 64 67 66 70 68 68 66 67 66 64 61 65 58 55 51 52 52 58 57 57
76 75 75 77 77 77 63 61 65 72 72 75 75 74 75 75 68 63 71 70 70 68 63 61 62 62 63 61 63 63 61 64 61 57 61 55 51 50 50 49 49 56 51
75 72 74 76 72 77 64 59 65 70 71 70 75 76 65 72 62 60 70 70 70 69 70 67 65 64 63 63 61 65 61 58 54 50 56 52 46 46 46 46 45 44 43

GFSMA_sfc_dewp_033.txt.gz
Dewpoint
72 72 71 72 71 72 72 71 69 70 68 68 66 66 59 57 58 64 64 71 71 71 72 72 72 72 72 72 72 71 70 68 70 71 70 70 70 70 70 68 68 69 70
71 73 71 72 73 73 73 69 69 71 69 67 65 64 59 60 61 63 64 68 73 72 71 71 73 73 72 72 72 71 71 71 70 70 70 70 71 70 70 69 68 69 70
73 75 71 71 74 75 71 72 70 72 66 63 63 58 61 63 59 62 66 65 68 73 71 71 72 73 73 72 72 72 72 72 72 72 72 71 71 71 71 71 71 71 70
74 74 70 69 73 72 68 73 66 64 66 59 60 58 60 59 61 59 61 67 67 64 71 72 71 72 72 71 72 72 72 73 73 73 73 72 71 71 73 72 71 72 72
73 74 73 72 74 71 70 66 70 67 60 59 60 58 59 58 65 57 60 62 64 67 66 72 73 71 71 70 70 70 72 72 73 73 72 73 72 73 73 73 73 73 73
72 74 73 72 71 71 72 71 70 64 64 60 55 55 58 59 59 59 58 62 60 60 66 68 68 69 72 70 70 68 68 69 70 71 71 71 71 73 73 73 73 73 73
73 75 72 74 71 74 71 70 69 69 65 62 57 57 58 58 59 57 56 58 59 62 61 62 69 68 68 72 70 69 70 70 70 70 71 71 71 71 70 71 71 72 72
74 74 76 75 73 74 73 73 71 69 61 59 60 56 54 55 55 56 56 55 58 55 57 60 62 69 70 70 68 70 71 71 71 70 69 69 69 69 69 68 69 70 69
73 77 75 73 74 73 76 73 71 70 61 59 67 62 57 59 54 56 59 58 60 56 57 60 62 63 66 61 63 65 68 68 65 62 62 63 64 64 64 64 64 64 65
73 73 74 73 75 72 75 73 71 71 70 61 59 60 67 66 62 60 58 58 59 58 60 58 60 61 63 59 64 66 67 67 66 64 63 62 62 62 61 61 61 61 61
74 72 76 75 76 73 77 75 75 74 68 64 59 58 62 57 61 60 61 63 58 57 60 60 59 62 62 61 59 62 67 66 66 64 62 61 61 61 61 61 61 61 61
71 76 74 77 78 76 74 74 76 75 73 69 62 61 58 58 57 57 56 61 60 64 57 58 59 58 60 61 62 66 67 66 66 65 62 61 61 62 62 62 62 63 64
65 73 77 78 74 78 75 77 78 75 74 71 72 62 60 59 59 57 55 56 55 56 57 57 58 59 58 60 62 65 68 66 66 66 66 65 64 63 63 63 64 64 65
65 74 77 76 76 76 76 77 74 73 75 72 71 71 62 61 60 59 57 56 55 55 56 61 57 57 59 59 64 69 64 67 66 66 66 65 65 66 66 67 66 66 66
66 73 75 76 76 76 77 78 72 75 75 73 73 72 67 59 60 59 58 57 56 54 55 62 56 64 59 60 64 62 63 67 68 67 66 66 66 66 66 67 67 67 67
76 75 74 75 76 76 77 78 75 76 76 71 67 73 72 61 61 60 58 58 57 55 54 56 58 60 62 58 65 63 62 68 68 68 67 66 66 66 66 66 66 66 66
78 76 77 76 76 76 77 78 77 75 76 75 73 73 73 73 60 58 59 59 58 58 55 55 57 66 68 66 64 65 63 66 61 65 66 66 66 65 65 65 65 65 64
77 78 77 77 76 76 77 77 76 72 75 74 73 73 71 66 73 72 61 71 64 66 58 69 65 62 68 70 70 71 64 58 61 65 66 66 65 64 64 64 64 63 62
78 76 77 78 77 76 76 77 77 76 75 75 75 75 73 72 72 66 67 63 61 63 64 60 59 60 61 64 67 70 70 69 62 65 64 63 63 63 63 62 61 60 59
78 77 77 78 77 77 76 76 76 77 76 75 75 75 75 73 72 72 70 70 68 64 64 61 59 57 59 66 63 61 61 64 62 58 62 60 64 63 62 61 61 60 57
78 78 78 77 78 77 73 76 75 76 76 76 76 76 75 74 70 70 68 70 70 65 58 58 59 59 57 60 64 62 62 60 63 60 61 61 65 61 62 62 62 62 60
78 78 78 77 77 74 68 66 73 75 76 76 76 76 76 72 70 66 65 66 70 71 70 62 61 62 70 66 62 60 61 59 59 68 62 61 65 64 60 59 62 63 61
78 78 77 77 77 77 65 64 67 74 75 75 77 76 75 70 72 72 66 64 64 64 66 72 70 68 71 70 71 68 68 66 62 64 66 60 60 58 56 54 61 61 59
78 78 78 78 78 77 66 62 65 74 75 75 76 76 76 74 75 73 73 70 69 69 69 66 70 71 71 71 69 70 70 69 68 64 69 59 59 56 53 53 61 59 56
77 77 77 78 78 77 65 62 64 72 73 74 75 76 76 76 70 65 74 73 71 70 64 63 64 63 64 63 65 66 63 65 63 60 65 59 55 51 51 51 53 58 56
77 75 76 77 74 78 67 61 63 71 72 72 75 76 67 73 65 61 73 73 72 71 70 68 66 64 65 64 62 68 63 61 61 59 64 56 53 49 46 49 49 50 49

GFSMA_sfc_dewp_036.txt.gz
Dewpoint
74 73 74 71 74 73 73 73 73 71 73 69 69 67 62 60 64 64 69 74 73 74 73 73 72 72 72 72 71 71 68 69 70 70 70 70 70 70 69 69 68 68 69
75 75 76 72 73 73 73 73 75 74 68 70 70 69 63 65 65 65 68 72 74 74 74 73 73 72 72 72 72 71 71 69 69 70 70 71 71 71 70 70 69 69 70
77 72 75 75 75 77 76 75 70 73 69 65 68 68 65 62 66 65 65 67 71 74 74 74 74 74 73 72 72 72 72 73 72 72 73 72 72 72 72 72 72 72 71
78 78 75 74 72 73 76 70 74 71 71 69 66 65 65 65 65 67 66 67 69 68 73 74 74 74 72 72 72 72 73 73 73 74 73 73 73 73 73 74 73 73 73
76 78 75 73 76 76 74 73 72 69 69 67 61 67 67 61 63 60 67 67 69 67 68 73 74 74 72 71 71 72 72 74 74 74 74 74 74 73 74 73 73 73 73
76 77 76 76 77 75 73 73 74 71 70 68 57 62 63 66 64 66 63 64 68 69 68 69 72 71 73 73 72 70 70 70 71 71 72 73 73 73 73 73 73 73 73
77 78 77 73 76 75 75 75 73 70 69 68 68 65 66 63 62 62 64 62 66 65 67 70 71 69 71 73 72 72 70 70 71 72 72 72 71 71 72 72 71 71 72
78 77 77 76 77 73 76 75 74 72 69 67 68 64 62 64 61 60 65 62 64 63 62 69 68 71 70 70 71 73 73 73 71 71 70 70 70 69 69 69 69 70 70
76 77 77 77 77 76 75 75 74 75 69 67 71 68 62 59 64 64 63 63 63 64 64 67 68 71 70 66 69 70 71 70 67 63 63 65 67 67 66 66 66 66 66
75 76 76 77 77 76 76 77 76 75 73 66 67 67 70 69 64 59 65 64 65 61 66 65 65 67 69 66 66 67 68 67 68 66 64 63 65 64 63 63 65 66 66
76 75 76 78 78 77 77 76 77 76 75 72 67 66 68 68 68 66 62 64 65 66 66 66 65 65 67 64 62 65 67 67 67 67 67 66 65 63 62 62 62 62 65
74 77 76 77 78 77 77 77 78 77 76 75 72 69 67 65 65 65 64 63 64 66 66 65 66 67 67 66 62 66 67 67 66 66 66 66 67 66 62 62 62 63 65
72 75 77 77 76 77 77 77 77 78 76 75 73 71 70 69 68 67 65 64 63 65 65 66 67 67 64 69 66 65 68 67 66 66 65 65 66 66 66 66 65 65 65
70 75 75 76 76 76 76 78 77 76 76 75 75 73 71 70 69 67 66 66 62 63 65 63 66 68 68 67 65 68 64 66 65 65 65 65 65 66 66 67 67 67 66
71 76 75 76 75 76 77 78 75 76 77 75 74 74 72 70 69 68 68 67 65 62 63 67 64 66 68 68 67 65 66 65 66 66 65 65 65 66 66 66 67 67 67
74 78 75 75 76 76 77 77 76 77 76 75 73 73 73 69 68 69 68 68 67 65 62 66 66 66 65 66 68 68 67 68 66 67 66 66 66 66 66 66 66 66 66
78 75 77 76 76 76 76 77 76 75 76 75 73 73 72 72 71 69 68 68 68 67 64 64 68 71 69 67 66 68 68 68 67 66 66 66 66 65 65 65 65 65 65
75 78 77 76 76 75 76 76 75 73 75 75 73 72 72 70 72 72 72 68 67 69 67 66 67 69 69 69 70 70 66 61 66 66 66 65 65 64 64 64 64 64 62
77 75 77 77 75 75 75 76 75 75 73 75 75 73 72 72 71 68 70 69 68 69 69 66 66 68 70 70 69 69 70 69 67 66 63 63 64 63 62 62 61 60 59
76 76 76 76 76 75 75 75 75 76 75 74 75 75 74 72 71 71 69 69 69 68 67 67 66 65 68 69 68 66 67 68 67 63 62 62 62 63 62 61 60 60 58
75 76 76 76 76 76 74 75 75 75 75 74 74 75 75 74 70 70 69 70 68 68 67 64 63 65 65 66 65 67 65 64 67 67 65 61 62 63 61 62 62 63 61
76 76 76 76 76 74 69 68 73 74 75 75 75 75 75 72 71 67 67 67 69 67 65 62 63 63 65 66 69 66 65 64 62 67 65 64 66 66 64 65 64 64 62
77 77 76 76 76 76 67 66 68 74 74 75 75 75 74 73 72 72 66 65 66 66 66 67 66 68 69 69 69 68 67 67 65 67 66 64 66 63 66 59 61 61 62
77 76 76 77 76 76 67 64 66 73 74 74 75 75 75 74 74 73 71 68 68 68 67 67 69 68 71 71 70 70 69 68 68 68 68 62 64 64 61 59 60 60 59
76 77 77 77 77 76 65 63 64 71 72 73 74 75 75 75 70 65 73 70 68 68 64 63 64 66 64 65 69 69 68 66 64 64 66 64 63 61 58 60 58 58 56
76 76 76 77 73 77 68 62 64 72 71 71 73 74 67 72 66 61 72 72 70 69 69 67 65 63 64 64 64 69 67 64 63 62 66 63 62 58 54 57 59 54 54

GFSMA_sfc_dewp_039.txt.gz
Dewpoint
72 72 73 71 71 72 71 72 71 70 68 67 64 63 63 64 66 70 72 75 75 74 74 73 72 72 71 70 70 69 70 71 71 71 71 70 71 71 69 69 68 68 70
72 72 73 72 72 71 70 70 72 70 68 67 64 64 63 64 65 67 70 72 75 75 74 74 73 73 72 73 72 71 70 69 70 71 70 72 72 72 71 70 70 69 70
72 70 71 72 71 72 70 72 66 70 68 67 62 62 61 64 65 66 68 70 73 75 75 75 75 74 73 72 72 72 72 73 72 72 73 73 73 73 72 72 72 72 72
73 73 72 72 71 72 73 71 70 66 68 66 63 63 62 63 64 65 66 68 70 70 74 75 75 74 73 72 73 72 73 74 74 74 73 73 72 73 73 73 73 73 73
73 73 71 72 71 72 71 69 70 67 66 66 61 63 62 62 64 65 65 67 68 69 70 74 74 74 72 72 72 72 73 74 74 74 74 73 73 73 73 73 73 73 73
73 73 72 71 73 70 70 68 67 66 65 61 58 62 61 60 62 64 66 67 67 67 68 70 72 72 73 73 73 73 72 72 74 73 73 73 73 73 73 72 73 72 72
73 73 73 72 72 70 70 70 68 67 65 60 60 61 60 58 60 62 64 66 67 66 67 68 70 70 71 73 73 73 72 72 72 72 72 73 72 72 72 72 72 71 71
73 73 73 72 73 71 71 70 69 68 67 62 64 61 55 56 59 61 63 65 65 65 66 68 68 69 70 70 70 73 74 73 72 71 71 70 70 70 70 69 70 69 69
74 73 73 73 73 71 71 71 70 69 61 63 65 64 58 54 58 60 59 59 62 61 65 68 68 68 69 68 72 72 73 72 69 65 64 65 67 67 66 66 66 66 66
73 74 73 72 73 73 71 71 72 70 64 58 61 64 65 64 55 54 61 59 60 59 63 67 68 67 68 65 69 70 70 68 68 66 63 63 64 65 63 64 65 66 66
72 75 73 74 73 73 72 72 72 69 69 66 60 61 63 63 63 59 57 58 61 61 63 61 65 67 64 64 63 66 68 68 68 68 68 66 64 63 63 62 63 66 67
73 74 74 74 73 73 73 73 73 71 70 70 66 64 58 58 59 59 61 60 58 61 61 62 62 63 64 62 63 66 68 68 68 67 67 68 68 66 63 63 63 63 65
71 73 74 74 74 74 74 73 73 73 72 70 69 65 66 61 64 61 61 59 59 61 61 61 63 63 64 60 59 65 68 67 66 66 66 66 67 67 67 66 65 64 65
71 71 74 73 73 73 74 75 74 74 73 71 71 69 65 66 64 60 58 60 57 58 61 57 62 63 63 65 63 67 64 66 65 64 65 65 65 65 66 66 67 67 66
70 72 73 74 73 73 73 74 74 73 73 72 71 71 68 66 67 63 61 61 58 56 58 60 59 63 63 66 66 62 61 66 65 64 64 64 64 65 65 65 66 66 67
69 72 72 73 73 73 74 74 74 74 73 73 72 71 70 68 65 65 63 61 61 58 55 62 60 63 64 64 66 61 60 64 65 65 64 63 64 65 66 66 66 66 65
72 72 73 73 73 73 74 74 73 73 74 73 72 71 70 68 65 65 64 63 61 60 56 58 62 64 64 64 65 65 66 66 63 64 64 64 64 65 65 66 65 65 65
71 74 74 73 74 73 73 75 73 73 72 73 72 70 70 69 67 67 68 62 61 63 59 56 63 64 63 63 62 63 64 64 65 65 64 65 64 64 64 64 64 64 64
74 71 75 74 73 74 74 73 74 73 72 73 73 71 69 70 67 65 67 66 65 63 65 62 62 66 66 66 66 66 64 63 64 66 64 64 64 63 62 62 61 61 60
72 75 72 75 74 74 73 74 73 73 73 72 74 73 71 70 68 67 66 65 65 64 63 63 61 60 63 67 64 63 64 66 64 64 64 63 63 63 63 61 60 60 58
73 73 74 73 74 73 73 73 73 73 73 73 72 74 73 71 69 67 67 66 64 65 64 61 62 63 61 64 64 65 63 64 65 65 63 59 60 60 61 61 62 63 60
72 73 73 73 73 74 69 68 72 73 73 73 73 72 74 72 70 67 66 66 66 62 61 63 59 59 60 61 64 64 63 61 61 66 63 61 60 61 60 60 62 62 60
74 73 72 73 73 73 66 66 68 73 72 73 73 73 71 72 71 72 66 66 65 65 62 60 61 60 60 61 63 63 63 62 61 64 62 60 62 62 63 61 62 61 60
73 74 74 73 74 73 66 64 66 72 72 72 73 73 73 72 72 72 72 69 68 67 66 63 61 60 63 67 64 66 65 64 65 65 65 60 62 61 61 57 60 60 59
73 73 74 74 74 74 64 63 64 71 72 72 72 73 73 73 69 65 72 71 69 68 64 62 63 63 64 65 68 67 65 64 63 64 66 62 61 60 57 57 58 59 57
73 73 73 75 72 74 66 62 64 72 72 71 72 72 66 71 65 62 71 72 70 69 68 66 65 63 64 65 65 67 66 64 63 62 65 63 61 58 51 54 55 56 54

GFSMA_sfc_dewp_042.txt.gz
Dewpoint
70 71 71 72 71 71 70 70 70 69 69 66 64 67 67 66 69 72 73 75 75 74 73 72 70 69 70 71 71 71 71 71 71 70 70 70 71 70 69 68 68 68 69
71 71 71 70 70 70 70 70 70 69 67 66 63 64 64 66 68 71 71 73 75 75 74 72 72 71 71 71 70 70 69 70 71 71 70 71 71 71 70 70 70 69 69
71 71 72 71 70 71 69 69 67 68 65 65 62 63 64 64 67 69 70 70 73 75 75 74 73 73 72 72 72 71 71 70 69 70 71 71 71 71 71 72 72 72 71
72 72 72 71 71 72 72 71 70 65 67 66 64 62 64 65 65 66 68 70 71 71 75 75 74 74 73 72 72 72 72 72 73 73 73 72 72 71 72 72 72 72 72
73 71 71 72 71 71 71 68 69 67 66 66 63 62 63 64 64 65 66 68 69 70 71 74 73 74 72 72 72 72 72 73 73 73 73 73 73 72 72 72 72 72 72
73 72 71 69 71 70 69 69 66 65 65 64 60 61 60 62 65 65 66 67 68 68 69 70 71 72 73 73 72 72 71 72 72 72 73 73 73 73 73 72 71 71 71
72 73 72 72 71 71 70 67 67 65 63 61 60 59 59 59 62 65 67 66 66 67 68 69 70 70 71 73 73 73 70 70 71 71 71 72 72 72 71 71 71 71 70
73 72 72 71 71 71 70 69 68 66 64 61 62 59 53 55 60 62 66 66 66 66 66 68 68 69 70 70 69 73 73 73 72 71 71 70 70 69 69 69 69 68 67
73 73 72 72 71 70 70 70 69 66 59 63 63 60 55 53 56 59 60 65 65 65 66 67 67 68 69 68 71 72 73 72 71 68 65 64 66 65 64 66 66 66 66
73 73 72 72 72 71 70 70 70 68 59 59 60 64 64 62 53 53 59 59 62 62 63 68 68 67 68 67 70 71 73 71 68 66 64 63 63 63 62 63 65 66 66
72 73 73 72 71 72 71 70 71 69 65 60 57 61 61 62 61 56 55 57 61 59 64 67 68 67 67 65 67 69 71 68 68 68 68 65 64 63 63 62 62 65 66
71 73 73 72 72 72 71 71 71 69 70 65 64 62 58 57 58 59 59 58 56 58 61 62 66 67 66 63 65 67 69 68 68 68 68 68 68 66 64 63 63 64 64
70 71 73 72 72 73 72 71 72 71 69 70 67 63 62 58 61 59 59 59 58 60 60 61 62 65 66 62 64 67 68 67 67 66 66 67 68 68 68 66 65 65 64
69 71 73 73 73 73 73 72 72 73 71 70 69 66 65 66 64 60 56 59 55 58 60 59 62 62 64 62 63 68 63 66 66 65 65 65 66 67 66 67 67 66 65
71 71 73 72 73 73 73 73 72 72 72 70 69 70 67 64 65 64 60 60 56 56 56 59 58 62 62 64 62 64 60 65 65 64 64 64 64 65 66 66 65 65 66
70 71 71 73 72 72 72 72 73 72 72 72 71 69 69 68 65 64 64 60 60 56 54 58 61 60 62 63 66 62 59 64 65 64 63 63 63 64 64 65 65 66 66
67 70 71 72 73 72 72 72 72 74 72 72 72 70 69 68 67 64 63 63 60 58 55 55 61 60 62 63 63 63 61 59 60 64 63 63 62 63 64 64 65 65 65
70 68 72 72 73 73 72 72 72 73 73 72 72 71 70 69 68 66 64 64 61 60 57 54 57 64 62 63 62 64 62 61 62 63 63 63 62 62 63 63 63 63 63
70 71 73 72 73 73 73 73 72 72 73 73 73 72 71 70 69 67 65 65 65 61 62 58 57 63 63 63 62 63 63 63 64 65 64 63 62 62 62 62 61 60 60
68 72 73 73 73 73 72 72 73 73 72 72 73 73 71 70 69 68 66 65 64 64 63 63 60 62 63 65 63 61 62 64 62 64 65 64 64 64 63 61 60 60 58
73 70 72 73 73 73 73 73 72 72 73 72 72 73 73 71 69 68 67 65 64 63 63 62 61 60 60 63 63 62 61 61 64 64 63 61 61 62 62 62 62 62 59
71 73 72 73 73 73 69 68 71 72 72 72 72 72 72 71 69 66 66 65 65 64 62 61 61 59 60 59 64 63 62 61 60 64 64 62 60 59 59 60 61 61 60
71 70 71 72 72 73 66 66 68 72 72 72 72 72 72 72 71 72 66 65 64 64 63 61 60 59 59 59 60 63 63 62 60 63 64 62 62 60 60 60 60 60 59
73 72 71 71 72 72 65 64 66 72 72 72 72 72 72 72 71 72 73 70 68 67 65 64 62 61 60 60 60 60 62 63 63 64 64 60 62 61 61 61 60 61 59
72 73 73 73 71 72 64 62 64 71 72 72 72 72 73 72 69 64 72 72 71 70 66 62 63 61 59 59 61 63 64 63 62 63 64 63 62 62 60 58 57 60 58
72 72 73 73 71 73 64 61 64 71 71 72 72 73 66 70 65 62 69 71 71 71 71 70 66 63 61 60 62 64 64 64 63 62 65 63 62 62 57 54 55 58 58

GFSMA_sfc_dewp_045.txt.gz
Dewpoint
69 70 70 70 70 70 69 70 69 69 67 65 66 69 68 68 70 72 73 73 74 73 70 69 70 70 71 71 71 71 71 70 70 70 70 70 70 69 68 69 70 69 70
70 70 70 69 69 70 69 69 70 69 66 65 64 68 66 68 70 72 72 73 75 74 73 71 70 69 70 70 70 69 70 70 71 71 70 71 71 71 71 71 71 70 71
70 71 70 70 69 70 69 68 66 68 64 64 63 64 65 66 69 71 71 71 73 74 73 72 72 72 72 72 71 71 70 69 68 69 70 70 71 71 71 71 71 71 72
71 71 71 70 70 70 70 70 69 66 65 63 62 63 64 65 66 69 69 70 72 72 74 74 74 73 73 72 72 72 72 72 72 72 72 72 72 71 71 72 71 71 71
72 71 71 71 71 70 70 71 69 67 65 65 62 62 64 64 65 66 67 69 70 71 72 73 74 74 73 71 71 71 72 73 73 72 72 72 72 72 72 72 71 71 71
72 70 70 70 70 71 70 68 67 65 65 63 61 61 62 64 64 65 65 67 68 69 70 71 71 71 72 72 73 72 71 71 72 72 72 72 72 71 71 71 70 70 71
72 71 70 70 71 69 69 66 66 63 61 61 60 58 58 60 63 65 66 66 67 67 68 69 70 70 70 73 73 72 70 70 70 71 71 72 72 71 71 71 70 70 69
72 72 71 71 71 70 69 69 67 66 62 61 59 55 53 55 60 62 66 66 66 66 67 68 68 68 69 70 69 72 72 71 72 71 71 70 70 69 68 68 67 65 65
72 72 71 71 71 70 70 69 68 65 58 62 62 58 54 52 57 59 61 65 65 65 66 66 67 68 69 68 70 71 73 73 71 70 67 65 65 64 63 64 65 65 65
72 72 71 71 71 70 69 70 69 67 59 60 60 65 62 57 53 55 57 60 62 64 64 66 66 67 68 68 69 71 72 72 72 66 64 63 63 63 62 63 64 65 66
71 72 72 71 71 71 70 70 69 68 59 59 57 62 61 62 58 54 52 57 61 61 61 64 67 67 67 67 67 68 72 71 69 68 68 65 64 64 63 63 63 64 64
71 72 72 71 71 71 71 70 70 69 67 63 60 60 58 59 59 57 57 56 57 58 60 64 66 67 67 66 66 68 71 70 68 68 68 68 68 66 64 64 65 65 65
69 70 72 71 71 71 71 71 70 70 69 66 64 63 60 57 59 58 57 58 57 58 61 61 64 66 67 65 64 68 69 69 67 67 67 68 68 69 69 68 66 65 65
68 69 71 71 71 72 72 71 71 71 69 70 68 64 64 62 62 61 58 58 55 57 59 58 61 63 65 65 64 67 64 67 66 65 65 66 67 67 68 68 68 68 66
69 69 70 72 72 72 72 71 71 71 71 69 69 68 65 64 65 63 59 59 55 54 55 58 58 61 62 64 65 64 64 64 66 65 64 64 65 65 66 66 66 66 66
69 69 70 71 72 72 72 72 71 71 71 71 70 68 68 67 64 64 64 60 59 56 54 57 59 59 62 62 65 64 63 64 65 65 64 63 64 64 65 65 65 65 65
69 70 71 71 72 72 72 72 72 72 71 71 71 70 68 67 67 65 63 63 60 58 55 55 59 60 61 62 63 65 63 61 60 64 64 63 62 63 64 64 64 64 65
68 69 71 71 72 72 72 71 71 72 72 71 71 71 71 70 67 66 64 62 62 60 57 55 55 60 60 62 62 64 64 61 59 61 64 63 62 62 62 62 62 63 63
69 68 70 71 71 72 72 72 71 71 72 72 72 71 71 70 69 68 66 64 63 62 60 57 56 59 62 62 62 63 62 62 61 63 62 62 62 62 61 60 60 60 60
69 70 69 70 71 72 72 72 72 71 71 72 73 73 72 71 71 70 68 66 64 63 62 61 60 59 61 62 62 61 61 62 61 62 64 63 63 63 62 61 60 61 58
70 70 70 71 71 71 72 72 72 72 71 71 72 72 72 72 70 70 70 68 66 64 63 62 61 60 60 62 62 61 59 58 61 62 62 63 63 63 63 63 64 63 60
72 70 69 70 71 72 68 68 70 71 72 71 71 72 72 71 70 67 67 67 67 66 64 63 62 60 59 60 62 60 60 59 58 63 62 61 62 61 61 62 62 61 60
70 71 71 70 70 71 66 66 68 71 71 71 71 71 71 72 70 72 68 66 65 64 66 67 64 64 62 60 60 62 60 60 58 61 62 60 62 61 61 60 60 60 59
70 70 70 71 71 71 65 64 66 71 72 71 71 71 71 71 71 71 71 71 69 69 67 66 67 67 66 63 60 60 60 61 62 62 64 58 62 61 61 61 61 61 59
72 71 71 70 70 71 63 63 64 71 71 72 72 72 72 71 68 64 71 71 71 71 67 63 63 63 62 61 61 61 61 61 61 62 64 61 62 62 61 62 64 62 59
72 72 72 73 69 70 63 61 64 71 71 71 72 72 66 70 64 62 69 71 70 71 71 71 70 65 63 64 60 61 63 62 60 61 64 63 63 61 60 60 62 62 61

GFSMA_sfc_dewp_048.txt.gz
Dewpoint
71 71 71 71 71 72 71 72 72 70 69 66 69 70 70 70 70 71 72 72 74 72 69 70 71 71 70 70 70 70 70 70 70 70 70 70 70 70 69 70 70 70 70
70 71 71 72 71 71 71 71 72 70 68 66 68 70 69 69 71 72 72 74 74 74 70 69 69 69 70 70 70 69 70 70 71 71 70 70 71 71 71 71 71 71 71
71 72 72 71 70 72 71 71 68 69 67 66 67 69 68 70 70 72 73 74 73 73 73 72 71 70 70 70 70 70 70 69 69 69 70 70 71 71 71 71 71 71 71
71 72 72 72 71 72 72 72 71 68 67 66 66 67 67 68 70 71 71 72 74 74 74 72 72 72 72 72 72 72 72 72 72 72 72 72 72 71 71 72 71 71 71
72 72 72 72 73 73 72 72 71 69 68 67 64 65 66 66 67 68 70 70 71 72 73 73 74 73 72 71 71 71 71 72 72 72 72 72 71 71 71 71 70 70 70
72 72 72 72 72 72 72 70 70 67 68 65 62 63 65 66 66 67 67 68 70 71 71 72 72 71 73 72 73 72 72 71 71 71 71 71 71 70 71 70 71 71 70
73 72 72 72 73 72 71 70 68 66 64 64 64 62 62 63 65 67 67 67 67 69 69 70 71 71 70 72 73 72 71 70 70 71 71 71 71 71 70 70 70 69 66
74 73 72 72 72 72 70 70 69 68 64 64 62 61 59 61 62 63 67 67 67 68 68 68 70 70 70 71 71 71 71 70 71 71 70 70 69 69 67 67 67 66 65
73 73 72 72 72 72 71 71 70 68 62 65 65 62 59 58 60 62 64 66 68 67 67 68 68 69 70 71 70 71 73 73 71 70 67 66 65 64 63 64 65 65 65
72 73 73 72 72 72 72 72 70 69 65 65 64 66 64 62 60 60 61 63 65 66 67 67 67 68 69 70 69 70 71 72 72 67 63 62 63 62 62 62 64 65 65
72 73 73 72 72 72 72 72 71 70 64 64 63 65 65 63 61 59 59 61 63 64 66 66 67 68 69 69 68 68 70 71 71 68 67 65 63 63 63 63 63 64 64
71 72 73 72 72 73 72 71 72 71 68 65 63 65 64 64 62 60 59 60 60 63 63 64 65 67 68 69 68 69 69 71 70 67 68 68 68 65 64 64 64 65 65
70 71 73 72 72 72 73 72 72 72 71 68 66 65 64 63 63 62 62 61 60 61 63 63 64 67 67 69 68 70 69 69 69 67 67 67 68 69 69 69 67 66 66
69 72 72 73 72 73 73 73 72 72 71 71 70 67 66 64 64 64 63 62 61 60 62 65 64 65 67 69 69 68 67 67 67 66 65 66 67 67 68 69 69 69 67
69 71 72 72 73 73 73 73 72 72 72 71 71 71 67 67 66 65 63 63 62 59 60 63 63 65 65 67 69 68 68 67 66 66 64 64 65 66 67 67 67 67 66
70 70 71 72 73 73 73 73 72 72 72 72 71 71 70 69 67 67 65 63 62 62 60 61 63 64 65 63 66 68 67 67 65 65 64 63 64 65 65 66 66 65 65
69 70 71 71 71 72 73 73 73 73 72 72 72 72 71 70 69 68 66 65 63 61 60 62 61 64 66 66 66 67 67 67 66 64 64 64 63 63 64 64 64 64 65
69 70 71 71 72 72 72 72 72 73 72 72 72 72 72 71 70 70 68 67 65 65 63 63 64 63 65 66 67 67 66 64 65 63 63 63 63 62 62 62 62 62 62
69 69 70 71 71 72 73 73 73 72 73 73 73 72 72 72 72 71 70 68 66 65 64 62 62 62 64 65 65 66 66 67 65 64 62 62 62 62 61 60 60 59 59
70 70 70 71 71 72 73 73 73 72 72 72 73 73 73 73 72 72 71 71 70 67 66 64 63 63 63 65 65 64 63 64 64 63 63 62 63 63 62 60 60 60 57
69 70 70 70 71 71 71 73 73 73 72 72 73 73 73 73 70 71 72 72 71 69 69 67 66 65 63 64 63 64 63 64 65 65 64 64 64 64 65 63 64 63 60
71 71 70 70 70 70 67 67 71 72 73 72 72 73 73 71 71 67 67 68 70 70 69 67 67 66 67 66 65 63 63 62 61 65 64 63 64 63 64 65 64 63 61
72 72 71 71 71 72 65 65 67 72 72 72 73 72 72 72 71 73 68 66 67 65 67 71 69 69 68 69 68 66 65 64 63 65 65 61 64 63 64 62 62 61 60
70 71 72 71 71 71 64 63 66 72 72 72 73 73 73 72 73 72 73 73 72 71 70 68 70 71 72 72 71 69 67 67 66 65 67 61 63 63 64 64 61 61 60
71 70 71 72 72 72 63 62 65 71 72 72 73 73 73 73 68 64 72 72 72 72 68 64 65 64 63 62 65 69 65 62 62 63 67 63 64 66 67 67 67 60 59
72 72 71 72 69 72 64 61 63 71 71 71 73 73 66 70 64 61 71 72 72 72 73 73 72 67 65 67 62 65 68 67 65 64 67 64 64 64 62 66 66 64 62

GFSMA_sfc_dewp_051.txt.gz
Dewpoint
72 72 71 71 72 73 72 72 72 70 70 70 68 70 70 70 69 67 67 72 71 69 69 71 71 71 71 70 70 70 70 70 70 70 70 70 70 70 70 71 71 71 71
73 73 73 72 72 72 72 73 72 69 68 67 70 70 70 70 70 69 67 69 71 71 69 68 68 69 69 70 70 70 70 70 71 71 70 70 70 70 71 71 71 71 71
73 74 73 72 71 73 73 72 71 69 66 67 71 70 70 70 68 69 70 71 70 72 71 70 69 69 69 69 69 69 69 68 68 68 69 71 71 71 71 71 71 71 70
73 74 73 71 72 72 72 71 69 66 66 67 68 68 69 69 69 69 69 70 71 69 72 72 71 72 72 72 72 72 71 71 72 71 71 71 71 71 71 71 71 71 71
72 74 75 73 74 73 72 71 70 68 65 65 65 67 67 66 67 65 69 70 70 70 70 72 73 72 71 71 71 71 71 71 72 71 71 72 71 71 70 70 70 70 70
73 74 76 74 73 74 72 70 72 69 69 66 61 64 66 67 67 68 67 66 68 70 69 71 70 69 72 72 72 72 71 71 71 71 71 71 70 70 71 71 71 70 69
74 75 73 74 73 76 75 71 69 69 65 66 63 63 64 65 66 67 68 67 67 68 68 69 69 68 68 70 72 71 71 70 70 71 71 71 71 71 70 70 69 66 64
75 74 74 73 75 74 73 72 71 65 65 66 63 62 60 61 64 64 67 67 68 68 68 68 69 70 70 69 69 70 70 70 71 70 70 70 69 68 66 65 65 64 64
74 75 75 73 76 77 71 73 71 70 62 66 67 62 58 56 61 64 66 66 68 67 68 68 68 69 70 69 69 68 71 73 71 70 68 66 64 63 62 62 62 63 63
74 75 76 75 75 74 75 73 72 71 68 64 66 67 66 64 58 58 63 64 66 66 67 67 66 67 69 68 68 69 70 72 71 68 63 62 62 62 62 62 62 62 62
74 73 75 75 74 73 76 75 75 73 68 65 64 66 68 64 65 60 57 60 63 64 65 66 64 65 68 68 67 68 70 71 71 70 67 64 63 62 62 63 63 64 64
71 74 74 75 75 74 75 74 75 74 71 67 65 67 64 63 61 60 59 62 60 63 63 65 65 65 65 67 69 70 70 70 70 69 68 69 68 65 65 65 65 65 66
70 72 75 75 73 75 75 75 75 74 73 70 70 63 65 64 65 64 61 60 60 63 62 63 64 65 64 66 67 70 71 69 69 68 67 68 68 69 69 68 67 67 66
68 73 74 74 75 75 75 75 73 73 73 72 73 70 65 65 64 63 62 61 59 61 63 66 64 64 65 66 68 71 68 68 68 67 66 66 67 68 68 69 70 70 69
67 71 73 74 74 74 75 75 73 74 74 74 73 74 70 68 67 65 64 63 61 58 57 61 61 67 66 66 68 68 69 68 67 66 65 64 65 66 67 67 68 68 68
71 70 73 73 73 74 75 75 73 74 75 73 72 74 74 70 69 68 66 65 64 62 59 62 61 64 66 64 67 69 69 69 68 66 65 64 64 65 65 66 66 66 66
72 72 73 73 73 73 74 75 75 74 74 75 74 74 74 75 70 69 68 67 66 65 62 61 64 66 69 69 67 68 68 68 66 66 65 64 64 63 64 64 65 65 65
72 72 73 73 73 73 73 74 73 72 73 74 74 74 73 72 74 74 70 72 69 69 65 69 67 64 69 70 70 70 67 63 65 64 65 64 63 63 62 62 62 63 63
73 71 72 73 73 73 73 73 73 73 73 73 74 74 74 74 74 72 73 71 70 70 69 66 65 65 66 65 67 70 69 70 66 66 64 63 63 62 62 61 60 60 59
73 72 72 73 73 72 73 73 73 73 74 73 74 74 74 74 74 75 73 74 73 72 71 70 68 67 67 70 67 65 64 64 64 63 63 62 64 63 62 61 60 60 58
73 73 73 72 72 71 69 72 73 73 74 73 74 74 74 74 71 72 72 75 75 72 70 68 67 66 66 66 67 66 65 65 68 67 65 64 64 64 63 62 62 62 59
73 74 73 72 72 69 65 66 71 72 74 74 73 74 75 72 72 68 67 68 72 75 73 70 68 68 73 71 70 69 68 67 66 68 68 65 64 63 63 63 63 61 60
73 74 73 72 73 74 64 64 67 71 72 73 74 74 72 70 72 74 69 66 67 66 68 74 74 74 74 75 75 73 73 71 70 69 71 67 67 66 65 63 61 61 61
74 73 73 74 74 73 64 63 65 72 73 74 75 74 75 75 74 73 74 73 74 74 74 71 73 74 75 76 76 75 76 74 72 71 71 67 68 68 68 67 62 61 60
73 73 73 74 74 74 63 62 65 72 72 74 74 75 75 75 70 65 74 74 75 74 68 65 66 66 64 63 66 71 70 70 68 68 70 68 68 67 68 68 67 62 61
73 71 71 74 71 74 64 61 64 70 71 70 74 75 66 71 64 62 73 73 74 73 73 74 75 70 66 70 64 67 70 69 70 69 72 69 68 68 66 67 68 68 69

GFSMA_sfc_dewp_054.txt.gz
Dewpoint
70 68 70 70 69 68 68 68 68 68 70 67 67 67 66 66 65 62 66 72 70 70 71 72 71 71 71 70 70 70 70 70 71 71 71 71 71 70 70 70 71 71 71
71 69 71 70 69 68 67 68 68 66 64 64 68 67 67 66 67 67 64 68 72 70 68 68 69 69 69 70 70 70 70 70 70 70 69 68 69 70 70 70 70 70 70
74 73 70 74 69 71 72 70 69 67 61 62 67 68 66 66 66 67 67 69 70 73 71 69 69 68 69 69 69 69 69 69 68 68 70 71 71 70 70 70 71 71 71
74 74 72 68 70 69 66 65 63 62 61 61 64 64 66 65 67 67 67 67 67 68 71 71 71 71 71 71 70 71 71 71 71 72 71 71 71 70 71 70 70 70 70
74 71 69 70 73 67 66 63 62 62 61 59 61 64 64 63 65 62 66 68 67 66 66 72 72 72 71 70 71 70 70 71 71 71 71 71 71 70 70 70 70 71 71
73 71 70 72 71 66 65 64 67 66 62 61 56 61 63 64 65 64 63 62 64 66 65 69 68 70 72 71 71 72 71 71 71 71 71 70 70 70 71 71 70 69 66
74 73 70 71 70 68 70 71 68 70 63 65 59 60 63 65 64 64 64 62 64 64 65 66 66 64 68 71 71 71 70 70 70 71 70 70 71 70 70 69 67 63 63
74 73 74 72 71 67 71 71 70 64 63 64 61 58 57 57 59 60 62 63 64 64 64 64 66 68 66 64 68 70 70 69 71 70 70 69 69 67 65 63 63 63 63
73 75 75 74 72 70 67 70 72 69 61 64 67 59 54 54 57 60 63 62 66 63 65 65 65 66 67 66 67 68 70 72 71 70 67 66 64 62 61 62 62 62 62
73 74 75 75 73 71 73 70 70 69 68 62 63 62 66 65 57 58 59 61 63 62 64 63 62 64 66 64 68 68 70 72 71 69 65 63 62 62 62 62 62 63 63
74 72 75 75 75 72 72 73 73 73 67 63 60 62 65 60 64 57 55 58 60 60 61 62 61 62 65 65 64 68 70 71 72 71 67 65 64 63 63 64 64 64 65
71 74 74 75 75 72 73 72 73 73 72 69 63 64 60 59 59 59 57 60 58 60 60 61 61 61 62 63 68 71 70 70 71 71 69 69 68 66 65 65 66 66 66
66 71 75 75 73 75 74 77 75 74 74 70 71 62 62 62 63 62 60 57 58 61 61 61 61 62 60 62 63 70 71 69 69 69 68 68 69 69 69 69 68 67 67
65 70 73 74 75 74 74 75 72 71 73 71 73 71 62 62 61 61 61 60 58 59 60 66 61 61 63 63 67 71 66 69 68 67 67 66 67 68 69 69 70 70 71
66 69 71 73 73 74 74 75 71 73 73 74 72 73 70 64 64 62 62 61 60 57 56 62 58 66 64 63 67 67 68 68 68 67 66 66 65 66 67 67 68 68 69
71 70 71 71 71 73 74 75 72 74 74 71 70 73 73 66 66 65 64 63 62 61 58 57 59 62 65 63 64 68 68 69 68 67 66 65 65 65 65 66 66 66 67
72 73 72 71 71 72 73 75 74 72 74 74 73 73 74 75 69 65 65 65 64 63 61 59 59 63 71 71 69 68 67 68 65 66 66 66 64 64 64 64 64 65 65
73 73 73 72 71 71 73 74 73 71 72 73 73 74 73 70 75 74 68 72 69 70 63 70 67 62 69 72 71 72 68 64 63 63 65 65 64 64 63 63 62 62 63
73 72 72 73 72 71 73 74 74 73 72 72 73 73 73 74 74 71 71 69 68 69 70 68 67 65 65 66 69 73 73 71 67 66 64 64 64 63 63 62 61 60 59
74 73 73 73 72 71 71 72 72 73 72 72 73 73 74 74 75 75 74 74 74 72 71 68 66 64 63 68 66 66 66 66 65 64 65 63 64 64 63 62 61 61 59
74 74 73 73 73 71 67 71 71 71 72 72 72 73 74 73 71 72 73 76 78 73 68 66 64 63 63 63 67 65 66 66 69 68 67 67 67 67 66 63 64 63 61
75 75 73 73 72 68 64 64 69 70 71 73 72 73 74 72 72 68 68 68 71 75 76 70 67 67 75 72 69 68 67 68 68 70 71 69 69 68 68 68 65 63 61
75 76 73 73 74 73 63 63 66 69 69 72 74 73 71 68 72 73 69 67 68 66 68 74 75 74 75 76 77 77 75 74 73 74 76 72 72 71 71 69 64 62 61
75 75 74 75 75 74 64 62 65 71 72 73 73 73 75 74 73 71 72 72 73 73 74 72 74 74 74 75 77 77 77 76 75 74 76 71 71 71 71 71 66 63 60
74 74 74 75 75 76 63 62 65 71 70 74 73 74 75 75 69 65 73 74 74 73 66 63 65 65 65 64 67 72 72 71 71 71 73 73 72 72 72 70 70 64 60
74 72 73 75 71 75 65 61 65 70 71 68 74 76 66 71 64 62 74 73 74 71 71 72 72 72 67 70 64 72 73 72 72 71 73 73 71 71 70 71 71 72 70

GFSMA_sfc_dewp_057.txt.gz
Dewpoint
71 72 70 72 71 70 63 70 69 69 65 65 69 68 62 63 61 63 66 71 71 71 73 73 71 71 71 70 70 70 70 70 70 70 70 70 70 70 70 70 70 70 70
72 73 69 72 72 73 72 71 72 68 68 64 66 68 67 65 67 68 65 69 71 70 69 69 69 69 69 70 69 69 68 69 69 68 68 69 70 71 71 71 71 71 71
72 75 69 73 73 71 70 68 65 62 59 64 68 69 64 68 65 67 70 67 70 72 70 70 69 69 69 69 69 69 69 69 68 68 70 71 71 70 71 70 71 71 71
73 73 71 71 67 70 69 69 65 67 60 66 68 68 67 65 65 66 70 71 70 68 71 72 72 71 71 71 71 71 71 70 71 71 71 71 71 71 71 70 70 70 70
72 71 70 71 73 68 70 67 70 67 60 62 65 64 67 63 68 60 64 66 66 70 71 73 73 72 71 71 71 71 70 71 71 71 71 71 71 71 70 70 70 71 70
71 72 73 70 71 70 64 71 66 70 65 65 56 60 65 62 61 62 61 60 62 63 69 71 71 70 73 71 71 72 71 71 71 71 70 70 70 70 70 70 70 67 63
72 74 74 71 71 72 71 69 64 67 60 62 57 58 59 60 61 60 58 59 61 61 61 63 66 68 69 73 71 71 70 70 70 70 70 70 70 70 70 69 65 63 63
73 72 75 71 72 70 71 70 70 68 62 63 66 61 59 58 57 58 58 58 61 60 61 62 63 65 64 67 72 70 69 69 71 70 69 68 69 68 66 64 63 63 63
72 73 73 75 72 73 68 71 70 74 67 61 67 66 58 61 58 57 61 59 63 63 61 64 63 64 66 65 67 69 71 71 71 69 68 66 66 63 61 62 63 63 64
72 72 73 73 75 75 75 72 71 73 73 63 60 59 69 64 63 64 58 59 61 61 63 62 63 63 65 65 68 71 71 73 72 69 67 64 63 63 62 63 63 64 64
73 71 74 73 74 71 73 74 73 74 67 70 60 60 65 59 66 66 58 57 59 59 60 63 60 61 66 64 64 68 71 71 72 72 70 68 65 64 64 64 64 65 65
70 73 72 76 74 73 73 73 74 73 75 70 67 64 60 61 62 56 55 61 57 59 58 59 61 60 61 63 67 70 70 70 70 71 71 70 69 67 65 65 66 66 66
64 75 76 76 73 75 74 74 75 75 73 70 73 62 61 60 60 59 58 57 58 59 59 60 60 61 60 62 63 70 71 69 69 69 69 69 69 69 69 69 69 68 68
64 76 74 73 74 74 74 76 72 71 75 71 73 74 63 61 60 60 60 60 59 58 61 65 61 61 62 63 68 70 66 68 67 67 67 68 67 68 69 69 70 70 70
65 68 72 73 73 73 75 76 70 75 74 74 74 74 70 63 62 61 61 61 60 59 58 66 57 66 62 61 66 68 70 69 68 67 66 66 66 66 67 68 68 68 69
74 70 72 71 73 74 74 77 73 74 75 71 69 76 75 67 66 64 63 62 62 60 58 58 58 64 65 62 66 67 67 68 68 67 66 65 65 65 65 65 66 67 67
75 75 74 73 73 73 74 77 77 74 74 75 75 73 75 77 69 65 64 63 62 62 60 60 59 66 74 74 71 72 69 71 67 66 66 65 65 65 65 64 64 64 65
75 76 75 75 73 72 75 76 73 72 73 73 74 75 72 70 77 77 70 76 69 71 64 71 68 66 72 73 74 75 69 67 68 66 66 65 64 64 64 64 63 62 62
77 73 75 76 75 73 75 75 76 75 73 73 73 74 74 75 77 72 74 69 66 69 70 68 68 67 68 67 70 74 74 73 69 68 65 64 64 64 63 63 62 61 60
77 76 76 76 75 74 73 73 74 75 75 73 74 74 74 75 76 77 75 77 75 73 70 68 67 67 67 71 68 66 67 67 68 66 66 65 66 65 64 62 62 61 59
76 77 77 76 76 73 69 73 74 74 75 74 74 75 74 74 71 73 72 76 77 73 69 68 67 65 64 64 68 67 68 69 72 70 68 70 70 71 70 64 64 64 61
77 77 76 76 76 70 65 65 71 72 74 75 75 75 76 72 72 68 67 68 72 76 77 71 68 67 73 72 70 69 70 70 70 71 74 74 74 73 73 73 68 63 61
77 77 77 76 76 76 64 63 65 70 73 74 75 75 73 67 72 75 70 67 68 66 68 75 74 74 74 76 77 77 74 74 74 75 75 73 73 73 74 71 67 65 61
77 77 77 77 77 76 64 61 64 72 72 73 75 75 76 75 75 74 75 74 75 75 76 73 74 75 77 77 78 76 76 76 76 74 76 73 73 73 74 73 67 65 63
77 76 77 78 78 77 63 61 64 71 71 74 74 74 75 76 71 65 74 75 75 75 67 62 65 66 65 64 67 71 71 73 72 71 74 75 73 72 71 71 71 64 62
76 74 75 77 74 78 65 61 64 70 71 69 75 76 66 71 65 62 75 75 75 75 75 73 73 71 67 70 63 71 74 73 73 72 75 73 72 70 68 70 70 72 72

GFSMA_sfc_dewp_060.txt.gz
Dewpoint
73 72 73 72 71 72 71 71 71 72 70 69 71 68 65 67 64 66 71 74 75 74 73 72 71 71 71 70 69 69 69 70 70 70 69 68 69 71 71 71 71 71 71
74 73 72 72 71 72 74 73 70 71 66 69 67 69 67 68 67 67 68 71 73 73 74 71 70 70 69 69 68 70 68 68 68 68 68 70 71 71 71 71 71 71 71
75 77 73 75 74 68 75 71 71 70 69 68 70 68 70 69 69 70 68 69 71 73 72 71 71 70 69 69 69 69 69 70 69 69 71 72 71 71 71 71 71 71 71
77 73 73 71 72 76 67 67 71 67 69 67 69 68 68 68 70 70 71 69 71 69 72 73 73 72 70 71 71 71 71 72 71 71 71 71 71 71 71 71 70 71 71
76 73 71 72 76 72 73 69 72 71 63 68 65 68 68 69 65 66 70 72 72 70 71 74 74 74 72 71 71 71 71 71 73 72 71 71 71 71 70 70 70 70 67
75 76 75 76 77 70 72 72 68 70 69 65 59 62 64 68 68 68 66 68 70 71 71 71 73 72 74 73 72 72 72 71 71 71 70 70 69 70 70 70 69 66 64
76 78 77 75 74 69 72 73 71 68 67 68 66 67 66 65 64 68 66 66 65 68 70 72 71 71 70 74 73 73 72 70 71 70 70 69 70 70 70 69 67 65 64
76 76 77 76 73 73 74 74 70 69 71 69 68 66 63 64 66 58 66 64 65 64 65 66 69 70 71 70 71 73 72 72 70 70 69 69 69 69 69 68 66 66 66
76 77 77 77 77 76 75 74 72 74 71 68 69 68 65 59 64 66 64 67 67 64 68 68 67 68 68 71 73 72 72 71 72 70 69 68 69 68 66 66 66 66 67
76 76 77 77 78 74 76 75 75 74 68 70 70 67 69 67 64 62 67 67 66 64 66 70 67 68 69 70 71 71 71 70 73 72 70 68 69 68 66 67 67 67 68
77 74 76 77 77 77 77 77 75 75 75 70 71 68 69 69 70 65 62 66 67 68 69 68 68 68 69 69 69 70 70 71 72 73 72 70 69 65 64 65 67 68 68
75 77 76 77 78 77 75 77 77 76 76 76 72 73 67 66 66 67 64 64 65 66 67 69 67 67 70 69 70 71 70 70 70 71 71 71 70 69 66 66 66 66 66
71 75 77 77 76 78 78 77 77 77 77 76 75 73 69 64 64 69 66 67 64 67 66 67 69 69 66 70 70 70 70 69 69 69 69 70 70 70 70 69 69 69 68
70 75 76 76 77 77 77 77 77 76 76 76 76 76 74 72 69 69 69 68 66 67 69 67 69 70 70 69 72 71 69 68 67 67 67 68 68 68 69 69 69 69 70
73 74 75 76 76 77 77 77 75 76 76 77 76 77 75 73 70 69 70 69 69 65 65 69 68 70 69 70 72 70 70 69 67 66 66 66 66 67 67 67 68 68 68
74 76 76 75 76 77 77 77 75 76 76 75 75 75 76 73 72 72 71 71 71 68 66 68 69 70 70 65 71 72 71 70 68 66 65 64 64 65 66 66 65 66 67
78 76 77 76 75 75 77 77 76 76 75 76 76 76 75 76 75 74 74 71 70 71 68 68 71 71 73 73 72 73 73 72 71 66 66 65 64 64 65 65 65 64 65
75 77 76 77 75 75 76 76 75 72 75 75 76 75 75 74 77 76 75 75 75 75 72 70 71 70 70 72 74 75 73 69 69 68 66 65 64 64 64 64 64 63 63
76 74 76 75 76 75 75 75 76 75 75 75 75 75 75 76 76 76 76 74 72 73 73 71 70 73 73 73 71 74 75 74 72 70 66 65 64 64 63 62 62 62 60
74 75 75 76 75 75 74 74 75 75 75 74 75 75 75 76 76 77 75 76 75 75 74 73 71 70 71 72 74 72 71 72 70 70 69 66 66 66 64 62 62 62 59
74 75 75 75 76 75 72 73 74 75 75 75 75 75 75 75 72 73 75 76 76 75 73 73 71 72 71 71 71 71 72 72 72 73 71 74 74 73 73 68 66 65 62
74 75 75 75 75 73 68 66 71 73 75 75 74 75 76 72 71 68 67 68 72 75 74 74 73 72 72 72 73 71 71 71 70 74 76 73 75 74 74 74 70 65 62
75 75 75 75 75 75 65 64 67 72 73 74 75 75 74 71 71 74 69 66 67 66 68 73 72 72 72 73 73 74 74 73 73 73 74 73 75 74 75 73 66 65 63
74 75 75 75 75 75 66 62 65 71 72 73 74 74 75 74 74 75 74 74 74 74 73 71 72 73 74 75 75 75 75 75 73 73 76 73 73 73 75 73 66 65 63
74 74 75 75 75 75 65 63 64 70 70 72 72 74 75 75 70 66 72 73 74 75 69 67 68 67 67 66 69 73 71 69 70 73 76 74 74 73 72 70 73 65 62
74 74 74 75 73 76 66 62 63 70 70 70 73 74 66 69 65 62 72 74 73 73 73 74 74 71 64 68 62 67 70 72 74 73 76 73 73 71 69 72 67 69 69

GFSMA_sfc_dewp_063.txt.gz
Dewpoint
70 71 72 71 70 71 71 69 70 70 69 68 68 65 64 66 69 71 72 75 75 74 73 73 72 72 71 70 69 69 69 70 70 70 69 69 71 71 71 71 71 72 71
71 71 71 71 71 70 70 69 70 71 69 68 65 66 64 64 67 69 71 73 75 75 73 71 72 71 70 69 70 71 68 68 68 68 68 71 71 71 71 71 71 71 71
69 72 72 71 71 72 72 68 69 68 67 67 67 66 67 66 65 67 68 69 72 74 73 72 72 72 70 70 69 68 69 70 70 70 71 72 71 71 71 71 71 70 71
71 71 69 71 70 71 66 64 68 66 68 67 67 68 67 68 67 67 68 69 69 68 73 73 73 73 71 71 71 72 71 73 72 72 72 71 71 71 71 70 70 70 69
72 70 68 70 72 69 68 67 67 66 64 65 64 64 65 67 68 67 69 69 69 69 70 73 74 73 71 71 71 71 71 73 73 73 73 72 71 71 70 70 70 69 64
72 71 71 68 71 68 67 70 63 65 65 64 62 63 65 66 66 67 68 69 70 69 69 70 73 73 74 73 73 73 73 73 73 73 72 71 71 70 70 71 69 66 63
73 71 72 71 71 66 68 70 68 67 63 64 63 64 63 63 64 65 64 67 68 69 69 69 71 70 71 74 74 74 72 71 72 71 71 71 70 71 71 71 69 66 65
73 72 70 72 70 69 68 68 68 64 68 64 63 63 59 58 62 60 64 62 63 68 69 70 70 69 68 70 72 74 74 73 71 71 71 71 70 70 70 69 67 66 66
73 74 72 72 70 72 71 69 68 70 66 66 63 62 60 57 62 63 60 62 61 65 64 65 69 68 69 69 71 73 73 71 72 71 70 70 71 71 69 68 67 67 67
73 73 73 72 72 70 71 69 71 69 66 64 66 62 64 62 59 57 62 63 62 63 64 65 65 64 66 69 73 71 71 71 71 73 71 70 70 69 68 68 68 68 68
73 73 73 73 73 71 71 71 69 71 71 70 67 64 63 62 64 60 58 62 63 63 64 65 64 65 64 67 66 69 71 70 70 73 73 72 71 68 66 66 67 68 68
73 75 73 73 73 73 72 72 72 70 70 71 70 69 62 61 61 61 62 61 60 61 64 65 64 66 66 66 69 70 72 70 69 71 71 71 72 71 67 66 66 67 67
72 73 73 74 73 72 73 73 72 73 71 71 71 69 69 66 62 65 63 62 60 62 60 64 65 63 66 67 67 70 71 69 68 68 69 69 70 71 70 70 70 70 69
70 72 73 73 73 74 73 73 72 73 71 73 70 71 70 68 68 63 61 61 59 62 65 60 65 65 64 66 68 71 68 68 67 66 67 67 68 68 69 69 69 69 70
70 72 74 73 73 74 73 73 72 73 72 73 72 71 71 70 69 67 63 63 62 59 60 64 65 66 66 66 68 69 66 68 67 66 65 65 66 66 67 68 68 68 68
70 72 74 73 74 74 73 73 71 73 72 71 70 72 71 70 69 71 67 65 66 62 60 64 63 65 68 66 68 69 67 69 68 66 65 64 64 65 66 66 66 66 67
72 73 74 74 74 73 74 74 71 73 72 71 71 72 71 71 69 71 73 71 66 66 63 63 67 67 67 67 68 69 69 69 68 67 66 65 65 65 65 65 65 65 66
71 73 73 73 73 73 74 73 72 71 72 72 72 72 72 72 71 71 72 71 71 71 68 64 67 66 66 67 68 68 69 71 70 69 67 66 65 64 64 64 63 63 63
69 73 73 73 73 73 73 73 73 73 72 72 72 73 71 72 72 73 72 71 70 70 71 69 68 70 71 71 69 69 70 72 72 70 67 66 65 64 63 62 62 61 60
74 71 74 73 74 72 72 73 73 73 73 72 74 73 73 73 72 72 73 72 72 72 71 71 70 70 69 70 71 70 69 69 70 71 70 68 68 69 67 64 62 62 59
69 73 72 74 73 73 72 72 73 73 73 73 72 73 73 73 72 72 74 74 73 73 72 71 71 71 70 69 69 71 70 69 69 70 70 71 73 73 73 71 70 67 63
71 69 71 72 74 73 69 68 70 73 73 73 73 73 73 72 71 68 68 69 73 73 72 72 71 70 70 70 71 70 69 69 69 72 73 71 72 74 74 74 68 65 63
69 72 71 71 72 73 67 66 68 70 71 73 73 72 72 72 71 73 68 66 66 66 67 70 70 69 70 70 71 70 71 71 71 72 72 70 73 73 73 74 68 64 62
68 68 71 72 73 73 66 64 66 69 70 70 73 73 72 72 71 71 71 72 71 69 69 68 69 70 71 72 72 72 72 72 73 72 71 71 73 72 74 72 66 64 60
71 70 71 72 73 73 65 64 63 67 69 70 71 71 73 73 69 66 70 72 73 74 70 65 66 65 65 65 67 71 71 71 70 68 73 73 72 72 71 70 68 64 60
70 72 71 72 71 73 65 63 63 69 67 68 69 71 66 71 66 64 69 70 69 69 70 71 71 68 65 67 64 68 71 69 69 72 73 71 71 69 68 69 66 65 63

GFSMA_sfc_dewp_066.txt.gz
Dewpoint
69 71 71 70 70 71 70 67 69 69 70 67 68 67 68 69 71 72 72 73 74 74 72 72 72 72 71 71 70 69 69 70 70 70 68 69 71 71 71 71 71 72 71
70 71 70 70 70 70 71 69 69 70 69 68 66 67 67 69 70 71 72 72 75 74 73 72 71 72 71 69 71 71 69 68 68 68 68 71 72 71 71 71 71 71 71
70 71 69 70 69 70 70 68 69 70 68 66 68 65 65 65 68 70 71 71 74 74 73 72 72 71 70 70 69 68 69 70 71 71 72 72 72 72 72 71 71 71 70
70 71 70 70 71 71 69 66 68 66 66 67 66 67 66 66 65 67 69 69 70 71 74 73 73 72 70 70 70 71 72 72 72 71 72 72 71 72 71 71 70 70 67
72 69 69 70 71 70 67 65 67 66 65 65 65 66 67 68 66 66 67 68 68 69 69 72 74 74 71 71 72 72 72 72 73 72 72 72 72 71 70 70 70 69 63
70 70 68 69 69 67 67 69 63 65 65 64 63 63 64 66 67 67 68 68 69 69 69 69 72 72 74 72 73 72 72 73 73 72 72 71 71 70 70 70 69 67 62
72 71 71 70 69 67 68 67 66 66 63 64 63 62 63 64 65 66 67 68 69 69 69 69 70 71 71 74 74 74 72 72 72 72 72 71 70 71 71 71 69 66 64
72 71 71 71 69 66 69 66 64 64 67 63 61 62 58 56 61 63 65 65 66 69 69 69 69 69 69 69 71 74 74 73 71 71 71 72 70 70 71 71 69 67 67
73 72 71 71 70 69 69 67 67 67 64 65 63 62 58 55 61 61 61 63 63 67 68 69 69 69 69 68 69 72 73 72 72 71 71 72 71 71 70 70 69 67 67
72 73 72 71 70 70 70 69 71 68 64 63 65 62 63 61 56 56 60 62 61 65 65 65 67 69 68 69 70 71 72 72 71 72 72 72 72 70 69 69 69 68 68
72 72 72 72 70 69 70 70 69 70 69 68 66 65 62 62 62 59 57 60 62 63 64 63 64 65 64 68 69 71 72 71 71 71 72 73 73 71 68 68 69 69 68
72 72 72 72 71 71 71 71 71 70 70 70 69 68 62 60 60 62 60 60 60 59 63 64 64 65 65 65 68 71 71 71 70 69 69 71 72 72 70 69 68 68 68
72 72 71 72 71 71 71 71 71 71 69 70 70 68 68 66 62 63 61 62 60 61 60 63 64 64 65 65 66 71 72 70 70 68 68 69 70 71 72 71 71 70 70
71 72 72 72 72 72 72 72 71 71 71 71 70 70 69 67 67 63 60 59 58 60 63 62 64 64 64 65 67 70 69 69 68 67 66 67 68 69 69 70 70 70 70
70 72 72 72 72 73 71 72 72 71 72 71 71 70 70 69 67 67 65 62 59 57 58 61 63 65 66 65 66 67 68 68 67 67 66 65 65 66 67 68 69 68 68
70 71 73 72 72 72 72 72 71 71 72 71 71 70 69 70 68 69 70 65 64 60 58 62 62 63 68 65 67 68 67 68 67 67 66 65 65 65 66 66 67 67 67
70 70 72 72 72 72 71 72 70 70 71 70 69 69 70 70 69 69 71 71 69 65 62 62 65 67 67 66 66 66 69 68 68 67 67 66 65 65 65 66 66 66 66
70 72 72 72 72 72 72 72 71 71 71 71 70 70 71 72 71 70 70 70 69 69 66 65 65 66 66 68 69 69 70 71 71 70 67 66 65 65 64 64 63 63 63
69 73 72 72 72 72 72 73 72 71 71 71 71 71 71 71 71 71 71 71 70 70 69 68 69 69 70 70 69 69 69 70 71 70 67 66 65 65 65 64 63 61 59
67 71 72 72 72 72 72 72 72 72 71 71 72 72 72 71 71 71 71 71 71 71 70 69 69 69 69 70 70 70 69 69 70 69 70 68 68 69 68 66 67 66 62
68 68 71 72 72 71 71 71 72 72 72 72 72 72 73 72 71 70 71 71 71 71 71 70 69 69 70 70 69 70 69 69 69 71 70 71 73 72 73 71 72 66 61
67 69 71 71 71 72 67 67 70 72 72 71 71 72 72 71 71 68 68 69 71 72 71 71 71 71 70 69 69 69 68 67 67 71 71 71 72 72 74 74 66 62 60
64 67 68 71 72 72 65 65 68 71 72 72 71 71 72 72 71 72 68 66 66 67 69 72 71 70 69 69 69 69 69 68 69 71 72 72 71 72 73 73 63 60 59
66 64 68 68 70 72 66 64 66 70 70 71 72 72 72 72 71 71 71 71 71 70 68 67 68 69 69 70 71 70 70 70 72 73 73 69 72 72 73 71 62 60 59
69 66 67 71 69 69 63 63 65 70 70 70 70 71 72 72 68 64 71 71 71 71 69 64 64 64 63 63 65 69 70 69 69 69 71 72 71 71 70 69 65 60 58
70 70 67 67 69 71 64 62 64 71 70 70 69 70 65 70 64 62 70 71 70 70 70 69 70 66 64 67 64 68 71 70 69 69 72 72 70 69 68 68 63 61 60

GFSMA_sfc_dewp_069.txt.gz
Dewpoint
69 70 70 71 70 70 69 67 68 68 69 68 68 67 68 69 70 72 72 72 74 72 71 71 71 71 71 70 70 68 69 70 69 69 69 70 71 71 71 71 71 71 71
69 70 70 69 69 69 70 68 68 68 69 68 67 68 69 69 71 71 72 71 73 73 72 72 71 72 70 69 71 70 69 69 68 69 69 71 72 71 71 71 71 71 71
69 70 69 68 68 69 69 69 68 69 69 67 67 66 67 69 70 71 71 71 72 73 73 71 71 71 70 70 69 69 69 70 71 72 72 72 72 71 72 71 70 70 68
70 70 68 69 70 70 69 69 67 68 66 66 65 65 65 66 68 69 70 70 71 72 73 73 73 71 70 70 70 71 72 72 72 72 71 72 72 71 71 70 70 70 64
71 70 69 69 70 70 69 65 67 66 66 65 65 66 66 66 65 66 67 68 68 69 69 71 74 74 71 71 71 72 72 72 73 72 72 72 71 70 70 70 70 68 63
71 68 69 69 69 67 67 67 64 65 65 65 64 64 65 67 68 66 66 66 68 68 68 68 69 72 73 72 73 73 72 72 73 73 72 72 71 70 70 70 69 68 63
70 69 68 69 68 67 68 66 64 64 63 63 62 62 63 64 65 67 67 68 68 69 69 69 68 70 70 72 74 74 73 72 72 72 73 73 71 70 70 70 70 68 64
71 70 70 70 66 66 67 65 64 66 65 64 61 61 57 56 60 64 65 66 67 69 69 69 69 69 69 69 70 72 74 73 71 71 72 73 72 71 71 71 71 69 67
72 71 70 71 70 68 67 64 65 65 62 64 62 61 58 55 60 60 60 63 64 65 68 69 69 69 68 68 69 70 73 73 72 71 72 73 73 72 71 71 70 69 68
72 71 71 70 70 69 68 68 69 66 63 61 64 62 62 60 56 54 58 61 62 61 64 67 67 68 69 69 70 71 71 72 73 72 71 73 73 73 71 70 71 69 68
72 72 71 70 70 69 69 69 69 68 68 66 65 65 62 61 61 58 56 58 62 63 63 64 65 65 66 67 68 69 71 72 72 72 72 72 73 73 71 70 71 71 70
71 71 72 71 70 69 70 69 69 69 69 69 68 67 62 59 59 61 59 59 60 60 62 63 63 64 64 64 66 70 71 72 72 71 71 71 71 72 71 71 71 71 71
71 71 71 71 70 70 70 70 70 70 69 69 69 66 67 65 61 62 61 61 60 61 61 62 64 64 64 65 65 69 70 70 70 69 69 70 70 70 71 72 73 72 72
71 71 71 71 71 70 71 71 71 71 70 70 69 70 68 66 67 63 60 59 57 59 61 62 64 64 64 64 66 69 67 68 68 68 67 68 68 68 69 70 71 71 71
71 71 72 71 72 71 71 71 70 70 70 70 70 69 69 69 67 66 65 61 58 57 57 60 62 64 66 65 66 65 65 67 68 67 66 66 66 67 67 68 68 68 69
70 71 72 71 71 72 71 70 70 70 70 70 71 70 69 69 68 67 69 65 63 60 58 60 61 63 66 67 67 67 68 69 68 67 66 66 66 67 67 67 67 67 67
70 70 72 72 71 71 72 71 70 70 70 70 69 69 69 69 69 68 69 69 67 64 62 64 63 67 66 66 68 69 70 69 69 68 68 67 66 66 66 66 66 66 66
69 70 70 72 71 71 71 71 71 70 70 70 70 69 69 70 70 69 69 68 68 68 66 65 65 67 67 69 70 70 70 70 70 70 67 66 65 65 65 64 64 64 63
68 70 71 71 71 71 71 71 71 71 70 70 71 70 69 70 70 70 69 69 70 70 68 67 68 68 69 69 70 70 70 70 70 69 67 67 67 66 66 64 63 60 59
67 68 72 72 72 71 71 71 72 71 71 70 70 71 71 70 70 70 70 70 70 70 69 68 68 68 68 70 70 69 70 69 69 70 70 69 68 69 68 65 62 61 59
67 67 69 72 72 72 72 71 71 71 71 71 71 71 71 71 70 69 70 70 70 69 69 69 68 68 68 69 69 69 68 69 69 70 70 71 72 73 72 67 64 62 60
67 67 67 68 71 71 67 67 70 71 71 71 71 71 71 71 70 68 67 67 70 70 69 69 69 69 69 69 68 68 67 66 67 70 71 71 73 72 73 63 62 61 59
64 64 67 68 68 70 66 65 67 70 70 70 70 70 70 71 70 71 68 66 66 66 68 71 70 70 70 70 68 67 67 67 67 70 71 71 71 70 72 62 61 59 58
64 64 63 64 68 68 64 64 66 70 70 70 70 70 70 70 71 71 71 71 71 70 69 68 70 71 71 71 69 69 69 69 70 71 73 71 70 72 68 62 60 59 57
66 66 64 64 65 66 63 63 64 69 70 70 70 71 71 71 68 64 71 70 70 71 68 64 64 64 63 62 64 69 68 68 68 69 70 70 71 71 69 66 62 59 56
69 68 67 66 64 66 61 62 64 70 70 70 70 70 65 68 64 62 69 70 70 70 70 70 69 66 64 66 62 67 69 69 68 67 70 71 71 70 67 67 61 59 58

GFSMA_sfc_dewp_072.txt.gz
Dewpoint
70 71 71 72 71 71 70 69 71 69 70 69 69 69 69 70 71 72 73 72 73 71 70 71 70 71 70 70 70 69 69 69 69 69 69 70 72 72 72 72 71 70 70
70 71 71 71 71 71 71 70 70 69 70 69 69 69 69 70 71 72 72 72 73 73 72 71 71 71 71 69 70 71 70 69 68 70 71 72 72 71 71 71 70 70 67
70 71 71 71 70 71 71 70 70 70 69 68 69 69 69 70 70 71 72 72 72 73 73 72 71 71 71 70 69 70 69 70 72 72 72 71 72 71 71 71 70 69 64
71 71 71 71 70 70 70 70 68 69 68 67 67 67 68 68 69 70 71 71 71 72 73 74 73 72 71 70 70 71 72 72 72 72 72 72 72 71 70 70 70 69 63
71 71 70 71 71 72 70 68 69 68 68 67 67 67 67 67 67 66 68 69 69 71 70 71 73 74 71 71 71 71 72 73 74 73 73 72 71 70 69 69 69 68 64
71 71 70 71 71 70 69 68 69 68 68 67 65 66 67 68 68 67 66 66 68 68 68 69 69 69 72 72 72 73 73 72 74 73 74 73 72 70 69 70 70 68 65
72 69 70 70 70 69 69 69 67 68 66 66 66 66 66 66 66 68 68 68 68 69 69 70 70 69 69 71 72 73 73 73 72 73 73 73 72 71 70 70 70 69 66
71 70 70 72 69 69 69 69 68 68 66 66 65 63 62 62 61 64 67 67 68 69 69 70 70 71 71 70 70 71 73 73 73 72 73 73 73 73 71 71 71 70 69
73 72 72 72 69 70 68 68 68 68 66 66 66 65 62 60 61 63 64 64 66 66 68 69 70 71 71 70 70 70 72 72 73 73 72 73 73 73 73 71 71 71 70
73 73 72 72 71 70 70 69 70 69 67 66 67 64 66 64 62 61 62 64 65 64 66 66 67 69 70 70 71 72 72 72 72 73 73 73 73 73 74 73 72 71 71
73 72 72 72 71 70 71 71 71 70 70 67 67 67 65 64 64 62 61 63 65 66 66 66 67 67 68 69 69 70 71 71 72 73 73 74 73 73 73 74 73 72 72
72 73 73 73 72 71 71 71 71 71 71 71 69 69 67 65 64 64 62 63 62 65 64 66 66 67 67 67 67 70 71 71 71 71 72 72 73 73 72 73 74 73 73
72 72 73 73 72 72 71 72 72 72 71 71 72 69 68 68 65 65 64 64 63 65 66 67 66 67 66 68 68 69 70 69 69 68 69 69 70 71 72 72 73 73 73
71 73 73 72 73 72 71 72 71 72 72 71 71 72 70 69 69 66 64 64 64 62 64 67 68 68 69 69 69 70 69 68 67 67 67 68 68 69 69 70 71 71 71
71 73 73 73 73 72 72 72 71 72 73 72 72 72 71 71 69 68 69 65 65 62 63 65 66 68 69 70 70 70 71 69 68 68 67 66 67 68 68 68 69 69 69
71 73 73 73 73 73 73 73 72 72 72 72 71 72 72 71 70 69 70 68 66 64 64 64 66 67 69 69 71 72 72 70 69 68 67 67 67 67 68 68 68 68 68
71 72 73 73 72 72 73 72 72 72 72 72 72 72 71 71 70 70 70 71 69 66 66 68 66 70 71 72 73 73 73 74 73 69 68 67 66 66 67 67 66 66 66
71 71 72 73 73 73 72 73 72 72 71 71 71 72 71 70 71 72 71 71 71 70 69 69 70 70 71 73 73 74 73 72 73 69 67 66 66 66 65 65 63 62 62
70 71 71 72 73 73 73 73 72 72 72 71 71 71 71 71 71 72 72 71 71 71 71 70 70 72 71 72 73 74 74 75 71 70 67 67 67 66 65 61 60 59 57
69 69 70 71 72 73 73 73 72 72 72 72 72 72 72 72 72 72 71 72 72 72 72 71 71 71 71 73 72 71 72 73 71 71 70 69 68 69 64 61 61 60 58
69 69 69 71 72 73 72 73 73 72 72 72 72 72 72 72 70 71 72 73 73 72 71 71 71 71 72 72 72 73 71 71 72 72 72 73 73 74 71 63 62 60 59
69 69 69 70 71 71 68 67 71 72 73 72 72 72 73 71 70 67 67 67 71 73 73 72 72 71 72 72 73 72 71 71 69 73 72 72 74 73 71 64 60 59 58
68 68 68 69 69 71 65 66 68 72 72 72 73 73 72 71 71 73 68 66 66 66 68 73 72 73 73 74 73 73 72 70 70 71 73 71 74 72 67 60 60 59 58
66 67 68 68 68 68 64 64 66 71 72 72 72 72 72 72 72 72 72 72 72 73 71 69 71 73 74 74 74 73 73 72 72 72 74 72 73 72 66 63 59 58 57
67 66 67 67 68 68 61 62 64 70 70 71 72 72 72 72 68 64 72 72 72 73 68 64 65 65 64 63 66 71 70 70 70 70 73 72 72 74 71 66 62 58 56
69 68 67 68 65 67 61 60 63 69 68 68 71 72 65 70 64 61 71 72 71 72 72 73 72 68 65 68 62 69 71 70 71 71 74 72 74 73 72 71 65 63 61

GFSMA_sfc_dewp_075.txt.gz
Dewpoint
71 71 71 71 71 71 70 70 71 70 71 69 70 70 69 68 67 67 68 72 72 71 71 71 70 71 70 71 70 70 70 69 69 69 70 71 72 72 71 71 70 70 65
72 70 71 71 72 72 71 71 71 70 70 69 70 70 69 67 69 69 68 69 72 73 72 72 71 71 71 70 69 70 71 70 70 72 72 71 72 72 71 71 70 69 64
72 74 72 71 72 73 73 73 72 72 68 68 70 69 69 69 67 68 68 69 69 72 73 72 72 71 71 71 70 70 71 71 73 72 72 71 72 72 71 71 70 69 63
73 74 72 71 71 72 72 71 70 69 68 67 68 68 69 68 68 68 68 68 68 67 71 73 74 73 71 71 71 71 71 72 73 73 72 72 72 71 70 70 70 69 64
73 73 72 71 73 72 71 69 70 70 67 67 66 68 68 68 68 65 68 68 68 68 68 71 71 72 73 71 71 72 72 73 73 73 73 73 72 71 70 70 70 69 67
73 74 72 73 73 71 71 69 72 70 69 68 64 66 68 68 69 68 68 67 68 69 68 70 70 69 70 71 72 72 72 73 74 74 74 74 73 71 70 70 70 69 68
73 73 72 72 72 71 71 71 70 70 68 70 68 66 66 67 67 67 67 67 68 68 69 69 71 69 69 72 72 72 72 73 73 74 74 74 74 73 71 71 71 70 69
74 72 72 72 72 70 73 72 71 68 68 68 66 66 61 61 62 63 65 66 67 67 67 68 70 71 72 70 71 72 72 73 73 73 74 73 74 74 73 72 71 71 71
74 74 73 73 73 72 69 71 70 71 66 68 68 65 61 58 62 64 65 65 67 66 66 68 68 70 71 70 71 71 72 72 72 73 74 75 74 74 74 73 72 71 71
74 74 74 74 74 71 72 70 70 71 69 66 67 67 69 67 60 59 64 64 66 64 66 66 65 66 69 68 71 72 72 72 73 73 73 74 75 74 74 74 73 72 71
74 74 75 75 74 71 73 74 73 73 70 66 65 68 69 66 67 63 60 62 65 66 66 66 66 66 68 69 67 69 71 71 71 72 73 73 74 74 75 75 74 74 74
73 75 75 75 74 73 73 73 74 73 73 72 70 70 68 65 63 64 64 65 64 65 65 66 67 67 67 67 69 71 71 71 71 71 71 71 71 72 73 73 74 74 75
71 74 75 76 77 75 74 74 74 74 73 72 74 70 70 69 68 68 65 63 63 65 65 67 67 68 67 69 69 70 71 70 69 68 68 69 70 71 71 72 72 73 73
70 74 75 74 75 75 74 74 72 71 73 72 73 75 71 70 70 69 68 65 61 63 65 68 68 66 68 70 71 72 70 70 69 68 68 68 69 69 70 71 71 71 71
70 73 74 75 74 75 75 75 71 75 76 74 73 73 72 71 71 70 70 69 66 60 60 64 64 69 69 70 72 73 73 71 69 68 68 67 68 68 69 69 69 69 69
73 73 74 74 75 75 75 75 73 73 74 72 71 74 74 70 71 70 69 69 69 67 62 67 66 70 72 71 71 73 73 72 71 69 68 67 67 68 68 69 68 68 68
74 74 74 74 74 74 75 75 75 74 74 74 74 74 74 75 70 69 69 69 69 69 65 64 69 71 74 75 74 75 72 72 70 69 68 67 66 66 67 67 65 65 65
74 74 74 75 74 74 75 75 74 72 73 72 73 74 73 71 74 74 71 73 71 72 69 70 71 70 73 75 75 76 72 69 73 68 67 66 66 66 65 63 62 61 61
73 72 73 74 74 74 74 75 75 74 74 73 72 73 73 73 74 71 73 72 71 72 72 71 70 70 71 72 73 73 74 75 70 69 67 67 67 66 62 61 60 58 57
72 72 73 73 73 74 74 74 74 74 74 73 74 73 73 73 74 74 73 74 73 73 72 71 69 69 70 72 72 69 68 69 71 70 70 69 69 66 63 61 60 59 57
71 72 72 72 73 71 70 73 74 74 74 74 74 74 73 72 70 71 71 73 74 72 70 69 69 68 68 67 69 69 68 69 71 72 71 68 69 73 69 63 62 60 58
71 71 71 71 71 68 65 66 71 73 74 74 73 74 74 71 71 68 67 68 71 74 73 69 67 67 72 71 69 69 69 69 67 69 72 69 70 72 74 71 60 59 57
71 72 71 71 72 72 64 64 68 70 72 73 74 74 72 70 72 73 68 66 66 66 68 74 73 72 73 73 74 74 73 71 70 69 72 69 70 71 75 62 59 59 57
71 71 71 72 72 71 64 63 66 72 73 73 73 74 74 74 73 73 73 73 73 73 73 71 72 73 74 75 75 75 75 75 73 71 74 70 69 71 75 70 59 59 57
70 70 70 71 72 72 62 62 65 70 69 73 74 74 74 74 69 65 73 72 73 73 67 65 66 65 65 64 68 72 70 69 66 66 69 70 70 72 74 73 66 58 57
71 69 69 70 67 71 64 59 63 67 69 68 72 74 66 71 65 62 72 72 72 72 71 70 71 70 66 70 62 72 71 69 67 66 69 70 68 71 70 74 72 66 63

GFSMA_sfc_dewp_078.txt.gz
Dewpoint
69 68 70 68 68 69 67 68 69 70 70 68 67 67 64 62 62 62 65 71 72 71 71 70 70 71 70 70 70 71 71 71 70 71 72 72 72 72 71 71 70 70 62
69 68 69 68 69 68 68 69 70 68 67 67 69 68 66 64 66 67 65 68 72 72 72 71 71 70 71 70 70 70 71 71 71 73 72 72 72 72 71 71 70 69 63
72 72 69 70 69 71 72 71 70 69 65 65 68 67 66 66 66 67 66 65 69 72 72 72 71 71 71 71 71 71 71 72 72 72 72 72 72 71 71 70 70 68 65
73 73 70 69 69 70 69 68 68 64 64 63 64 64 65 65 67 67 66 66 66 64 71 72 73 73 72 71 71 71 72 72 73 72 73 73 72 71 70 70 70 69 68
73 73 71 69 72 69 68 67 66 67 64 63 62 63 64 65 66 62 67 68 67 66 64 72 71 71 71 72 72 72 72 73 73 73 73 73 73 72 71 70 70 70 69
73 73 70 71 71 68 66 67 70 68 66 64 59 61 64 64 66 65 65 64 66 68 66 70 68 66 72 71 71 72 72 73 74 74 74 74 74 73 72 71 70 70 70
73 74 70 71 71 70 70 71 69 69 62 66 60 59 59 61 62 63 63 63 64 65 67 68 68 66 66 73 73 73 73 73 73 74 75 75 74 74 74 73 71 70 71
74 72 73 71 72 68 73 72 71 64 63 65 61 60 57 58 57 58 61 61 63 63 64 65 67 70 69 67 69 73 73 73 73 73 75 75 75 74 74 74 73 71 71
73 74 73 71 73 71 66 72 70 70 61 67 69 64 62 54 58 59 62 60 64 62 63 65 65 68 70 68 70 71 74 73 73 73 74 75 75 75 75 74 73 73 72
72 73 73 73 74 70 71 70 69 70 70 62 65 64 68 67 58 56 58 59 60 59 62 62 62 64 68 65 72 72 73 73 73 72 72 73 74 75 75 75 75 74 73
72 71 73 74 74 70 73 73 72 73 67 64 62 63 68 64 67 61 55 55 57 59 61 63 62 63 66 67 66 70 72 71 71 72 73 72 73 73 74 75 75 75 75
70 73 72 73 74 72 73 72 72 73 72 71 66 65 61 60 60 61 59 60 59 61 62 63 63 64 66 66 69 72 72 71 71 71 70 71 72 72 73 74 74 74 74
67 73 74 73 71 75 75 74 76 72 72 68 71 65 66 65 66 65 62 60 60 61 62 63 64 66 64 67 68 73 73 71 70 69 69 70 71 71 72 73 73 73 73
68 72 74 72 72 73 73 74 70 68 71 68 71 72 66 66 67 67 65 62 60 60 62 67 66 65 66 68 71 73 69 71 70 69 68 69 69 70 70 71 71 71 71
67 71 73 73 72 72 73 74 70 71 72 72 71 71 69 65 67 67 67 66 63 59 60 65 62 67 67 66 70 71 71 71 71 70 68 68 68 68 70 70 70 69 69
72 70 73 73 73 73 74 75 71 72 73 70 68 71 72 66 67 67 66 66 66 63 60 61 64 67 71 70 70 72 71 71 73 70 68 67 68 68 69 69 68 67 66
72 73 74 74 74 73 73 75 74 72 73 72 72 72 73 73 68 65 66 65 65 65 63 61 63 66 73 73 73 74 71 70 64 69 68 67 67 67 68 66 65 64 63
72 73 74 75 72 72 73 75 73 70 72 71 72 73 72 69 73 73 68 72 70 70 66 70 70 66 71 73 73 75 69 66 69 68 67 67 67 67 64 64 62 61 60
72 71 73 75 74 72 73 74 74 73 72 72 71 72 72 72 73 69 71 68 67 68 68 66 66 65 67 69 71 73 72 72 64 68 66 67 67 66 63 61 60 59 57
72 71 72 73 73 73 73 74 74 74 73 72 73 73 73 71 72 73 72 73 72 71 70 67 66 65 65 70 69 65 63 63 64 65 68 67 68 65 62 61 60 59 57
72 72 71 71 72 71 69 74 74 73 74 74 73 74 73 72 69 70 69 74 75 71 67 65 64 64 64 64 68 64 63 63 67 65 66 66 63 67 65 62 63 59 57
73 73 72 71 70 66 64 65 70 72 73 74 73 73 74 72 71 68 68 68 70 73 73 66 62 63 72 70 65 64 64 63 63 64 67 64 64 63 68 73 61 59 57
72 73 72 72 72 72 63 63 66 69 70 72 73 73 70 67 72 73 69 67 67 66 67 74 73 72 73 72 74 73 74 70 68 66 69 65 66 64 68 61 60 58 57
72 72 72 73 73 72 63 62 64 70 71 72 73 73 74 74 71 71 72 72 73 73 73 71 72 73 74 74 75 74 75 75 72 69 72 64 65 64 68 69 60 59 57
72 72 72 73 73 74 62 62 65 69 68 72 72 74 74 75 69 64 72 73 73 72 65 65 66 65 64 63 67 70 67 65 62 61 63 61 63 64 66 69 63 59 57
72 71 71 72 69 73 65 60 64 68 68 67 72 74 66 71 64 62 74 74 73 72 68 68 71 70 67 71 64 73 70 67 63 61 65 64 62 62 64 68 73 62 62

GFSMA_sfc_dewp_081.txt.gz
Dewpoint
72 72 72 71 69 69 66 69 72 70 70 65 63 62 59 61 61 61 63 72 72 70 70 70 69 70 71 69 70 70 71 71 71 72 72 72 72 72 71 71 70 68 63
73 71 73 73 72 74 72 73 71 74 71 66 67 64 63 63 66 66 66 69 74 72 71 71 71 70 70 70 70 71 71 72 72 72 72 72 72 72 71 71 70 68 65
72 76 70 73 72 70 71 69 70 71 67 63 67 64 64 64 64 65 64 67 70 73 72 71 71 70 70 70 70 71 71 72 72 72 72 73 72 71 71 70 70 69 67
71 74 72 71 68 73 72 71 73 72 64 67 63 67 62 63 64 64 63 64 63 66 72 72 72 72 72 71 71 71 72 72 73 73 72 72 72 72 71 70 69 70 69
72 74 72 70 71 68 68 69 69 67 66 66 63 61 61 61 64 60 64 65 64 64 64 74 73 73 72 72 72 72 72 72 73 73 73 73 73 72 72 72 70 70 70
72 73 69 70 74 70 69 69 74 71 68 65 60 58 60 60 61 60 62 62 63 65 64 67 68 70 74 72 72 72 72 73 74 74 75 75 75 75 74 74 72 71 71
72 73 71 70 70 71 72 69 69 68 66 62 68 58 57 60 60 59 60 60 62 62 62 64 66 65 70 75 75 73 73 73 73 75 75 75 75 75 74 74 74 72 71
73 72 73 73 72 72 71 70 72 69 58 66 64 66 61 57 55 56 58 58 60 59 60 63 63 67 68 66 72 75 75 74 74 74 75 75 75 75 75 74 74 73 72
71 73 72 75 72 74 69 71 69 70 69 62 71 64 63 61 62 58 61 57 61 58 60 62 62 66 68 66 70 72 75 74 73 73 74 75 75 75 75 75 75 74 73
71 71 72 72 73 72 73 70 66 73 72 67 63 66 67 67 65 59 56 57 58 58 61 60 60 62 66 66 69 72 73 72 72 72 73 73 75 75 75 75 75 75 74
72 70 73 73 73 72 74 72 72 73 71 66 65 62 65 60 63 63 54 54 55 57 59 61 60 61 64 66 65 70 73 72 71 72 72 73 73 74 75 75 76 75 75
69 72 71 73 74 73 73 72 73 72 73 73 69 65 66 64 64 63 58 61 57 60 60 61 62 63 63 65 70 73 72 72 71 71 71 72 73 73 74 75 75 75 75
70 74 74 74 72 74 73 73 74 73 72 69 72 68 67 63 61 64 67 58 64 59 61 61 62 64 62 65 68 73 75 72 71 70 70 71 71 72 72 73 74 74 73
72 75 73 72 72 72 73 73 71 70 73 70 71 75 69 63 62 62 69 62 62 57 61 67 63 63 64 65 69 72 69 72 71 70 69 70 70 70 71 72 71 71 70
71 72 71 72 72 72 73 75 70 73 73 73 71 72 70 65 61 62 62 62 63 64 62 65 60 68 66 66 70 71 72 71 70 71 69 68 68 69 70 70 69 69 67
71 72 71 73 72 72 73 75 74 73 73 70 67 75 74 66 65 63 63 62 63 62 60 60 61 66 70 70 70 72 71 71 70 72 69 68 69 69 70 68 67 66 65
72 72 73 74 73 73 73 76 75 74 73 72 73 72 73 76 68 63 62 62 62 63 62 62 64 68 75 75 74 75 72 73 67 71 69 68 68 69 68 67 65 64 62
72 73 74 73 73 72 74 74 72 70 71 72 71 73 71 68 76 75 68 75 70 73 66 73 70 66 73 76 77 78 71 67 68 69 67 68 68 68 65 64 63 61 59
74 70 73 75 73 72 74 74 74 73 72 72 72 72 71 72 75 70 73 68 66 68 70 68 67 65 66 66 70 75 76 74 66 68 65 68 68 67 64 62 60 59 57
74 73 73 74 74 72 71 72 73 75 74 72 72 73 72 72 74 75 73 76 73 71 69 65 64 65 65 71 68 67 65 63 63 61 65 68 69 67 63 61 60 59 57
74 74 75 74 74 71 68 73 73 73 75 74 73 73 74 72 70 72 69 74 76 72 66 64 63 63 63 64 69 66 65 64 68 63 61 63 61 69 65 62 63 61 58
75 76 75 74 73 67 63 65 71 73 74 76 74 74 75 72 71 68 67 67 71 75 76 68 64 64 74 69 64 63 65 64 64 66 66 64 64 63 65 69 66 61 58
74 76 75 75 75 75 64 63 66 69 72 74 76 76 72 66 72 74 69 67 67 66 67 74 75 74 74 75 76 77 74 72 69 68 70 65 65 64 64 64 61 60 58
75 74 75 76 76 74 65 62 64 72 72 73 74 75 76 75 74 74 74 74 74 75 74 71 73 74 75 77 77 75 77 77 74 72 74 66 64 64 64 69 60 59 58
74 74 73 75 75 76 64 62 64 70 69 72 73 73 74 75 70 65 74 74 75 74 66 66 67 67 66 65 67 70 67 65 63 62 64 61 62 63 64 66 63 59 57
74 76 73 75 71 75 67 61 63 70 70 68 73 74 66 70 65 63 74 74 74 74 74 71 72 70 68 71 64 72 70 66 64 63 65 62 61 63 63 64 69 62 60

GFSMA_sfc_dewp_084.txt.gz
Dewpoint
75 71 70 73 71 72 71 71 73 68 71 69 67 64 63 66 64 64 70 74 74 73 71 70 69 70 70 69 69 70 71 71 72 72 72 72 71 72 71 70 70 68 63
76 72 73 72 73 74 71 67 73 74 69 69 68 67 66 67 69 66 67 72 74 73 73 72 71 70 69 69 69 70 70 71 72 72 72 72 72 72 71 70 69 68 66
74 73 71 73 73 76 75 72 74 71 71 68 70 66 68 68 67 69 68 69 72 75 74 73 71 71 71 70 70 71 72 73 72 72 73 73 73 73 72 72 70 69 68
75 76 72 72 73 73 73 71 73 72 70 70 69 69 69 67 68 68 68 69 70 68 73 74 73 73 72 72 72 72 72 73 74 74 74 74 74 74 74 73 71 71 70
75 77 75 72 76 73 74 71 72 72 70 68 63 68 68 68 67 64 68 69 66 70 70 74 75 75 73 72 72 73 73 74 75 75 75 75 75 75 74 74 74 72 71
75 74 76 76 71 75 73 68 74 70 72 63 62 63 67 66 68 69 67 66 68 68 69 72 73 72 74 75 75 74 74 75 75 75 76 76 75 75 75 74 74 73 72
76 77 77 75 71 75 68 75 74 73 71 72 72 69 67 64 65 67 67 64 67 66 67 70 72 71 71 75 75 75 75 75 75 76 76 76 76 76 75 75 74 74 74
76 75 74 75 72 73 75 75 68 73 70 72 70 70 65 66 64 62 66 64 64 66 66 67 70 70 71 73 73 75 76 75 76 76 76 75 75 75 75 75 75 75 74
76 74 76 76 76 76 73 75 75 73 70 71 72 67 66 64 69 66 65 64 65 67 66 66 68 70 71 72 74 75 76 74 75 74 74 75 75 75 75 75 75 75 75
75 75 76 75 74 73 71 74 73 71 74 71 72 70 70 66 67 65 66 63 66 62 65 69 66 69 70 72 74 75 74 73 72 73 73 74 75 75 76 76 75 75 75
76 73 77 77 76 74 73 73 75 76 75 72 70 70 70 71 68 68 64 64 67 67 66 68 66 68 69 70 73 72 72 72 72 72 73 74 74 74 75 76 76 76 75
75 76 76 77 77 72 71 77 76 76 75 77 75 73 71 67 67 68 67 66 65 66 68 67 67 69 69 73 71 73 72 71 71 72 72 72 73 73 74 75 75 75 75
72 75 77 77 76 77 75 77 77 77 76 75 76 73 74 69 66 71 70 69 64 67 69 68 68 69 67 71 73 73 75 73 71 71 70 71 71 72 72 73 73 73 72
73 75 76 76 77 76 75 76 77 75 76 75 74 75 74 72 72 71 68 70 65 67 69 70 71 70 72 73 73 72 73 73 72 70 70 70 70 70 71 72 70 70 69
72 75 73 75 76 76 76 76 75 76 76 76 75 75 75 73 71 70 70 70 69 67 67 69 68 72 73 73 74 73 75 72 71 72 70 69 69 70 71 70 69 68 66
73 72 73 72 76 76 76 76 75 75 75 76 73 75 75 73 72 70 67 71 72 70 67 68 68 74 74 72 73 75 75 72 71 72 70 70 69 70 70 69 67 66 65
74 72 66 70 75 76 76 76 75 74 74 75 75 75 74 76 74 73 72 72 70 71 69 70 72 73 73 75 74 76 76 76 73 71 71 69 69 69 68 68 66 64 63
77 77 75 75 76 75 75 75 75 73 74 74 74 73 73 71 76 76 74 73 73 74 72 71 72 71 71 72 77 76 76 71 72 70 69 69 69 68 67 65 64 62 60
76 74 75 76 76 76 76 76 75 75 74 73 74 74 74 75 75 73 76 74 72 72 73 72 70 73 72 71 72 74 76 76 74 67 68 68 68 67 65 63 62 60 58
76 75 76 76 75 75 75 75 76 76 76 74 75 75 75 75 75 75 74 75 74 74 73 72 70 70 70 70 73 73 72 71 70 67 67 68 70 68 64 62 61 60 57
75 76 76 75 76 74 71 74 75 75 74 74 75 75 75 75 72 73 73 74 74 73 72 71 70 70 70 72 71 71 70 72 71 71 70 70 70 69 65 62 63 62 59
76 76 75 75 75 70 66 66 71 72 75 75 74 75 76 73 72 67 67 67 70 75 74 74 72 70 71 72 73 73 72 70 68 73 72 69 70 67 70 67 64 62 60
75 75 75 76 75 75 67 64 65 72 74 75 75 75 74 69 70 74 68 66 66 65 67 71 71 72 73 73 75 75 74 73 72 72 72 69 71 71 72 67 64 62 59
75 75 74 75 75 75 66 64 65 70 72 73 73 75 75 73 73 75 75 75 73 73 72 69 70 70 71 72 74 73 73 73 74 74 74 71 72 71 72 68 62 60 59
70 73 74 75 75 75 66 62 65 72 71 72 72 73 73 73 70 65 72 73 74 75 69 67 68 66 66 65 67 72 71 69 67 66 69 68 66 68 70 69 62 60 58
69 71 72 75 71 74 67 63 64 72 72 71 72 73 66 69 64 62 71 73 72 71 72 72 72 68 66 68 64 70 71 70 68 67 68 67 68 68 66 72 67 61 59

GFSMA_sfc_dewp_087.txt.gz
Dewpoint
71 70 70 71 71 70 70 66 68 69 68 67 60 59 62 65 67 70 71 74 75 74 71 70 71 71 71 70 70 70 71 71 71 72 72 72 71 71 70 70 69 67 63
71 71 71 71 70 71 70 67 69 70 66 66 63 61 63 64 64 67 70 72 75 75 73 72 71 70 70 70 70 71 71 71 72 72 72 72 73 72 71 70 69 68 67
70 70 68 69 71 72 70 71 71 71 67 66 64 64 64 64 64 65 68 70 73 74 73 73 74 73 71 71 71 71 73 74 73 73 74 74 74 73 73 72 70 69 69
70 70 69 70 71 70 70 69 69 67 65 66 64 64 66 64 63 66 68 69 71 70 74 75 75 74 72 72 72 73 74 75 75 75 75 75 75 75 74 74 73 71 70
72 72 71 70 72 70 70 69 68 67 66 64 65 67 66 64 64 66 66 68 69 69 70 73 75 75 73 73 73 75 75 75 75 75 75 76 76 76 75 75 74 74 73
71 71 73 70 71 70 69 67 67 66 66 63 61 61 64 65 66 65 64 64 67 69 69 69 73 73 75 75 76 76 75 75 75 75 75 75 75 76 76 75 75 75 74
73 72 72 69 70 70 68 71 70 69 69 68 67 64 65 60 60 65 65 65 64 67 69 70 71 71 71 75 75 75 76 76 76 76 76 76 75 75 75 75 75 75 75
72 73 71 71 69 70 71 69 66 68 67 67 65 64 60 61 62 61 64 63 63 64 66 66 68 70 69 70 71 75 75 76 77 76 76 75 75 75 75 75 75 75 75
73 71 72 72 69 70 68 69 70 66 65 68 67 63 62 60 65 63 59 60 57 64 64 64 66 66 67 70 73 74 75 75 75 75 75 75 75 75 75 75 75 75 75
73 72 72 72 73 70 68 69 71 70 65 66 65 66 66 62 62 59 61 59 60 61 62 63 65 66 66 68 73 74 75 74 73 73 74 75 75 75 75 76 76 75 75
73 71 72 72 71 71 70 71 71 70 70 71 70 68 66 67 66 62 61 57 61 61 61 63 65 65 65 69 68 69 73 71 71 73 73 74 74 74 75 76 76 76 75
71 70 73 73 73 70 67 67 71 70 71 70 72 69 68 62 61 64 63 62 58 62 62 65 60 65 66 69 71 72 73 72 70 71 72 72 72 73 74 75 75 74 73
70 70 72 73 72 71 69 69 72 71 72 69 70 71 70 70 68 66 64 64 61 63 64 65 64 64 65 70 68 72 73 73 71 70 70 71 71 71 73 73 72 72 70
70 71 72 73 73 72 72 72 72 72 71 71 69 69 70 70 70 67 65 63 61 64 66 65 67 65 68 70 71 73 72 72 71 70 70 70 70 70 71 71 71 69 67
72 73 72 72 72 73 72 73 72 72 72 71 70 70 70 70 68 69 68 63 63 60 61 64 65 69 69 71 72 70 72 72 71 71 72 70 69 69 70 70 68 67 67
70 71 71 71 72 73 73 72 71 72 71 72 72 70 70 71 69 70 70 69 67 64 61 67 65 71 71 70 71 69 73 72 71 72 71 71 69 69 70 69 67 66 65
71 71 70 67 70 72 72 72 72 71 72 71 70 71 69 71 69 70 71 70 69 68 66 67 70 70 67 67 68 70 73 73 72 70 70 70 68 68 69 68 66 64 63
71 69 65 65 68 71 73 72 71 71 71 70 70 71 70 70 70 72 71 69 69 68 67 64 67 67 67 69 70 71 73 72 72 71 68 69 68 67 67 66 65 63 61
72 72 71 71 72 72 72 73 72 71 72 71 71 71 71 70 71 70 69 71 70 70 71 70 69 70 70 67 67 67 70 73 71 70 66 67 67 66 66 64 63 61 58
73 72 73 72 73 73 73 73 73 72 72 73 72 73 71 69 70 71 70 70 71 70 70 69 68 67 67 67 69 70 65 67 68 67 67 67 67 67 66 63 62 61 57
73 73 73 73 74 73 72 73 73 73 72 72 72 73 73 73 72 71 71 70 70 70 70 70 69 69 68 68 67 69 69 70 68 67 69 69 68 68 67 64 64 63 59
72 73 73 73 73 72 69 68 70 71 73 71 71 72 73 73 71 68 68 69 71 71 70 70 70 70 69 68 71 71 70 69 68 71 70 69 69 69 68 66 65 63 60
73 72 72 72 73 73 66 65 65 68 71 73 73 72 71 70 70 71 69 66 66 65 66 67 67 67 68 69 70 70 69 70 69 70 71 70 71 70 71 68 64 62 60
69 71 72 73 73 73 66 64 66 67 68 69 71 73 73 71 71 71 72 72 71 69 69 67 68 68 68 67 68 68 69 70 71 72 73 70 68 70 69 69 64 62 60
68 68 69 71 71 72 67 63 64 69 70 70 70 70 71 72 69 66 70 70 70 73 70 65 66 65 64 64 65 70 70 68 68 66 67 66 65 64 63 69 64 61 59
68 70 70 70 69 72 67 62 63 70 71 71 71 70 65 66 63 62 68 68 68 68 70 70 69 67 65 68 64 67 68 67 67 67 67 66 65 65 65 67 64 60 58

GFSMA_sfc_dewp_090.txt.gz
Dewpoint
70 70 70 70 69 67 69 66 68 69 68 65 62 65 64 67 69 70 72 73 75 72 70 70 71 71 71 70 71 71 71 71 71 72 72 72 72 72 71 70 70 69 64
70 68 69 70 70 70 69 68 68 68 68 64 61 63 64 67 68 69 70 71 74 74 72 71 71 71 71 70 70 71 71 71 72 72 72 72 72 73 72 71 70 70 68
69 69 69 69 70 72 70 69 69 69 68 65 64 63 64 64 65 67 68 70 72 73 72 72 73 73 71 71 71 71 72 73 73 73 74 74 74 73 73 72 71 70 70
69 69 67 68 70 70 70 68 68 67 66 65 64 64 65 65 64 65 67 69 70 70 72 74 75 74 72 72 72 73 74 75 75 75 75 75 75 75 75 75 73 72 71
71 71 69 69 70 69 69 69 68 67 66 64 64 66 66 64 64 65 67 68 68 70 69 72 75 75 73 73 74 75 76 76 75 75 75 75 75 76 76 75 75 74 73
72 71 70 70 70 69 68 69 66 66 65 62 61 62 63 65 65 66 67 67 68 68 68 68 70 73 75 75 76 76 76 76 75 75 75 75 76 75 75 75 75 75 75
72 72 72 68 69 66 67 69 69 67 68 68 64 64 63 61 63 65 65 65 65 68 68 69 69 71 70 75 75 75 76 76 76 77 76 75 75 75 75 75 75 75 75
72 71 71 69 69 69 70 69 66 67 66 66 64 61 59 58 62 61 65 64 63 65 67 68 69 70 70 69 70 73 75 76 76 77 76 75 75 75 75 75 75 75 75
72 72 71 71 68 68 67 68 70 65 65 66 66 62 60 58 63 62 59 63 61 63 65 66 66 67 68 68 72 73 75 74 75 76 75 75 75 75 75 75 75 75 75
72 71 71 71 71 69 67 67 70 68 65 67 66 67 65 61 61 57 60 60 59 59 62 64 63 65 65 67 70 74 73 74 75 74 74 75 75 75 76 76 76 75 75
73 72 71 71 70 69 67 69 70 69 70 70 69 68 66 64 63 61 59 56 58 60 61 62 63 64 65 66 68 69 72 73 72 73 73 73 74 74 75 76 75 75 75
71 71 72 71 71 70 68 68 71 70 70 70 70 69 67 64 64 64 62 62 58 58 62 64 64 64 64 66 70 71 72 72 71 71 72 72 73 72 74 75 73 73 71
70 70 72 71 71 69 68 66 70 70 70 69 68 69 69 69 68 66 64 62 62 63 64 65 64 67 66 69 69 71 72 71 71 69 70 70 71 71 72 73 71 70 68
69 70 72 72 72 71 71 71 71 70 70 70 68 68 67 69 68 67 67 62 60 62 64 64 66 67 69 70 70 72 70 71 70 69 68 69 70 70 71 71 71 69 66
70 70 71 72 72 72 70 71 71 71 71 70 69 69 69 69 68 69 68 66 62 59 59 63 66 70 69 70 70 70 69 70 70 70 69 69 68 69 70 70 69 67 66
70 71 71 71 71 72 71 71 71 70 70 70 70 70 69 70 70 70 70 69 67 63 61 66 66 70 70 67 68 70 69 71 70 69 69 68 68 68 69 70 68 66 65
70 70 70 71 70 71 72 71 70 70 70 70 70 70 69 69 69 69 70 69 68 68 64 65 70 69 67 67 68 68 69 70 73 69 68 67 67 67 68 68 67 66 65
70 69 69 68 68 70 71 71 70 71 70 70 70 69 70 70 68 70 71 68 69 68 68 66 67 67 68 68 67 66 68 70 72 69 65 65 66 66 66 66 65 64 63
69 70 67 65 64 68 70 72 71 70 71 71 70 69 70 69 69 69 69 68 69 69 70 69 68 69 68 66 67 68 69 68 68 68 65 65 65 66 65 64 63 62 60
70 70 70 70 70 71 71 71 72 70 70 71 72 71 71 70 69 68 69 69 68 68 68 68 67 68 68 68 68 68 68 68 69 68 67 67 67 67 65 63 63 62 59
73 72 72 72 72 72 71 71 72 72 71 71 72 72 72 72 70 69 70 70 69 68 68 68 68 68 68 68 68 69 69 69 69 67 69 69 68 69 68 65 66 66 61
71 72 72 72 71 72 68 66 70 72 72 72 71 70 71 71 70 68 68 68 69 69 68 69 68 68 67 68 68 69 68 67 65 69 70 68 71 70 70 69 66 64 62
69 70 70 71 72 72 68 65 66 68 70 70 72 71 71 71 70 72 69 66 66 66 67 68 67 67 66 67 68 66 66 67 66 68 69 68 70 70 69 69 65 63 61
67 68 69 70 70 72 67 64 65 68 68 68 70 72 72 72 71 70 71 70 70 70 67 67 67 67 67 68 66 66 66 67 69 70 71 68 66 66 66 67 65 63 61
66 67 69 68 69 70 64 62 64 69 69 70 70 70 70 71 68 64 69 70 70 70 69 64 64 64 63 62 65 68 68 67 67 67 69 67 66 65 64 64 66 62 60
65 66 67 68 66 71 58 58 62 68 69 70 71 71 65 66 61 58 67 69 69 68 68 69 70 66 64 66 63 66 69 68 68 67 67 66 66 65 63 65 67 62 61

GFSMA_sfc_dewp_093.txt.gz
Dewpoint
69 70 70 69 68 67 69 67 68 68 69 65 68 69 67 67 68 69 70 73 73 71 70 70 70 71 71 71 71 71 71 71 71 71 72 72 72 72 72 71 71 70 66
69 68 69 69 69 69 69 68 66 69 68 62 64 65 65 67 68 69 70 71 73 73 72 71 71 71 71 71 71 71 71 71 72 72 72 73 73 72 72 72 71 70 70
68 68 69 69 69 71 70 69 69 68 66 64 63 63 64 65 66 67 68 69 71 73 73 73 72 73 72 72 72 72 73 74 73 74 75 74 74 74 73 73 72 71 71
69 67 66 67 70 70 70 68 67 67 66 65 64 64 64 64 64 65 66 67 68 69 71 74 74 74 73 73 73 73 75 75 76 76 75 75 75 75 75 75 74 74 72
70 69 67 68 69 69 68 68 68 66 66 64 63 65 65 65 64 64 65 66 67 69 69 70 73 75 74 73 74 76 77 76 76 76 75 76 76 76 76 75 75 75 74
71 71 70 69 70 69 68 69 67 66 65 63 62 63 63 65 64 64 66 67 67 67 68 68 68 69 73 74 75 76 76 77 76 76 76 76 75 75 75 75 75 75 75
72 71 71 69 68 66 67 69 68 66 67 67 63 63 61 62 64 64 65 65 66 68 68 68 68 69 70 73 74 75 75 76 77 77 77 75 75 75 75 75 74 74 75
72 71 70 67 68 69 69 69 68 65 65 66 64 61 59 57 62 62 64 64 64 64 66 68 68 68 69 69 70 74 75 75 75 77 77 75 75 75 75 75 75 75 75
71 72 71 70 68 68 67 68 69 67 64 66 66 62 59 57 61 60 59 63 64 63 63 64 66 66 68 68 70 71 73 73 75 76 76 75 75 75 75 76 75 75 75
71 71 71 70 69 68 67 67 70 67 66 66 66 67 65 61 61 57 58 60 60 58 60 63 64 64 65 66 68 71 72 73 74 75 75 75 75 75 76 76 75 75 75
72 71 71 70 70 68 66 68 70 69 70 69 68 67 65 62 64 61 59 57 58 59 61 62 62 63 63 65 66 69 72 71 72 73 73 74 74 74 75 76 75 74 74
71 71 71 70 70 69 68 68 70 69 69 69 69 68 66 65 65 64 62 62 61 60 61 63 64 64 65 65 69 72 72 72 72 72 71 72 73 73 73 75 73 71 69
70 70 71 71 70 69 68 66 69 69 69 68 68 68 68 68 68 66 64 61 62 63 64 66 68 68 68 68 68 72 72 70 71 70 70 70 71 72 72 73 71 70 67
70 70 71 71 71 70 70 67 70 70 69 70 68 68 67 68 68 67 66 62 61 62 61 64 67 67 69 69 70 73 70 69 69 69 69 69 70 70 70 72 71 70 67
70 69 70 71 70 70 70 70 70 70 70 70 68 68 68 69 68 68 67 66 62 60 59 62 65 69 70 70 70 69 68 68 69 69 68 68 68 69 70 70 70 69 67
69 69 70 71 71 72 71 70 70 70 69 70 70 69 68 69 69 69 69 68 67 62 61 64 66 68 69 67 69 68 67 69 69 69 68 66 66 68 69 69 69 68 67
69 70 70 70 70 71 71 70 70 70 69 69 69 69 68 68 68 68 70 68 68 66 64 66 68 68 67 67 68 67 69 70 71 68 66 65 65 67 68 68 68 67 67
69 70 70 70 70 70 71 71 71 70 70 69 68 69 68 70 68 68 70 67 68 68 67 65 67 67 67 68 67 67 68 69 68 67 66 65 65 66 66 65 65 65 64
70 69 69 68 67 66 68 71 71 70 70 70 70 69 68 69 68 68 68 68 68 69 68 68 67 68 68 67 68 68 68 68 69 68 65 65 66 65 64 63 63 62 61
71 69 69 67 66 65 66 69 71 71 70 70 71 71 70 70 69 68 68 68 68 68 67 67 66 67 67 68 68 67 68 69 69 67 67 67 67 67 66 64 63 63 61
72 71 70 70 70 70 70 71 71 71 71 70 70 71 71 71 70 69 71 70 69 68 68 67 66 66 67 67 66 67 68 68 67 67 67 69 68 69 70 67 67 66 63
69 70 70 70 70 72 69 67 70 71 71 71 71 71 71 70 70 67 67 67 70 70 68 67 67 67 67 67 67 67 67 65 64 67 68 67 69 68 70 70 67 65 63
67 68 69 70 71 70 66 64 66 70 70 70 70 71 71 71 70 71 69 66 66 65 67 69 68 68 67 67 67 66 65 65 65 67 68 67 68 69 68 67 65 64 62
66 66 68 68 68 69 63 62 65 67 69 68 68 70 70 71 71 71 71 70 70 70 69 67 68 69 68 68 67 67 67 66 66 68 69 67 67 66 66 66 64 62 61
63 64 66 67 67 68 59 59 65 68 68 69 69 70 70 70 65 61 68 69 69 70 68 64 64 63 63 62 64 68 67 66 68 68 69 68 67 66 66 65 65 61 60
61 62 64 67 64 65 58 60 63 66 64 65 67 68 61 62 58 56 64 64 65 67 68 67 67 67 64 66 63 66 69 68 68 67 68 67 66 66 64 64 66 67 64

GFSMA_sfc_dewp_096.txt.gz
Dewpoint
70 71 71 70 70 71 70 69 70 69 71 66 68 71 69 69 69 70 70 71 72 73 71 70 70 71 71 72 72 72 71 71 71 71 72 72 72 72 72 72 72 71 70
70 70 70 70 71 71 71 70 69 70 69 65 68 68 68 68 68 69 69 70 73 73 73 72 71 71 71 71 71 72 72 72 72 73 74 74 74 73 73 72 73 72 71
70 70 70 70 71 73 71 71 70 69 68 66 67 66 66 67 67 68 68 69 69 72 73 73 73 73 73 73 72 73 75 75 75 75 76 76 75 75 75 75 74 73 73
70 70 69 70 70 71 70 71 69 69 68 68 67 67 67 66 67 67 67 67 68 68 69 71 73 74 74 74 74 75 76 76 77 76 76 76 76 76 75 75 75 74 73
70 71 69 70 72 71 70 70 70 68 68 66 65 67 67 67 67 65 67 67 67 69 69 70 71 72 72 73 75 76 77 77 77 77 76 77 76 76 75 74 74 75 75
71 72 71 71 71 70 70 71 70 70 69 69 66 66 67 67 68 67 67 67 69 69 69 70 70 69 71 73 74 74 75 77 77 77 77 76 75 75 75 75 74 74 75
73 72 72 71 71 70 71 70 69 70 68 68 67 66 64 65 64 67 66 67 67 67 68 70 70 70 70 72 73 73 74 76 77 77 76 75 75 75 75 75 74 74 75
73 73 71 70 70 71 71 71 69 68 68 68 67 64 63 63 65 65 65 66 67 66 66 67 69 71 71 70 71 74 74 74 75 77 76 75 75 75 75 75 75 75 75
72 72 71 71 71 71 70 71 71 70 68 69 68 66 63 62 63 64 65 64 66 66 67 66 66 68 70 69 70 71 72 73 75 76 76 75 75 75 76 76 75 75 75
72 73 72 71 71 70 71 70 71 69 70 69 69 68 67 65 64 63 64 64 64 63 65 65 65 66 68 67 69 71 71 72 73 74 75 75 75 75 76 76 74 74 74
73 71 72 72 72 70 70 70 72 72 73 71 69 68 68 66 66 64 63 65 66 63 64 65 65 66 67 68 68 70 72 72 72 73 74 74 74 73 75 75 74 73 72
73 73 73 72 72 71 70 71 72 72 71 71 70 70 68 68 67 67 65 64 65 66 66 68 67 68 69 70 70 72 73 72 71 71 72 72 73 73 72 74 72 71 68
71 72 73 72 72 71 71 70 72 72 72 71 71 70 69 69 69 68 66 64 64 66 67 70 73 72 71 73 71 72 73 71 70 69 70 71 71 72 72 73 71 70 67
71 72 72 73 72 72 70 70 71 71 71 71 71 71 70 70 69 69 68 67 66 67 65 67 70 72 72 73 72 72 70 69 68 68 68 68 69 70 71 72 72 71 68
71 71 71 73 72 72 72 72 72 72 72 72 71 71 70 70 70 70 69 68 67 64 66 67 69 72 76 74 73 72 71 70 69 69 67 66 67 69 70 70 71 70 68
71 71 70 71 72 72 73 72 72 72 72 71 71 72 71 71 71 71 71 70 69 66 65 67 69 71 72 69 71 72 71 70 70 67 66 65 66 68 69 69 69 69 68
71 71 71 71 72 72 73 73 72 72 71 71 71 71 71 71 70 70 71 71 69 68 67 69 69 71 72 72 72 72 71 73 71 67 66 65 65 66 67 67 67 68 68
71 70 71 71 72 71 72 72 72 72 71 71 71 71 70 70 71 71 71 71 70 71 69 69 70 70 71 72 72 72 71 70 71 68 66 65 66 65 65 64 64 65 65
72 71 71 70 70 70 71 71 72 72 72 71 71 71 71 71 71 70 71 70 70 70 70 70 69 70 70 70 71 72 72 73 70 68 65 65 66 66 65 64 63 61 61
72 71 71 70 70 70 69 68 71 72 72 72 72 72 72 71 71 72 71 72 70 70 70 70 69 69 69 71 71 69 69 71 70 69 67 66 68 67 66 64 64 63 61
71 72 71 71 70 69 68 70 71 71 72 72 72 72 72 72 70 70 73 73 72 71 70 70 70 69 69 69 69 70 69 70 71 70 69 71 70 71 71 68 69 67 64
68 69 70 71 71 72 66 66 71 72 73 73 73 73 73 71 71 67 66 67 71 73 72 70 71 70 71 70 70 70 70 70 68 71 70 70 71 71 71 71 67 65 62
67 68 68 68 68 70 63 63 66 71 72 72 72 72 71 71 71 72 69 66 66 65 68 73 71 71 71 72 71 71 71 69 69 70 70 70 71 71 71 67 65 63 62
64 65 66 68 69 67 60 61 64 69 71 70 70 71 71 71 68 67 70 71 72 72 72 69 70 72 73 73 72 72 72 71 70 70 71 69 71 70 71 70 65 63 62
61 62 65 68 64 61 57 59 65 69 68 68 69 68 68 66 61 59 67 68 69 70 67 64 63 63 62 62 64 69 69 70 68 69 71 70 70 69 70 69 70 63 60
62 64 65 65 61 61 53 55 59 62 61 63 65 66 62 61 59 59 61 62 63 67 68 67 68 68 67 69 63 68 69 68 68 68 71 70 69 69 67 70 69 70 70

GFSMA_sfc_dewp_099.txt.gz
Dewpoint
71 71 72 70 71 71 69 70 71 71 70 66 69 71 70 70 68 66 65 69 72 72 72 71 71 71 71 71 71 71 71 72 72 72 73 73 73 73 73 73 72 72 71
72 71 71 70 71 72 72 72 72 70 67 66 68 69 69 69 69 67 66 67 71 73 73 73 73 72 73 73 73 73 73 73 74 74 75 75 76 75 74 74 73 73 72
72 73 71 71 72 74 73 73 72 70 67 66 68 68 67 68 67 68 68 67 67 70 71 72 73 73 73 74 74 75 76 76 76 76 77 75 76 76 76 75 75 74 73
73 72 70 71 71 73 71 70 69 68 68 67 68 68 68 68 68 68 68 68 68 67 69 70 71 72 73 73 75 76 77 76 77 77 77 76 76 75 75 75 74 75 74
71 72 70 71 74 71 71 70 68 70 68 68 66 67 68 68 68 65 68 69 69 69 68 73 71 72 72 73 74 75 76 76 77 77 77 77 76 75 75 75 74 74 74
73 75 71 73 73 71 70 71 72 71 70 68 64 65 68 68 69 68 67 66 69 69 68 71 70 69 72 72 73 74 74 76 77 77 77 76 75 75 75 75 75 75 75
74 75 72 73 72 72 73 72 71 70 68 70 67 65 65 65 65 66 67 67 67 66 67 67 69 68 68 73 73 74 74 75 77 77 76 75 75 75 76 76 75 75 75
74 74 75 72 73 71 74 74 73 69 69 70 67 66 61 61 63 63 65 65 66 66 66 67 68 70 70 69 70 74 74 73 75 76 76 75 75 75 76 75 75 75 75
73 75 74 73 74 73 70 73 73 71 68 70 71 67 62 60 65 64 64 64 67 66 66 66 65 68 70 68 70 70 73 72 74 76 76 75 75 75 76 75 74 74 74
73 73 74 74 74 72 73 73 73 72 71 68 70 68 70 70 64 60 64 64 65 62 64 63 63 65 69 68 71 72 71 73 73 75 75 75 74 73 75 74 73 73 73
75 73 75 75 74 71 73 73 75 75 71 69 67 69 71 69 70 66 60 62 64 64 67 66 65 66 69 71 69 70 73 73 73 73 73 74 73 73 74 74 73 71 69
73 74 74 75 74 74 73 72 75 74 73 72 69 69 66 66 66 66 64 66 65 66 68 70 69 68 71 70 70 73 74 72 71 71 71 72 72 73 73 75 73 71 68
75 74 76 76 73 74 73 73 75 75 74 72 73 69 69 68 69 69 68 65 64 65 67 70 70 71 67 69 70 73 73 71 70 69 70 70 70 71 73 74 73 71 69
70 73 74 75 75 74 73 73 71 72 74 72 73 74 70 70 70 70 68 67 64 66 67 70 71 70 69 71 72 73 70 70 69 69 68 67 68 70 72 72 73 72 71
72 73 73 74 74 75 74 74 70 73 74 74 73 74 72 71 71 71 71 69 67 61 61 66 66 71 70 69 71 70 72 70 70 68 67 66 67 69 70 71 71 71 70
73 73 73 73 74 74 75 75 73 74 74 72 71 74 74 71 71 71 71 70 69 66 62 66 65 70 71 68 68 71 71 71 70 68 67 66 67 68 69 70 70 70 70
74 74 74 73 72 73 74 75 75 73 74 74 74 74 73 74 70 69 70 71 70 69 65 64 69 70 73 73 71 73 70 71 68 68 67 66 66 66 67 67 67 68 68
74 74 74 74 74 74 74 74 74 73 73 73 72 73 73 71 74 73 70 73 71 72 69 70 71 70 72 74 74 75 70 68 71 68 66 66 65 66 66 65 65 64 64
75 73 74 74 74 73 72 73 74 73 73 73 73 73 72 73 74 72 73 76 70 70 72 70 69 70 71 71 72 73 73 74 69 68 65 66 66 66 65 64 63 62 61
74 74 74 74 73 73 72 71 71 73 74 72 73 73 73 73 74 74 72 75 72 74 72 70 68 69 70 72 72 70 69 68 68 68 67 67 67 68 67 65 64 64 62
73 74 74 74 73 72 69 71 71 71 71 73 74 73 73 73 70 71 75 77 75 73 74 67 67 68 68 67 69 69 68 68 70 69 70 68 67 69 69 67 69 68 64
71 72 72 72 72 72 62 64 70 73 74 74 74 75 74 72 71 67 66 67 70 75 75 69 67 68 73 72 70 70 69 68 67 69 71 69 69 69 69 68 66 64 62
69 70 70 71 70 66 61 61 66 74 75 75 74 74 73 72 70 72 70 67 67 65 67 74 73 72 73 73 74 73 72 71 70 70 71 68 69 69 70 67 66 64 62
67 68 70 66 63 59 58 59 65 73 73 72 70 70 69 65 62 63 70 72 73 73 74 72 73 73 74 74 75 74 74 73 72 70 74 70 68 69 70 70 66 64 63
66 69 65 64 59 57 54 57 64 65 66 66 65 62 62 61 60 60 62 65 67 70 66 64 63 62 62 61 64 70 70 70 68 67 70 70 69 69 70 69 70 65 62
66 64 59 56 53 53 51 52 59 62 62 64 63 63 57 56 54 55 61 61 60 61 61 61 63 63 65 68 64 71 70 69 69 68 70 70 68 69 67 68 69 70 71

GFSMA_sfc_dewp_102.txt.gz
Dewpoint
69 68 70 69 69 68 66 68 69 67 67 65 66 66 64 66 64 61 60 70 71 71 71 71 71 71 71 72 73 73 73 73 73 74 74 74 75 75 75 74 73 72 72
71 68 69 68 69 68 68 69 70 66 64 63 66 65 65 64 66 65 62 66 71 72 72 72 72 72 72 73 74 74 74 75 76 76 76 76 76 76 75 75 74 73 72
73 73 69 68 69 71 73 71 69 67 63 62 66 65 64 65 63 65 64 63 67 71 71 71 71 72 73 74 75 75 77 77 77 77 76 76 76 76 75 75 75 75 74
73 72 68 68 70 70 69 66 66 63 64 63 64 64 64 64 66 66 64 66 66 64 70 71 71 72 73 73 74 76 77 77 77 77 77 77 76 75 75 75 75 74 74
71 71 69 70 72 69 67 66 65 66 64 63 61 62 63 63 64 60 65 67 66 66 66 72 72 73 73 73 74 75 75 77 77 77 77 77 76 75 76 76 75 75 74
71 72 69 72 70 67 67 67 71 67 64 64 59 59 61 62 64 63 63 62 64 65 64 69 69 69 74 73 74 74 75 76 77 77 77 75 75 75 76 76 76 76 75
72 73 70 71 70 69 71 72 69 68 63 66 61 59 59 61 61 61 62 62 62 62 65 66 67 67 67 74 75 74 74 74 76 77 77 75 75 75 76 75 75 75 75
71 71 73 71 72 69 73 73 72 65 65 68 61 61 57 57 58 57 61 60 62 62 63 65 67 68 69 67 70 74 73 73 75 77 77 76 74 74 76 75 75 75 74
71 72 73 72 73 70 67 72 71 72 63 67 71 64 57 57 57 58 60 59 63 62 64 65 65 67 69 68 70 71 73 73 75 75 76 75 74 73 75 73 73 73 73
71 71 72 72 74 71 73 71 70 71 71 65 66 67 71 71 59 55 57 59 59 58 63 62 63 64 69 66 71 72 73 74 74 74 74 75 75 74 75 73 71 71 71
72 71 72 74 75 70 73 73 73 72 70 66 65 67 70 67 69 60 57 58 57 61 64 65 64 64 68 68 66 70 74 74 73 73 73 74 74 74 74 75 72 69 68
69 71 71 72 74 73 73 71 73 71 74 71 67 67 64 63 63 62 61 63 61 63 65 67 68 66 67 67 70 73 74 73 71 72 72 71 72 74 75 75 74 71 68
68 71 72 73 71 73 73 72 75 73 72 71 73 66 66 65 66 65 63 62 61 63 65 66 68 69 65 68 68 72 73 71 71 70 70 70 71 71 74 75 75 73 71
68 73 71 71 72 72 73 74 71 69 71 69 70 72 66 67 66 65 64 63 60 61 63 67 68 67 66 67 70 72 67 69 70 68 68 68 70 71 72 73 74 74 73
71 73 73 72 72 72 73 74 69 72 73 72 71 71 69 66 66 66 66 64 63 59 58 65 62 66 65 64 68 67 68 71 70 69 68 67 68 70 71 72 72 72 72
74 73 73 73 71 72 72 73 71 72 73 70 68 72 72 66 67 66 65 64 64 62 60 60 61 66 69 68 68 69 68 70 72 70 68 67 68 68 69 70 70 70 70
74 73 75 74 74 73 73 74 73 71 72 71 72 72 72 74 68 64 64 64 64 64 62 60 62 65 72 72 71 72 68 66 64 68 68 68 67 67 68 68 68 68 68
74 73 73 75 73 71 73 73 72 69 71 70 70 71 71 68 73 73 67 71 69 70 66 69 70 66 70 72 72 74 69 65 67 68 67 67 66 66 66 66 65 66 65
71 71 73 73 71 72 73 73 72 71 71 70 70 70 70 70 71 69 71 69 66 67 69 66 66 64 66 67 70 72 71 71 64 66 65 67 67 66 66 65 64 63 62
71 71 71 72 72 71 72 73 72 72 71 70 71 70 71 71 71 72 70 73 70 71 69 67 65 63 63 68 67 64 62 63 63 63 66 66 67 67 67 65 65 65 63
72 74 72 73 73 71 68 73 73 72 72 71 72 71 71 71 71 71 73 75 73 71 66 65 64 63 62 68 68 65 63 63 67 65 63 66 64 64 65 67 69 68 65
74 74 73 73 73 70 62 64 70 72 73 72 71 72 71 72 71 68 68 67 70 75 73 71 66 66 72 71 67 66 67 66 65 66 69 67 66 65 65 65 67 65 64
72 72 72 72 70 68 59 62 65 73 74 71 72 72 71 68 70 71 69 68 67 66 67 75 73 72 72 75 75 74 75 71 70 70 71 66 66 65 65 64 66 65 64
70 70 70 68 65 60 57 60 66 73 72 71 71 70 69 67 64 64 69 70 71 72 74 72 74 74 74 73 73 74 74 74 72 70 72 65 66 66 66 66 66 67 66
68 69 67 64 61 57 52 55 66 70 69 68 64 64 64 61 56 57 64 65 66 67 63 65 64 61 60 61 64 69 68 73 68 68 69 69 69 68 67 66 66 66 64
65 62 60 58 55 53 49 51 59 63 64 62 63 62 55 55 53 53 61 61 60 59 59 61 63 63 63 64 62 71 70 71 72 69 71 72 75 71 68 68 68 68 68

GFSMA_sfc_dewp_105.txt.gz
Dewpoint
68 71 72 71 68 71 63 65 64 64 66 63 62 63 61 61 59 54 57 70 70 70 70 70 71 71 72 73 74 74 74 75 76 76 76 76 76 76 75 74 74 73 71
73 66 70 66 69 68 65 66 67 63 62 61 63 63 62 61 63 61 60 66 71 71 71 71 72 72 72 73 74 75 77 77 78 77 77 77 77 76 75 75 74 73 73
72 71 66 70 70 68 71 68 66 65 60 60 64 63 61 62 62 64 62 63 68 72 72 72 71 71 72 73 75 76 77 78 77 77 78 77 77 76 75 76 75 73 74
71 73 71 65 66 68 66 64 63 60 60 60 62 61 61 61 64 65 64 64 65 64 72 73 72 73 73 74 75 76 77 77 77 78 77 77 76 76 76 76 76 74 74
71 75 73 69 74 67 64 69 59 67 60 60 60 60 61 60 63 60 65 65 65 64 64 74 75 75 74 74 74 75 76 77 77 77 77 77 76 76 76 76 76 75 74
70 72 70 69 73 68 65 65 72 64 63 61 58 58 60 60 61 62 62 60 64 65 62 68 69 70 76 75 75 74 75 76 77 77 77 76 76 76 76 75 76 76 74
71 73 73 70 71 72 71 70 68 68 61 62 62 58 58 60 61 60 59 59 61 60 62 65 66 67 68 76 74 75 74 75 76 77 78 76 76 75 76 74 75 75 75
72 70 74 72 73 68 71 72 72 66 60 61 62 59 56 57 57 56 58 58 60 59 62 65 65 69 69 66 71 74 73 74 76 77 78 77 75 74 75 74 74 74 74
70 72 72 74 71 74 71 73 70 71 61 62 70 69 59 63 56 56 60 58 62 61 62 63 63 67 69 68 71 72 74 74 75 75 76 77 76 74 74 73 72 72 72
70 71 72 72 73 73 74 72 70 74 73 61 61 62 70 69 66 56 55 58 59 58 62 61 60 65 67 65 74 74 75 74 74 74 74 74 75 76 74 74 71 69 70
71 70 72 72 73 70 72 74 71 74 69 68 65 61 67 62 65 60 63 57 56 57 61 61 61 61 66 67 66 70 75 74 73 73 73 73 73 75 75 75 73 70 67
69 71 71 72 73 74 72 70 73 72 74 74 69 67 61 65 67 66 59 62 62 62 61 64 64 63 64 65 70 74 74 73 72 71 71 72 72 73 74 75 75 74 70
66 71 72 73 71 74 73 73 74 74 71 71 75 68 62 61 61 62 61 67 58 62 64 64 68 65 63 64 68 71 73 72 70 69 69 70 71 72 73 75 75 75 74
70 73 72 71 71 72 72 73 70 68 73 69 71 75 68 63 62 62 62 61 59 67 70 67 62 71 70 68 70 71 65 70 70 69 68 69 70 71 72 73 74 75 75
72 72 71 71 71 72 72 74 70 72 73 72 72 72 70 65 62 62 62 62 61 58 58 70 66 70 68 66 69 68 70 71 70 71 70 68 69 70 70 71 72 72 72
72 74 72 72 72 72 73 74 72 73 72 70 66 72 72 67 68 64 62 62 61 61 59 59 59 64 70 68 68 70 69 70 68 72 71 69 69 70 71 70 70 70 70
72 72 73 72 72 72 73 74 75 74 72 72 72 71 71 74 68 66 66 64 61 61 60 62 63 66 75 74 70 72 68 71 65 70 70 69 69 69 69 69 69 68 68
73 72 73 72 71 72 73 73 73 69 70 70 70 71 70 66 72 75 68 76 70 71 64 72 69 66 72 71 71 75 67 63 66 69 69 68 69 68 67 66 66 67 66
72 71 72 72 72 71 71 72 73 71 70 69 69 70 70 70 72 70 72 70 66 69 72 67 65 63 65 67 70 73 74 73 63 69 66 66 69 67 65 65 65 64 63
72 71 72 73 72 71 71 71 71 72 71 70 70 73 72 71 72 72 71 74 72 71 69 68 69 66 66 71 72 64 63 63 63 62 65 65 67 67 66 65 65 65 63
71 71 71 74 71 69 67 71 71 72 72 71 70 70 71 72 71 70 70 74 74 72 67 67 65 63 65 67 67 65 65 65 68 67 65 65 65 64 64 65 70 69 66
72 72 71 72 72 70 62 63 68 72 72 73 72 70 70 72 71 69 68 68 71 74 73 69 68 66 73 70 69 68 70 68 67 69 71 69 68 63 63 64 68 67 65
73 73 72 72 72 70 58 61 66 71 72 73 73 73 72 70 71 71 69 68 68 67 68 74 73 74 74 76 75 75 75 74 70 70 72 70 69 68 70 64 66 66 66
72 73 72 70 67 61 55 56 62 73 74 74 73 72 72 70 59 59 66 69 70 72 75 71 74 71 71 70 70 71 73 74 73 72 74 71 70 68 69 70 67 67 67
71 69 68 66 63 60 51 53 62 72 70 70 67 63 66 61 55 56 65 66 66 66 61 63 64 61 59 59 62 66 65 73 73 68 71 73 69 70 70 69 72 66 64
66 66 61 60 56 57 48 50 56 66 68 64 62 59 55 55 53 54 63 61 60 58 58 62 65 65 63 65 61 68 69 67 67 65 70 66 68 76 67 68 70 71 71

GFSMA_sfc_dewp_108.txt.gz
Dewpoint
72 70 65 71 73 72 70 72 72 70 70 68 67 66 63 65 58 59 66 72 72 70 70 70 71 72 72 73 75 76 77 77 78 78 77 77 76 76 75 74 74 74 73
74 72 73 73 71 74 73 69 71 70 70 66 68 67 66 65 67 63 65 70 73 73 71 71 72 72 73 74 76 77 78 78 78 78 78 77 77 77 76 76 74 73 74
77 74 72 74 74 74 74 74 73 68 68 66 68 69 66 67 67 68 65 67 70 74 74 74 74 74 74 74 76 77 77 77 77 78 78 77 77 76 76 76 75 73 75
76 75 75 70 73 76 75 74 73 70 66 69 68 69 68 67 68 69 68 68 68 66 74 75 75 75 75 74 76 77 77 77 77 77 77 77 76 77 76 76 76 74 75
75 73 74 74 76 73 69 71 69 70 69 66 66 68 68 68 69 65 68 69 68 69 69 74 75 75 76 75 76 76 76 76 76 77 77 77 76 76 76 76 76 75 74
75 77 75 75 74 72 70 72 73 71 73 65 61 63 67 68 69 68 68 65 68 69 69 73 73 73 76 77 76 75 75 76 76 77 78 77 76 76 76 75 76 75 75
76 76 76 74 72 72 76 75 75 73 72 71 72 68 66 66 67 68 66 65 67 67 69 70 74 73 72 76 76 75 74 76 77 77 77 77 76 75 76 75 75 75 75
76 75 77 74 73 75 76 76 76 75 71 70 70 68 66 66 65 62 66 63 64 65 67 68 72 71 73 73 74 74 75 75 76 77 77 77 77 76 76 74 74 74 75
75 73 76 74 77 76 75 77 76 75 72 70 73 72 68 66 65 65 65 66 65 68 68 68 69 72 72 72 74 75 75 74 75 76 76 76 76 76 76 75 73 73 74
74 74 76 76 76 72 73 77 75 76 75 72 71 68 73 67 64 64 65 64 66 65 66 68 65 70 71 72 74 74 74 74 74 74 75 75 75 76 76 76 74 72 72
76 73 76 76 77 76 76 76 75 77 76 75 72 72 68 72 67 69 64 62 66 67 68 69 66 68 70 70 71 74 74 73 72 72 72 73 74 75 75 76 76 73 71
74 76 74 77 77 77 74 75 77 76 76 77 75 74 68 67 67 67 65 65 65 70 69 70 69 68 71 70 68 75 74 72 71 70 70 71 72 73 74 75 76 75 73
71 75 77 77 76 77 76 76 77 76 76 75 77 74 73 67 65 66 67 65 65 70 69 70 68 67 71 72 71 73 73 70 69 69 69 70 71 71 73 74 75 76 76
72 75 76 76 76 77 76 77 76 75 76 75 76 76 74 71 68 70 70 68 66 67 65 65 70 68 72 72 73 73 71 70 70 69 69 69 70 71 71 72 73 74 74
73 73 75 76 75 75 76 76 75 74 74 72 74 76 75 73 71 70 67 71 68 66 65 68 69 69 72 71 73 73 73 72 71 73 71 70 70 71 70 70 70 70 71
73 69 71 75 76 74 74 76 75 73 75 74 73 74 76 74 73 71 69 70 70 68 67 68 68 73 74 69 72 72 72 70 69 69 70 72 72 72 70 70 70 70 69
73 69 75 76 76 74 74 76 76 75 74 75 75 74 74 75 74 73 72 71 70 71 69 69 70 70 72 74 73 74 74 72 71 69 71 70 71 71 70 69 69 68 68
77 76 76 76 76 75 76 76 74 74 72 73 74 75 74 70 74 76 74 74 73 74 72 68 73 69 70 72 75 74 73 65 70 69 68 70 70 68 68 66 66 67 66
76 74 76 76 75 75 74 76 76 76 74 72 74 74 74 74 74 74 74 74 72 72 73 72 72 71 71 72 70 70 72 73 70 68 68 67 67 66 65 65 64 64 63
75 75 75 74 75 75 74 74 75 74 74 73 73 73 70 72 74 74 73 74 72 73 72 71 70 70 70 73 72 71 70 72 70 70 69 68 68 67 66 64 64 65 63
74 74 75 75 75 71 65 67 74 74 74 74 75 74 74 73 71 71 73 75 76 74 73 71 70 69 70 71 70 72 71 72 72 73 72 72 71 71 69 67 69 68 67
75 75 74 74 74 66 61 63 67 74 74 74 74 74 73 74 71 69 69 69 71 73 73 72 71 70 72 72 72 72 72 71 70 74 72 71 71 70 70 71 69 68 67
74 74 74 74 69 63 57 58 63 70 73 75 76 76 74 66 63 65 68 68 68 67 68 72 72 72 72 74 72 71 71 71 70 71 73 70 72 72 72 73 67 67 67
70 70 70 69 67 56 53 55 59 69 75 74 72 72 68 63 57 58 65 70 70 72 72 68 71 69 68 69 69 68 70 71 72 73 74 70 71 70 71 72 68 67 65
69 67 66 63 63 55 50 53 60 74 71 66 64 61 63 60 56 56 67 65 67 64 56 60 62 60 59 59 61 65 68 68 67 67 71 68 69 68 71 71 72 68 65
66 64 61 57 57 54 48 50 58 71 69 65 61 58 55 55 54 54 62 62 60 60 58 60 62 65 65 65 61 67 70 66 65 64 67 67 68 70 68 73 70 70 72

GFSMA_sfc_dewp_111.txt.gz
Dewpoint
70 68 67 70 66 71 69 68 68 67 67 66 62 60 60 57 60 65 69 72 73 72 71 71 72 73 73 74 75 76 77 77 77 77 77 77 76 76 75 75 74 73 72
70 69 65 70 69 71 70 68 66 68 67 63 65 61 62 58 58 62 66 69 74 74 73 72 73 74 73 74 75 77 78 77 77 77 77 77 77 76 76 76 75 74 73
70 70 70 69 70 71 69 69 68 69 66 68 63 65 62 63 60 62 64 67 71 74 74 75 75 76 75 74 75 77 76 76 77 77 77 76 76 76 76 76 75 74 74
72 71 72 69 70 70 71 70 69 67 67 66 65 63 64 64 63 64 65 66 67 67 73 75 75 75 76 75 77 76 76 76 76 77 77 76 76 76 75 76 75 74 74
72 70 71 72 72 72 70 68 68 66 64 64 65 65 64 65 64 64 65 66 66 68 68 72 75 75 76 75 77 75 75 76 76 76 77 76 75 76 75 76 75 75 75
71 72 73 67 65 69 71 71 70 69 68 65 62 62 64 65 65 66 64 66 66 67 67 67 70 73 75 77 77 75 74 75 76 77 77 76 75 76 75 75 74 75 75
70 71 72 60 63 68 69 71 70 70 69 68 66 65 62 63 65 65 65 65 65 66 67 68 71 70 71 75 75 73 74 76 76 77 77 77 75 75 74 74 73 75 73
70 72 72 68 68 70 71 71 71 71 69 66 65 67 59 64 62 63 64 64 63 64 66 66 68 68 70 73 72 73 74 75 76 76 75 75 76 75 75 73 73 73 74
71 71 72 71 70 70 70 72 72 71 71 70 67 67 64 63 65 62 63 62 66 69 69 69 69 72 72 73 73 73 74 74 75 75 75 75 75 76 75 73 72 72 73
71 71 71 72 71 71 70 72 71 72 72 70 69 68 68 65 61 63 65 63 66 69 69 69 68 68 70 69 71 71 73 74 73 73 73 74 74 75 76 75 72 70 71
71 71 71 70 72 72 71 71 73 71 72 72 71 70 68 68 68 62 61 63 66 69 70 69 68 68 69 69 70 70 73 72 71 71 73 73 73 75 76 76 75 72 70
71 70 71 73 72 72 71 71 72 70 72 71 73 70 66 66 65 64 62 62 62 68 69 68 65 68 67 70 70 72 74 71 69 70 70 71 72 73 74 75 76 76 74
70 70 72 71 71 71 71 71 71 70 71 70 70 72 71 66 66 66 64 63 64 67 68 69 67 66 69 66 65 70 73 72 69 68 68 70 71 71 73 74 75 75 76
70 71 72 71 71 73 72 72 71 72 70 70 69 70 71 69 69 68 67 64 61 65 66 64 69 69 69 69 70 73 72 70 70 69 69 69 70 70 70 71 72 73 73
69 71 72 72 72 72 71 71 71 70 70 68 70 70 71 70 70 69 68 67 65 62 62 64 68 69 69 68 68 70 69 71 71 70 68 70 70 70 70 70 70 70 70
68 71 72 71 72 71 70 71 71 69 71 71 71 69 70 70 69 70 70 69 67 65 62 67 66 69 68 69 70 69 69 71 70 70 69 69 71 70 70 69 69 69 69
70 70 70 71 71 70 72 71 71 70 71 70 71 70 69 70 70 70 72 71 69 69 65 66 68 68 67 68 70 71 72 70 68 67 68 67 68 68 68 68 67 68 68
71 71 69 72 71 71 72 71 71 72 70 70 70 69 69 70 69 71 70 71 70 70 68 65 67 68 67 69 68 70 70 70 69 68 67 67 69 67 66 66 66 66 65
72 73 72 71 71 72 71 72 72 71 71 71 70 70 69 69 69 68 70 70 69 70 69 69 68 69 69 68 65 67 70 71 70 71 69 69 66 65 64 63 64 64 62
71 71 72 72 71 71 69 71 72 71 71 71 72 71 69 68 70 69 70 70 71 70 70 70 69 68 69 71 70 70 70 71 70 70 71 69 69 69 67 65 64 64 62
72 71 71 71 68 67 64 65 68 71 70 70 71 71 71 72 70 69 69 70 70 70 70 69 69 68 68 69 69 71 70 71 69 71 70 71 70 70 70 70 68 67 66
69 70 70 70 64 61 61 63 65 68 71 70 70 71 68 64 66 67 67 68 68 68 67 69 69 68 68 69 70 68 69 68 67 70 70 70 70 71 71 72 70 67 67
70 69 69 64 58 55 55 57 61 66 70 71 70 70 64 57 58 61 65 67 68 66 67 68 67 68 68 67 65 63 65 66 66 69 70 69 70 70 71 71 69 67 67
70 68 67 65 58 50 53 55 58 66 66 63 65 62 59 56 55 58 64 63 64 57 55 59 63 62 62 61 63 64 64 68 69 70 68 66 68 67 68 70 68 66 65
66 64 64 61 52 46 52 54 62 67 64 59 58 59 55 53 55 58 59 56 53 52 53 57 59 59 60 59 60 62 66 65 63 63 64 64 67 64 69 68 66 64 63
62 61 59 56 53 44 49 52 59 67 61 55 52 51 55 52 53 53 58 50 46 49 52 55 58 57 61 61 62 66 64 62 61 58 61 63 66 66 63 66 64 61 54

GFSMA_sfc_dewp_114.txt.gz
Dewpoint
64 66 68 68 69 66 68 66 68 68 69 70 69 66 65 59 63 67 70 72 73 72 71 71 71 72 73 74 75 75 76 77 77 76 76 75 75 75 75 75 74 73 72
68 69 66 66 66 69 70 69 68 68 66 64 64 61 57 58 60 63 65 68 73 73 73 72 73 74 74 75 76 77 77 77 77 77 77 76 76 76 75 75 74 73 72
70 69 67 66 70 70 71 69 70 68 68 67 63 63 60 57 59 60 62 64 68 73 74 75 75 76 76 75 76 77 77 76 76 77 76 76 75 75 75 75 74 73 73
71 70 70 69 70 72 71 69 67 67 66 67 65 64 63 62 59 61 63 64 66 66 69 74 76 76 76 76 78 78 76 76 75 76 76 76 75 75 75 75 74 74 73
71 70 71 69 70 69 71 68 67 66 64 66 66 66 67 65 63 63 63 64 64 66 66 70 73 75 75 75 78 78 76 75 75 76 77 76 75 75 74 75 74 75 74
72 72 72 68 66 69 70 71 69 69 67 65 65 63 66 65 64 64 64 65 66 67 69 70 70 71 74 76 76 76 75 76 76 76 76 76 75 75 74 73 74 75 74
70 70 71 59 68 71 71 70 71 71 67 66 63 66 62 63 63 65 65 66 68 70 69 70 72 73 73 75 74 75 76 76 77 75 75 76 75 75 74 72 73 74 75
71 72 70 69 69 70 70 71 71 70 70 68 66 65 59 63 66 64 68 68 69 68 69 67 68 71 70 73 73 74 74 75 75 75 75 75 76 74 73 72 72 73 74
70 71 71 70 70 69 68 71 71 71 69 70 67 66 63 62 63 64 65 68 69 69 69 69 67 67 69 68 70 71 72 72 74 75 74 74 74 75 74 72 72 72 73
70 70 71 72 70 71 70 71 72 71 70 69 69 69 67 65 60 60 64 64 68 68 69 69 68 66 67 68 68 70 71 72 74 74 73 74 74 75 75 73 71 71 72
71 70 70 71 71 71 70 70 70 71 71 71 69 67 67 66 64 61 58 61 65 68 69 70 68 67 68 67 67 69 72 73 73 72 71 73 73 74 75 76 73 71 71
70 71 71 71 71 71 70 70 71 70 71 71 71 68 66 65 64 62 59 60 61 65 68 68 66 67 67 66 67 70 71 72 72 72 70 70 72 72 73 75 76 75 72
69 69 70 71 71 70 71 71 70 69 70 70 70 69 66 66 67 65 62 62 63 66 67 69 69 67 66 67 67 69 71 71 71 70 69 69 71 70 71 73 75 76 76
69 70 71 71 71 71 70 71 70 71 69 69 68 70 69 66 66 66 65 63 61 62 66 65 67 68 68 69 69 71 70 69 70 69 68 69 69 70 70 70 71 72 73
68 69 71 70 71 71 71 71 70 70 70 68 70 70 70 69 67 69 68 66 64 60 62 65 64 69 69 68 68 68 67 69 70 69 67 67 69 69 69 69 70 70 70
67 68 70 71 71 72 70 71 70 69 70 70 70 68 69 69 69 70 71 70 67 64 61 65 66 67 68 68 69 71 69 70 70 67 66 66 67 68 69 69 68 69 69
66 67 69 69 70 71 71 71 71 70 70 70 70 69 68 70 70 70 70 70 69 68 64 65 68 68 67 68 67 71 71 70 69 68 67 66 66 67 67 67 67 67 68
68 69 69 69 70 71 71 71 70 72 70 69 68 69 69 70 68 70 70 69 68 69 67 65 67 68 67 68 67 69 70 71 71 69 67 67 66 66 65 65 64 64 65
67 69 69 68 70 71 70 70 70 70 71 71 71 70 69 68 68 68 69 69 68 70 69 68 67 69 69 69 69 70 71 71 71 69 68 67 67 66 65 64 62 62 61
67 70 71 71 70 69 68 69 71 71 70 70 71 70 70 69 69 68 69 69 70 69 69 68 68 68 68 70 70 69 67 69 70 70 70 69 68 68 66 65 65 64 61
71 71 70 68 67 66 66 66 68 69 70 69 70 71 70 69 68 68 69 68 68 68 68 68 67 67 67 68 68 69 67 68 68 71 69 70 70 70 70 68 68 67 64
69 68 69 66 63 60 58 63 64 67 69 69 69 66 64 66 66 65 65 66 68 67 66 67 67 66 67 67 67 64 65 65 65 68 68 68 70 68 70 69 64 64 62
70 68 65 62 60 57 56 57 60 64 68 69 69 66 58 56 59 64 66 63 61 63 65 67 65 64 64 62 62 61 62 64 65 64 66 66 66 66 70 67 62 60 59
70 68 64 62 57 57 55 56 60 65 64 64 62 58 56 57 59 63 61 60 55 51 52 55 58 59 61 61 61 61 63 65 66 67 62 62 66 63 68 63 60 56 55
67 66 64 60 57 51 53 57 64 63 60 58 57 54 52 52 56 57 49 45 45 51 54 58 58 59 59 59 61 61 61 57 58 61 49 61 62 63 66 61 58 54 53
62 60 58 51 49 47 51 54 64 62 58 54 50 50 54 52 52 54 48 46 49 50 53 51 50 51 54 53 55 56 56 52 55 51 50 55 47 55 57 61 59 48 51

GFSMA_sfc_dewp_117.txt.gz
Dewpoint
62 64 67 67 67 65 68 68 68 68 68 67 69 69 68 61 64 66 68 72 73 72 71 71 71 72 74 75 76 76 77 77 77 76 76 76 75 75 75 75 74 73 72
65 67 66 64 66 68 70 69 69 67 67 66 64 61 63 61 61 63 66 67 73 73 72 72 72 73 74 75 76 77 78 77 77 77 77 76 75 75 75 74 74 72 71
68 68 67 67 68 70 70 70 69 69 68 66 63 62 58 58 59 59 61 63 66 71 74 74 75 76 76 75 77 78 77 76 77 77 77 76 75 75 74 74 74 73 72
70 68 68 69 70 71 70 69 67 66 66 66 64 65 62 59 58 58 59 61 63 65 68 70 73 74 75 76 78 78 77 76 76 76 76 75 75 74 74 74 73 73 72
71 70 70 69 68 68 70 71 68 65 64 64 64 65 66 65 62 63 63 65 64 67 69 70 73 73 73 74 77 77 77 77 76 76 77 76 74 75 74 74 73 74 72
72 72 70 66 67 69 71 70 69 70 65 64 64 64 66 65 65 65 65 67 68 69 70 72 73 73 74 75 74 76 77 76 77 76 76 76 74 75 73 72 73 73 73
71 71 66 63 69 70 70 72 71 70 68 67 64 64 63 64 64 67 68 68 68 68 68 68 72 72 72 74 74 74 74 74 75 76 75 75 75 75 72 71 73 73 73
71 71 70 68 69 68 70 70 70 69 69 69 67 63 59 63 64 65 68 67 67 67 67 67 67 69 67 68 69 72 73 72 73 75 75 74 74 75 73 72 72 74 73
71 72 70 70 69 68 69 70 70 70 68 67 67 65 62 60 62 64 64 67 68 68 68 69 67 67 66 66 67 68 72 72 74 74 74 74 74 74 74 72 72 73 73
70 71 71 71 70 70 69 71 71 70 69 67 67 68 66 64 60 60 63 64 67 67 68 68 68 67 66 67 66 68 71 73 73 73 73 73 74 73 75 74 71 71 72
70 71 70 71 70 70 70 70 70 70 70 68 67 65 65 64 62 59 57 60 64 66 68 68 68 68 67 66 65 68 71 71 71 73 74 72 73 74 74 76 74 72 71
70 70 71 71 70 70 70 70 69 70 70 70 69 67 65 63 62 59 58 58 59 64 67 68 68 67 66 66 67 70 71 70 71 71 72 72 71 72 72 74 75 75 72
69 69 70 71 70 70 70 71 70 68 69 69 69 67 65 65 65 62 60 61 62 64 67 68 67 66 67 68 67 70 71 70 69 68 70 70 70 71 72 72 74 75 76
68 69 70 71 70 71 69 71 70 71 69 69 68 69 66 65 65 64 62 62 61 61 63 65 67 68 69 68 70 71 69 69 68 68 68 68 69 70 71 70 71 72 73
68 68 71 70 71 70 71 70 70 70 70 68 69 69 68 67 65 67 67 65 63 60 59 64 64 66 68 68 69 70 70 69 69 68 67 66 68 69 69 70 70 70 70
66 68 70 70 70 70 71 70 70 69 69 69 70 68 69 69 68 69 68 68 67 63 61 64 66 66 67 68 70 71 70 70 68 67 67 67 67 67 68 69 69 68 69
66 66 67 69 68 70 71 70 70 69 68 69 69 68 68 69 69 69 69 69 68 67 63 64 67 68 67 67 68 71 72 71 70 68 68 67 67 66 67 67 66 67 68
65 65 67 69 68 70 69 70 70 70 70 69 68 69 68 69 68 68 69 68 68 68 66 64 66 68 68 69 69 70 70 70 71 68 67 67 66 66 65 64 63 64 65
66 67 69 68 68 69 70 70 70 70 70 70 70 69 69 68 68 68 68 68 68 70 68 67 66 68 68 70 69 70 67 69 70 69 68 68 67 66 65 64 62 61 60
67 66 68 69 69 70 68 69 70 71 71 70 70 70 70 69 68 68 68 68 69 68 68 66 66 67 67 69 69 67 65 67 68 67 69 69 68 68 65 62 62 61 60
67 68 69 69 67 67 67 66 68 69 70 70 70 70 69 69 68 68 69 68 68 67 66 66 66 66 66 66 65 66 65 66 67 65 68 67 69 67 61 62 60 59 57
70 69 69 66 63 61 59 63 64 67 68 69 69 66 66 67 66 65 65 67 68 67 66 67 67 65 64 64 63 62 63 64 63 63 64 65 65 67 59 59 58 56 54
69 68 65 63 61 59 57 57 61 64 67 68 68 65 58 57 62 65 62 59 58 61 65 67 64 63 62 62 61 60 62 63 62 57 63 64 65 65 58 52 58 54 52
69 67 65 62 59 58 55 56 60 63 65 63 64 61 58 60 60 64 59 51 51 51 53 54 57 58 59 60 61 61 63 63 66 58 53 61 63 61 60 49 56 53 51
69 67 64 61 60 58 55 56 63 63 60 59 59 59 60 59 57 58 56 45 52 53 55 57 58 56 55 56 59 59 56 54 56 56 45 56 47 54 63 49 47 55 50
63 62 59 58 56 56 55 56 62 61 58 56 56 56 55 54 55 52 47 50 52 51 50 49 49 48 49 50 54 53 54 52 53 43 45 46 45 51 47 56 45 45 42